Index of /testikuvat

 NameLast modifiedSizeDescription

 Parent Directory   -  
 IMG_6133.psd 2016-02-22 22:43 9.4M 
 mbc51o.jpg 2016-02-22 22:44 2.6M 
 zt156543.JPG 2016-02-22 22:50 2.4M 
 kt1132000-2.jpg 2016-02-22 22:43 761K 
 fl369127-1.jpg 2016-02-22 22:42 737K 
 xt041770001xt.gif 2016-02-22 22:49 440K 
 kt1132000.jpg 2016-02-22 22:43 425K 
 zu9568.jpg 2016-02-22 22:50 419K 
 tu1137.gif 2016-02-22 22:49 377K 
 Thumbs.db 2016-02-22 22:49 359K 
 zu8943.jpg 2016-02-22 22:50 315K 
 relv115.gif 2016-02-22 22:46 303K 
 fl363570.jpg 2016-02-22 22:41 295K 
 73-4070.jpg 2016-02-22 22:38 288K 
 fl369329.jpg 2016-02-22 22:42 262K 
 T44PR1C1Q1.jpg 2016-02-22 22:49 261K 
 Kin-Girl-BC-blk-1.jpg 2016-02-22 22:43 255K 
 fl369019.jpg 2016-02-22 22:42 253K 
 fl369011-1.jpg 2016-02-22 22:42 251K 
 fl363574.jpg 2016-02-22 22:41 244K 
 Kin-Girl-Yel-1.jpg 2016-02-22 22:43 243K 
 Kin-rs-orange-1.jpg 2016-02-22 22:43 240K 
 zu8942.jpg 2016-02-22 22:50 235K 
 fl364568.jpg 2016-02-22 22:41 227K 
 Kin-rs-red-2.jpg 2016-02-22 22:43 227K 
 po20054.jpg 2016-02-22 22:44 227K 
 po20052.jpg 2016-02-22 22:44 226K 
 Kin-Girl-Yel-3.jpg 2016-02-22 22:43 226K 
 Kin-Girl-Yel-2.jpg 2016-02-22 22:43 226K 
 Kin-Girl-BC-blk-2.jpg 2016-02-22 22:43 225K 
 fl739181.jpg 2016-02-22 22:43 225K 
 fl369425-1.jpg 2016-02-22 22:42 225K 
 Kin-Inv-bk-3.jpg 2016-02-22 22:43 223K 
 zu8940.jpg 2016-02-22 22:50 223K 
 fl369811-1.jpg 2016-02-22 22:42 223K 
 Kin-Inv-rd-3.jpg 2016-02-22 22:43 221K 
 Kin-rs-red-1.jpg 2016-02-22 22:43 221K 
 fl369421-1.jpg 2016-02-22 22:42 217K 
 Kin-rs-blue-1.jpg 2016-02-22 22:43 216K 
 cb10.jpg 2016-02-22 22:39 213K 
 Kin-rs-orange-2.jpg 2016-02-22 22:43 213K 
 Kin-Inv-rd-4.jpg 2016-02-22 22:43 212K 
 fl369428-1.jpg 2016-02-22 22:42 212K 
 fl369012-1.jpg 2016-02-22 22:42 209K 
 zu8934.jpg 2016-02-22 22:50 206K 
 fl369013-1.jpg 2016-02-22 22:42 205K 
 fl734087-1.jpg 2016-02-22 22:42 205K 
 fl369641-1.jpg 2016-02-22 22:42 205K 
 KinitcInversion.jpg 2016-02-22 22:43 203K 
 zu8944.jpg 2016-02-22 22:50 201K 
 fl739182.jpg 2016-02-22 22:43 200K 
 Kin-rs-orange-3.jpg 2016-02-22 22:43 198K 
 Kin-Inv-blue-4.jpg 2016-02-22 22:43 197K 
 fl734213-1.jpg 2016-02-22 22:42 196K 
 fl369415-2.jpg 2016-02-22 22:42 195K 
 fl369917-2.jpg 2016-02-22 22:42 194K 
 fl369417-2.jpg 2016-02-22 22:42 194K 
 Kin-Inv-gn-2.jpg 2016-02-22 22:43 192K 
 fl369610-1.jpg 2016-02-22 22:42 190K 
 Kin-rs-red-4.jpg 2016-02-22 22:43 190K 
 Kin-Inv-blue-2.jpg 2016-02-22 22:43 189K 
 fl369663-1.jpg 2016-02-22 22:42 189K 
 fl369411-2.jpg 2016-02-22 22:42 188K 
 fl369424-1.jpg 2016-02-22 22:42 187K 
 Kin-Inv-bk-4.jpg 2016-02-22 22:43 187K 
 352-6061.jpg 2016-02-22 22:38 186K 
 fl739182_4.jpg 2016-02-22 22:43 186K 
 mw1000-1.jpg 2016-02-22 22:44 185K 
 fl733307-1.jpg 2016-02-22 22:42 185K 
 fl733307-3.jpg 2016-02-22 22:42 184K 
 Lite-blue-2.jpg 2016-02-22 22:44 184K 
 fl739181_4.jpg 2016-02-22 22:43 184K 
 fl369413-2.jpg 2016-02-22 22:42 183K 
 kin-mesh-rs-blue-3.jpg 2016-02-22 22:43 181K 
 fl369417-1.jpg 2016-02-22 22:42 181K 
 fl734124-1.jpg 2016-02-22 22:42 181K 
 fl734218-1.jpg 2016-02-22 22:42 180K 
 fl733372-1.jpg 2016-02-22 22:42 179K 
 fl734212-1.jpg 2016-02-22 22:42 179K 
 Kin-rs-grn-3.jpg 2016-02-22 22:43 179K 
 fl369419-2.jpg 2016-02-22 22:42 178K 
 Kin-rs-blue-2.jpg 2016-02-22 22:43 178K 
 fl369011-2.jpg 2016-02-22 22:42 177K 
 fl369339.jpg 2016-02-22 22:42 177K 
 fl369414-2.jpg 2016-02-22 22:42 176K 
 fl369012-2.jpg 2016-02-22 22:42 176K 
 365-125.jpg 2016-02-22 22:38 176K 
 kin-mesh-rs-red-4.jpg 2016-02-22 22:43 175K 
 fl369912-2.jpg 2016-02-22 22:42 175K 
 fl734123-1.jpg 2016-02-22 22:42 175K 
 Kin-Inv-gn-1.jpg 2016-02-22 22:43 174K 
 fl734097-1.jpg 2016-02-22 22:42 174K 
 fl367127-2.jpg 2016-02-22 22:41 173K 
 fl739189.jpg 2016-02-22 22:43 173K 
 fl369418-1.jpg 2016-02-22 22:42 173K 
 fl734216-1.jpg 2016-02-22 22:42 173K 
 ps898221_1.jpg 2016-02-22 22:45 173K 
 fl734087-2.jpg 2016-02-22 22:42 172K 
 fl369642-1.jpg 2016-02-22 22:42 172K 
 ps89827ge-2.jpg 2016-02-22 22:45 172K 
 po20055.jpg 2016-02-22 22:44 172K 
 fl369641-2.jpg 2016-02-22 22:42 171K 
 fl286000.jpg 2016-02-22 22:40 171K 
 fl734087-3.jpg 2016-02-22 22:42 171K 
 Lite-red-2.jpg 2016-02-22 22:44 170K 
 fl369418-2.jpg 2016-02-22 22:42 170K 
 fl369915-2.jpg 2016-02-22 22:42 170K 
 zu8941.jpg 2016-02-22 22:50 170K 
 Kin-rs-blue-3.jpg 2016-02-22 22:43 169K 
 fl734122-1.jpg 2016-02-22 22:42 168K 
 fl369911-1.jpg 2016-02-22 22:42 168K 
 fl369411-1.jpg 2016-02-22 22:42 167K 
 fl369810-2.jpg 2016-02-22 22:42 167K 
 354-0058.jpg 2016-02-22 22:38 167K 
 mw1000-3.jpg 2016-02-22 22:44 167K 
 po20072-1.jpg 2016-02-22 22:44 167K 
 fl369611-1.jpg 2016-02-22 22:42 166K 
 fl369010-1.jpg 2016-02-22 22:42 166K 
 fl733366-3.jpg 2016-02-22 22:42 166K 
 fl369410-2.jpg 2016-02-22 22:42 166K 
 kin-mesh-inv-blue-4.jpg2016-02-22 22:43 166K 
 fl733446y.jpg 2016-02-22 22:42 165K 
 fl3510451.jpg 2016-02-22 22:40 165K 
 fl369618-1.jpg 2016-02-22 22:42 165K 
 Kin-rs-grn-5.jpg 2016-02-22 22:43 164K 
 fl733363-1.jpg 2016-02-22 22:42 164K 
 fl369640-1.jpg 2016-02-22 22:42 164K 
 zu8922-1.jpg 2016-02-22 22:50 164K 
 363-1109.jpg 2016-02-22 22:38 163K 
 fl369116-2.jpg 2016-02-22 22:42 163K 
 fl369721-1.jpg 2016-02-22 22:42 162K 
 fl734120-1.jpg 2016-02-22 22:42 161K 
 Kin-rs-red-3.jpg 2016-02-22 22:43 161K 
 fl369117-2.jpg 2016-02-22 22:42 160K 
 fl734210-1.jpg 2016-02-22 22:42 159K 
 fl3526112.jpg 2016-02-22 22:40 159K 
 fl369910-2.jpg 2016-02-22 22:42 159K 
 Kin-Inv-rd-1.jpg 2016-02-22 22:43 159K 
 zu8922-2.jpg 2016-02-22 22:50 159K 
 ps89827o-2.jpg 2016-02-22 22:45 158K 
 fl369915-1.jpg 2016-02-22 22:42 158K 
 fl369117-1.jpg 2016-02-22 22:42 158K 
 fl369419-1.jpg 2016-02-22 22:42 157K 
 fl369642-2.jpg 2016-02-22 22:42 157K 
 fl3609383_1.jpg 2016-02-22 22:40 157K 
 fl369413-1.jpg 2016-02-22 22:42 157K 
 fl369914-2.jpg 2016-02-22 22:42 157K 
 fl733363-3.jpg 2016-02-22 22:42 156K 
 ps89827r-2.jpg 2016-02-22 22:45 156K 
 365-122.jpg 2016-02-22 22:38 156K 
 fl369911-2.jpg 2016-02-22 22:42 155K 
 zu9534_3.jpg 2016-02-22 22:50 155K 
 Lite-blue-3.jpg 2016-02-22 22:44 155K 
 fl369817-2.jpg 2016-02-22 22:42 155K 
 fl733376-1.jpg 2016-02-22 22:42 155K 
 fl369112-1.jpg 2016-02-22 22:42 155K 
 fl369811-2.jpg 2016-02-22 22:42 154K 
 fl998227.jpg 2016-02-22 22:43 154K 
 365-121_low.jpg 2016-02-22 22:38 154K 
 365-121.jpg 2016-02-22 22:38 154K 
 fl369817-1.jpg 2016-02-22 22:42 153K 
 fl369010-2.jpg 2016-02-22 22:42 153K 
 fl369112-2.jpg 2016-02-22 22:42 152K 
 Kin-rs-grn-1.jpg 2016-02-22 22:43 152K 
 fl733370-1.jpg 2016-02-22 22:42 152K 
 fl369910-1.jpg 2016-02-22 22:42 152K 
 zu96351.jpg 2016-02-22 22:50 152K 
 352-6075.jpg 2016-02-22 22:38 152K 
 fl367638_2.jpg 2016-02-22 22:41 152K 
 sm2022.jpg 2016-02-22 22:48 152K 
 ps89827g-2.jpg 2016-02-22 22:45 151K 
 fl369110-1.jpg 2016-02-22 22:42 151K 
 fl369126-2.jpg 2016-02-22 22:42 150K 
 po20071-1.jpg 2016-02-22 22:44 150K 
 ps89827b-2.jpg 2016-02-22 22:45 149K 
 fl369120-2.jpg 2016-02-22 22:42 149K 
 fl369813-2.jpg 2016-02-22 22:42 149K 
 fl369628-1.jpg 2016-02-22 22:42 148K 
 fl739189_4.jpg 2016-02-22 22:43 148K 
 fl369415-1.jpg 2016-02-22 22:42 148K 
 fl369629-1.jpg 2016-02-22 22:42 147K 
 fl733373-1.jpg 2016-02-22 22:42 147K 
 fl3526116.jpg 2016-02-22 22:40 147K 
 fl369810-1.jpg 2016-02-22 22:42 146K 
 fl3580068.jpg 2016-02-22 22:40 144K 
 fl733375-1.jpg 2016-02-22 22:42 144K 
 fl369410-1.jpg 2016-02-22 22:42 144K 
 fl369917-1.jpg 2016-02-22 22:42 144K 
 kin-mesh-inv-blue-3.jpg2016-02-22 22:43 143K 
 Kin-Inv-bk-1.jpg 2016-02-22 22:43 143K 
 ps89815b.jpg 2016-02-22 22:45 143K 
 Kin-Inv-blue-1.jpg 2016-02-22 22:43 143K 
 Kin-Inv-gn-3.jpg 2016-02-22 22:43 143K 
 fl369522-1.jpg 2016-02-22 22:42 142K 
 xt40705001.jpg 2016-02-22 22:49 141K 
 xt40505002.jpg 2016-02-22 22:49 141K 
 xt40405003.jpg 2016-02-22 22:49 141K 
 xt40405002.jpg 2016-02-22 22:49 141K 
 xt40301002.jpg 2016-02-22 22:49 141K 
 xt40201005.jpg 2016-02-22 22:49 141K 
 xt40104005.jpg 2016-02-22 22:49 141K 
 xt40101004.jpg 2016-02-22 22:49 141K 
 Kinetic-Inv-RS.jpg 2016-02-22 22:43 141K 
 fl368620.jpg 2016-02-22 22:42 141K 
 fl733488.jpg 2016-02-22 22:42 141K 
 zu4831-1.jpg 2016-02-22 22:50 141K 
 Kin-rs-orange-4.jpg 2016-02-22 22:43 141K 
 fl369640-2.jpg 2016-02-22 22:42 140K 
 fl734097-3.jpg 2016-02-22 22:42 140K 
 fl369414-1.jpg 2016-02-22 22:42 140K 
 kin-mesh-rs-blue-4.jpg 2016-02-22 22:43 140K 
 kin-mesh-rs-red-1.jpg 2016-02-22 22:43 140K 
 fl3500860-1.jpg 2016-02-22 22:40 139K 
 fl3609802_12.jpg 2016-02-22 22:40 139K 
 fl3609801_2.jpg 2016-02-22 22:40 139K 
 fl369110-2.jpg 2016-02-22 22:42 139K 
 365-128.jpg 2016-02-22 22:38 139K 
 fl369812-2.jpg 2016-02-22 22:42 139K 
 73-4044.jpg 2016-02-22 22:38 138K 
 fl368680.jpg 2016-02-22 22:42 138K 
 xtsxs06450404.jpg 2016-02-22 22:49 138K 
 fl739184.jpg 2016-02-22 22:43 138K 
 fl369221-1.jpg 2016-02-22 22:42 137K 
 as106030-2.jpg 2016-02-22 22:39 137K 
 zu96353.jpg 2016-02-22 22:50 136K 
 zu4832-1.jpg 2016-02-22 22:50 136K 
 fl733371-1.jpg 2016-02-22 22:42 135K 
 fl369912-1.jpg 2016-02-22 22:42 135K 
 fl3520695-3.jpg 2016-02-22 22:40 134K 
 fl3510450.jpg 2016-02-22 22:40 134K 
 mw1000-2.jpg 2016-02-22 22:44 134K 
 365-529.jpg 2016-02-22 22:38 134K 
 365-229.jpg 2016-02-22 22:38 134K 
 fl733376-3.jpg 2016-02-22 22:42 134K 
 ps89827s-2.jpg 2016-02-22 22:45 134K 
 fl733307-2.jpg 2016-02-22 22:42 133K 
 73-3484.jpg 2016-02-22 22:38 133K 
 po20061-1.jpg 2016-02-22 22:44 133K 
 fl734054.jpg 2016-02-22 22:42 133K 
 fl3510330.jpg 2016-02-22 22:40 132K 
 Kin-Inv-rd-2.jpg 2016-02-22 22:43 132K 
 po20062-1.jpg 2016-02-22 22:44 132K 
 fl3520531-1.jpg 2016-02-22 22:40 132K 
 as106030-1.jpg 2016-02-22 22:39 131K 
 fl733372-3.jpg 2016-02-22 22:42 131K 
 fl369624-1.jpg 2016-02-22 22:42 131K 
 fl369116-1.jpg 2016-02-22 22:42 131K 
 fl368624.jpg 2016-02-22 22:42 131K 
 kin-mesh-inv-blue-1.jpg2016-02-22 22:43 131K 
 fl369118-1.jpg 2016-02-22 22:42 130K 
 kin-mesh-rs-blue-2.jpg 2016-02-22 22:43 130K 
 fl734097-2.jpg 2016-02-22 22:42 129K 
 fl737097-2.jpg 2016-02-22 22:42 129K 
 fl3609385_1.jpg 2016-02-22 22:40 129K 
 fl369013-2.jpg 2016-02-22 22:42 129K 
 as106031-1.jpg 2016-02-22 22:39 129K 
 zu8936-1.jpg 2016-02-22 22:50 128K 
 fl369732-3.jpg 2016-02-22 22:42 127K 
 fl367919-2.jpg 2016-02-22 22:42 127K 
 fl734055.jpg 2016-02-22 22:42 127K 
 fl739184_4.jpg 2016-02-22 22:43 126K 
 fl369812-1.jpg 2016-02-22 22:42 126K 
 fl3609802_11.jpg 2016-02-22 22:40 126K 
 fl3609801_1.jpg 2016-02-22 22:40 126K 
 fl369231-1.jpg 2016-02-22 22:42 126K 
 fl3520531-2.jpg 2016-02-22 22:40 126K 
 364-228.jpg 2016-02-22 22:38 126K 
 zu96352.jpg 2016-02-22 22:50 126K 
 fl3500861-1.jpg 2016-02-22 22:40 126K 
 fl734053.jpg 2016-02-22 22:42 125K 
 fl369728-1.jpg 2016-02-22 22:42 125K 
 365-221.jpg 2016-02-22 22:38 125K 
 fl369813-1.jpg 2016-02-22 22:42 125K 
 fl36258410-1.jpg 2016-02-22 22:41 125K 
 fl362584-1.jpg 2016-02-22 22:41 125K 
 zu8934-1.jpg 2016-02-22 22:50 125K 
 fl369638-1.jpg 2016-02-22 22:42 125K 
 fl367611_1.jpg 2016-02-22 22:41 124K 
 fl121864_5.jpg 2016-02-22 22:40 124K 
 fl369722-1.jpg 2016-02-22 22:42 124K 
 fl3566069_2.jpg 2016-02-22 22:40 123K 
 zu9581r_2.jpg 2016-02-22 22:50 123K 
 fl734064_2.jpg 2016-02-22 22:42 123K 
 73-3482.jpg 2016-02-22 22:38 123K 
 73-4045.jpg 2016-02-22 22:38 123K 
 fl368421.jpg 2016-02-22 22:42 122K 
 fl3609384_1.jpg 2016-02-22 22:40 122K 
 S46PR1C2Q1.jpg 2016-02-22 22:46 122K 
 Lite-red-3.jpg 2016-02-22 22:44 122K 
 fl369731-1.jpg 2016-02-22 22:42 122K 
 73-4039.jpg 2016-02-22 22:38 122K 
 fl733373-3.jpg 2016-02-22 22:42 121K 
 zu1965_2.jpg 2016-02-22 22:50 121K 
 73-4040.jpg 2016-02-22 22:38 121K 
 as106031-2.jpg 2016-02-22 22:39 121K 
 73-4032.jpg 2016-02-22 22:38 121K 
 fl734052.jpg 2016-02-22 22:42 120K 
 fl733372-2.jpg 2016-02-22 22:42 120K 
 fl3609386_1.jpg 2016-02-22 22:40 120K 
 fl366738_4.jpg 2016-02-22 22:41 120K 
 fl739181_3.jpg 2016-02-22 22:43 119K 
 354-0050.jpg 2016-02-22 22:38 119K 
 364-218.jpg 2016-02-22 22:38 119K 
 fl3520692-3.jpg 2016-02-22 22:40 119K 
 fl369118-2.jpg 2016-02-22 22:42 119K 
 365-225.jpg 2016-02-22 22:38 119K 
 fl733366-2.jpg 2016-02-22 22:42 119K 
 fl733366-1.jpg 2016-02-22 22:42 119K 
 fl369914-1.jpg 2016-02-22 22:42 119K 
 fl733370-3.jpg 2016-02-22 22:42 119K 
 fl369438-1.jpg 2016-02-22 22:42 119K 
 fl733376-2.jpg 2016-02-22 22:42 119K 
 ps89827o-1.jpg 2016-02-22 22:45 118K 
 365-223.jpg 2016-02-22 22:38 118K 
 fl369137-1.jpg 2016-02-22 22:42 117K 
 fl365528.jpg 2016-02-22 22:41 117K 
 tu1045.jpg 2016-02-22 22:49 117K 
 365-228.jpg 2016-02-22 22:38 117K 
 fl369521-1.jpg 2016-02-22 22:42 117K 
 364-224.jpg 2016-02-22 22:38 116K 
 3616075_9.jpg 2016-02-22 22:38 116K 
 365-115.jpg 2016-02-22 22:38 116K 
 fl369611-2.jpg 2016-02-22 22:42 115K 
 kin-mesh-rs-red-3.jpg 2016-02-22 22:43 115K 
 fl369610-2.jpg 2016-02-22 22:42 115K 
 351-0180.jpg 2016-02-22 22:38 115K 
 fl369527-1.jpg 2016-02-22 22:42 115K 
 fl733498.jpg 2016-02-22 22:42 115K 
 fl366721.jpg 2016-02-22 22:41 115K 
 fl285063.jpg 2016-02-22 22:40 115K 
 fl366121.jpg 2016-02-22 22:41 115K 
 ps89827r-1.jpg 2016-02-22 22:45 115K 
 365-428.jpg 2016-02-22 22:38 114K 
 zu8936-2.jpg 2016-02-22 22:50 114K 
 365-521.jpg 2016-02-22 22:38 114K 
 ps89856s-2.jpg 2016-02-22 22:45 114K 
 ps89842s-2.jpg 2016-02-22 22:45 114K 
 ps89840s-2.jpg 2016-02-22 22:45 114K 
 ps89837s-2.jpg 2016-02-22 22:45 114K 
 ps84597s-2.jpg 2016-02-22 22:45 114K 
 ps84596s-2.jpg 2016-02-22 22:45 114K 
 ps84595s-2.jpg 2016-02-22 22:45 114K 
 ps84594s-2.jpg 2016-02-22 22:45 114K 
 ps84593-2.jpg 2016-02-22 22:45 114K 
 ps84592s-2.jpg 2016-02-22 22:45 114K 
 ps84591s-2.jpg 2016-02-22 22:45 114K 
 ps84590s-2.jpg 2016-02-22 22:45 114K 
 ps84589s-2.jpg 2016-02-22 22:45 114K 
 ps84588s-2.jpg 2016-02-22 22:45 114K 
 ps84587s-2.jpg 2016-02-22 22:45 114K 
 ps84586s-2.jpg 2016-02-22 22:45 114K 
 ps84585s-2.jpg 2016-02-22 22:45 114K 
 ps89827ge-1.jpg 2016-02-22 22:45 114K 
 zu8936_5.jpg 2016-02-22 22:50 114K 
 zu9579_1.jpg 2016-02-22 22:50 114K 
 fl369531-1.jpg 2016-02-22 22:42 114K 
 365-120.jpg 2016-02-22 22:38 113K 
 fl739181_2.jpg 2016-02-22 22:43 113K 
 363-390.jpg 2016-02-22 22:38 113K 
 fl366129_1.jpg 2016-02-22 22:41 113K 
 73-4033.jpg 2016-02-22 22:38 113K 
 fl369814-2.jpg 2016-02-22 22:42 113K 
 fl368222.jpg 2016-02-22 22:42 113K 
 fl3566119-1.jpg 2016-02-22 22:40 112K 
 fl367638_4.jpg 2016-02-22 22:41 112K 
 fl739182_3.jpg 2016-02-22 22:43 112K 
 fl369612-1.jpg 2016-02-22 22:42 112K 
 fl367020_1.jpg 2016-02-22 22:41 112K 
 hmawwa2ux.jpg 2016-02-22 22:43 112K 
 fl369220-1.jpg 2016-02-22 22:42 112K 
 fl733347_2.jpg 2016-02-22 22:42 112K 
 fl369618-2.jpg 2016-02-22 22:42 111K 
 364-214.jpg 2016-02-22 22:38 111K 
 fl369520-1.jpg 2016-02-22 22:42 111K 
 fl734064.jpg 2016-02-22 22:42 111K 
 fl369814-1.jpg 2016-02-22 22:42 110K 
 fl738180_4.jpg 2016-02-22 22:42 110K 
 zu4830-1.jpg 2016-02-22 22:50 110K 
 fl3609801.jpg 2016-02-22 22:40 110K 
 fl369431-1.jpg 2016-02-22 22:42 110K 
 365-218.jpg 2016-02-22 22:38 109K 
 as106040-2.jpg 2016-02-22 22:39 109K 
 365-111.jpg 2016-02-22 22:38 109K 
 fl734053_2.jpg 2016-02-22 22:42 109K 
 351-0175.jpg 2016-02-22 22:38 109K 
 ps89827g-1.jpg 2016-02-22 22:45 109K 
 zu8923.jpg 2016-02-22 22:50 109K 
 fl369928-1.jpg 2016-02-22 22:42 109K 
 kin-mesh-inv-blue-2.jpg2016-02-22 22:43 109K 
 fl367618_1.jpg 2016-02-22 22:41 108K 
 fl3520281.jpg 2016-02-22 22:40 108K 
 fl733375-3.jpg 2016-02-22 22:42 108K 
 ps89827b-1.jpg 2016-02-22 22:45 108K 
 358-0031.jpg 2016-02-22 22:38 108K 
 cm5213r-3.jpg 2016-02-22 22:39 108K 
 as104040-3.jpg 2016-02-22 22:38 108K 
 as106040-1.jpg 2016-02-22 22:39 108K 
 zu96102.jpg 2016-02-22 22:50 108K 
 fl739182_2.jpg 2016-02-22 22:43 107K 
 365-222.jpg 2016-02-22 22:38 107K 
 fl366738_3.jpg 2016-02-22 22:41 107K 
 ps89815sw.jpg 2016-02-22 22:45 107K 
 365-418.jpg 2016-02-22 22:38 107K 
 363-121.jpg 2016-02-22 22:38 107K 
 fl3609383.jpg 2016-02-22 22:40 107K 
 fl998223.jpg 2016-02-22 22:43 107K 
 365-13534.jpg 2016-02-22 22:38 107K 
 fl367425.jpg 2016-02-22 22:41 107K 
 365-118.jpg 2016-02-22 22:38 107K 
 hmt1gxam4.jpg 2016-02-22 22:43 107K 
 hmt1gxam3.jpg 2016-02-22 22:43 107K 
 hmt1gxam2.jpg 2016-02-22 22:43 107K 
 hmt1gxam1.jpg 2016-02-22 22:43 107K 
 fl369631-1.jpg 2016-02-22 22:42 107K 
 zu96103.jpg 2016-02-22 22:50 107K 
 zu4841-1.jpg 2016-02-22 22:50 106K 
 fl3609385.jpg 2016-02-22 22:40 106K 
 fl369634-1.jpg 2016-02-22 22:42 106K 
 fl369136-2.jpg 2016-02-22 22:42 106K 
 365-542.jpg 2016-02-22 22:38 106K 
 fl367929.jpg 2016-02-22 22:42 106K 
 365-112.jpg 2016-02-22 22:38 106K 
 fl369925-1.jpg 2016-02-22 22:42 106K 
 fl369732-4.jpg 2016-02-22 22:42 106K 
 360-9845.jpg 2016-02-22 22:38 106K 
 fl367235_3.jpg 2016-02-22 22:41 106K 
 fl3520282.jpg 2016-02-22 22:40 106K 
 351-0186.jpg 2016-02-22 22:38 106K 
 as106041-1.jpg 2016-02-22 22:39 105K 
 fl739138.jpg 2016-02-22 22:43 105K 
 fl367418_1.jpg 2016-02-22 22:41 105K 
 73-3487.jpg 2016-02-22 22:38 105K 
 mwy21519rsbdst13.jpg 2016-02-22 22:44 105K 
 mwy21519rsbdst.jpg 2016-02-22 22:44 105K 
 mwy21518rsbdst.jpg 2016-02-22 22:44 105K 
 mwy21518rkbdst.jpg 2016-02-22 22:44 105K 
 mwy18519rsbdst.jpg 2016-02-22 22:44 105K 
 mwy18519rkbdst13.jpg 2016-02-22 22:44 105K 
 mwy18519rkbdst.jpg 2016-02-22 22:44 105K 
 mwy16021rsbdst14.jpg 2016-02-22 22:44 105K 
 mwy16021rsbdst.jpg 2016-02-22 22:44 105K 
 mwy16021rkbdst14.jpg 2016-02-22 22:44 105K 
 mwy16021rkbdst.jpg 2016-02-22 22:44 105K 
 mwq21519rsbdst14.jpg 2016-02-22 22:44 105K 
 mwq21519rkdst14.jpg 2016-02-22 22:44 105K 
 mwq21518rsbdst14.jpg 2016-02-22 22:44 105K 
 mwq21518rkbst14.jpg 2016-02-22 22:44 105K 
 mwq18519rsbdst14.jpg 2016-02-22 22:44 105K 
 mwq18519rkbdst14.jpg 2016-02-22 22:44 105K 
 mwq16021rsbdst15.jpg 2016-02-22 22:44 105K 
 mwq16021rsbdst14.jpg 2016-02-22 22:44 105K 
 mwq16021rkbst15.jpg 2016-02-22 22:44 105K 
 mwq16021rkbst14.jpg 2016-02-22 22:44 105K 
 mw21519rkbdst13.jpg 2016-02-22 22:44 105K 
 mw18519rsbdst13.jpg 2016-02-22 22:44 105K 
 mw16021rkbdst.jpg 2016-02-22 22:44 105K 
 fl369537-1.jpg 2016-02-22 22:42 105K 
 mwt21519rsodst13.jpg 2016-02-22 22:44 105K 
 mwt21519rsodst.jpg 2016-02-22 22:44 105K 
 mwt21519rkodst13.jpg 2016-02-22 22:44 105K 
 mwt21519rkodst.jpg 2016-02-22 22:44 105K 
 mwt21518rsodst.jpg 2016-02-22 22:44 105K 
 mwt21518rkost.jpg 2016-02-22 22:44 105K 
 mwt18519rsodst13.jpg 2016-02-22 22:44 105K 
 mwt18519rsodst.jpg 2016-02-22 22:44 105K 
 mwt18519rkodst13.jpg 2016-02-22 22:44 105K 
 mwt18519rkodst.jpg 2016-02-22 22:44 105K 
 mwt16021rsodst15.jpg 2016-02-22 22:44 105K 
 mwt16021rsodst.jpg 2016-02-22 22:44 105K 
 mwt16021rkost.jpg 2016-02-22 22:44 105K 
 mwt16021rkodst15.jpg 2016-02-22 22:44 105K 
 fl733363-2.jpg 2016-02-22 22:42 104K 
 fl366128_2.jpg 2016-02-22 22:41 104K 
 fl366211_1.jpg 2016-02-22 22:41 104K 
 fl366322_1.jpg 2016-02-22 22:41 104K 
 fl366128_1.jpg 2016-02-22 22:41 104K 
 fl733370-2.jpg 2016-02-22 22:42 104K 
 fl733353.jpg 2016-02-22 22:42 104K 
 fl734124-3.jpg 2016-02-22 22:42 104K 
 354-0081.jpg 2016-02-22 22:38 104K 
 fl3609803.jpg 2016-02-22 22:40 104K 
 mwk21519rsvdst.jpg 2016-02-22 22:44 104K 
 mwk21519rkvdst.jpg 2016-02-22 22:44 104K 
 mwk21518rsvdst.jpg 2016-02-22 22:44 104K 
 mwk21518rkvdst.jpg 2016-02-22 22:44 104K 
 mwk18519rsvdst.jpg 2016-02-22 22:44 104K 
 mwk18519rkvdst.jpg 2016-02-22 22:44 104K 
 mwk16021rsvdst.jpg 2016-02-22 22:44 104K 
 mwk16021rkvdst.jpg 2016-02-22 22:44 104K 
 365-211.jpg 2016-02-22 22:38 104K 
 fl734054_2.jpg 2016-02-22 22:42 104K 
 fl3520280.jpg 2016-02-22 22:40 103K 
 352-0168.jpg 2016-02-22 22:38 103K 
 fl366722.jpg 2016-02-22 22:41 103K 
 dd46010.jpg 2016-02-22 22:39 103K 
 hmawwa1ux.jpg 2016-02-22 22:43 103K 
 fl734124-2.jpg 2016-02-22 22:42 103K 
 fl367412_1.jpg 2016-02-22 22:41 103K 
 fl36551113.jpg 2016-02-22 22:41 103K 
 fl734071-2.jpg 2016-02-22 22:42 103K 
 fl369922-1.jpg 2016-02-22 22:42 103K 
 fl366215.jpg 2016-02-22 22:41 103K 
 fl368614.jpg 2016-02-22 22:42 103K 
 fl366728.jpg 2016-02-22 22:41 103K 
 fl734061_2.jpg 2016-02-22 22:42 103K 
 mwy21519rkbdst13.jpg 2016-02-22 22:44 102K 
 mwy21519rkbdst.jpg 2016-02-22 22:44 102K 
 mwq21519rkbdst14.jpg 2016-02-22 22:44 102K 
 mwq21518rkbdst14.jpg 2016-02-22 22:44 102K 
 mwq16021rkbdst15.jpg 2016-02-22 22:44 102K 
 mwq16021rkbdst14.jpg 2016-02-22 22:44 102K 
 fl734115.jpg 2016-02-22 22:42 102K 
 fl366129_2.jpg 2016-02-22 22:41 102K 
 351-0191.jpg 2016-02-22 22:38 102K 
 fl369136-1.jpg 2016-02-22 22:42 102K 
 mwt21518rkodst.jpg 2016-02-22 22:44 102K 
 mwt16021rkodst.jpg 2016-02-22 22:44 102K 
 as105020.jpg 2016-02-22 22:39 102K 
 mws21519rsrdst.jpg 2016-02-22 22:44 102K 
 mws21519rkrdst.jpg 2016-02-22 22:44 102K 
 mws21518rsrdst.jpg 2016-02-22 22:44 102K 
 mws21518rkrdst.jpg 2016-02-22 22:44 102K 
 mws18519rsrdst.jpg 2016-02-22 22:44 102K 
 mws18519rkrdst.jpg 2016-02-22 22:44 102K 
 mws16021rsrdst.jpg 2016-02-22 22:44 102K 
 mws16021rkrdst.jpg 2016-02-22 22:44 102K 
 mwq21519rkrdst.jpg 2016-02-22 22:44 102K 
 mwq21518rsrdst.jpg 2016-02-22 22:44 102K 
 mwq21518rkrdst.jpg 2016-02-22 22:44 102K 
 mwq18519rsrdst.jpg 2016-02-22 22:44 102K 
 mwq18519rkrdst.jpg 2016-02-22 22:44 102K 
 mwq16021rsrdst.jpg 2016-02-22 22:44 102K 
 mwq16021rkrdst.jpg 2016-02-22 22:44 102K 
 mwhh21518rkrdst13.jpg 2016-02-22 22:44 102K 
 mwh21519rkrdst13.jpg 2016-02-22 22:44 102K 
 mwh21519rkrdst.jpg 2016-02-22 22:44 102K 
 mwh21518rkrdst.jpg 2016-02-22 22:44 102K 
 mwh18519rkrdst13.jpg 2016-02-22 22:44 102K 
 mwh18519rkrdst.jpg 2016-02-22 22:44 102K 
 mwh16021rkrdst.jpg 2016-02-22 22:44 102K 
 365-215.jpg 2016-02-22 22:38 101K 
 365-010.jpg 2016-02-22 22:38 101K 
 fl366228.jpg 2016-02-22 22:41 101K 
 fl739139.jpg 2016-02-22 22:43 101K 
 zu177759sl40.jpg 2016-02-22 22:50 101K 
 zu177759sl30.jpg 2016-02-22 22:50 101K 
 zu177759sl20.jpg 2016-02-22 22:50 101K 
 zu177759sl11.jpg 2016-02-22 22:50 101K 
 zu177759sl10.jpg 2016-02-22 22:50 101K 
 zu177759sl00.jpg 2016-02-22 22:50 101K 
 fl733347.jpg 2016-02-22 22:42 101K 
 as106051-2.jpg 2016-02-22 22:39 101K 
 ps84479o.jpg 2016-02-22 22:45 101K 
 fl734055_2.jpg 2016-02-22 22:42 101K 
 fl734062_2.jpg 2016-02-22 22:42 101K 
 fl369724-1.jpg 2016-02-22 22:42 101K 
 stfhqx020.jpg 2016-02-22 22:49 101K 
 fl36551101_2.jpg 2016-02-22 22:41 101K 
 fl733305-2.jpg 2016-02-22 22:42 101K 
 fl366321_1.jpg 2016-02-22 22:41 101K 
 fl3566119-2.jpg 2016-02-22 22:40 100K 
 zu8936_1.jpg 2016-02-22 22:50 100K 
 fl367915_1.jpg 2016-02-22 22:41 100K 
 fl734062.jpg 2016-02-22 22:42 100K 
 fl733944.jpg 2016-02-22 22:42 100K 
 fl734052_2.jpg 2016-02-22 22:42 100K 
 fl3510454.jpg 2016-02-22 22:40 100K 
 fl368422.jpg 2016-02-22 22:42 100K 
 365-511.jpg 2016-02-22 22:38 100K 
 fl36551101_1.jpg 2016-02-22 22:41 100K 
 fl733343.jpg 2016-02-22 22:42 100K 
 fl734113.jpg 2016-02-22 22:42 100K 
 fl369667-1.jpg 2016-02-22 22:42 99K 
 mwh21518rkrdst13.jpg 2016-02-22 22:44 99K 
 fl3609384.jpg 2016-02-22 22:40 99K 
 365-320.jpg 2016-02-22 22:38 99K 
 fl733304.jpg 2016-02-22 22:42 99K 
 365-217.jpg 2016-02-22 22:38 99K 
 351-0176.jpg 2016-02-22 22:38 99K 
 fl36258010-1.jpg 2016-02-22 22:41 99K 
 fl362580-1.jpg 2016-02-22 22:41 99K 
 fl285128_2.jpg 2016-02-22 22:40 99K 
 fl285108_2.jpg 2016-02-22 22:40 99K 
 fl734052_1.jpg 2016-02-22 22:42 99K 
 fl738180_3.jpg 2016-02-22 22:42 99K 
 363-1101.jpg 2016-02-22 22:38 99K 
 po20091-1.jpg 2016-02-22 22:44 99K 
 zu4833-1.jpg 2016-02-22 22:50 99K 
 fl734122-2.jpg 2016-02-22 22:42 99K 
 fl733358.jpg 2016-02-22 22:42 99K 
 369-421-9.jpg 2016-02-22 22:38 99K 
 fl367911.jpg 2016-02-22 22:41 98K 
 fl733373-2.jpg 2016-02-22 22:42 98K 
 fl733792.jpg 2016-02-22 22:42 98K 
 fl369532-1.jpg 2016-02-22 22:42 98K 
 fl733347_1.jpg 2016-02-22 22:42 98K 
 fl369230-1.jpg 2016-02-22 22:42 98K 
 fl734053_1.jpg 2016-02-22 22:42 98K 
 fl734116.jpg 2016-02-22 22:42 98K 
 fl734064_1.jpg 2016-02-22 22:42 97K 
 fl3520358_1.jpg 2016-02-22 22:40 97K 
 365-522.jpg 2016-02-22 22:38 97K 
 fl739137.jpg 2016-02-22 22:43 97K 
 fl366720.jpg 2016-02-22 22:41 97K 
 fl369120-1.jpg 2016-02-22 22:42 97K 
 as105030.jpg 2016-02-22 22:39 97K 
 fl367611.jpg 2016-02-22 22:41 97K 
 fl367618.jpg 2016-02-22 22:41 97K 
 as106041-2.jpg 2016-02-22 22:39 97K 
 fl366125.jpg 2016-02-22 22:41 97K 
 fl734063_2.jpg 2016-02-22 22:42 97K 
 fl733346.jpg 2016-02-22 22:42 97K 
 fl366012_1.jpg 2016-02-22 22:41 97K 
 fl734116-2.jpg 2016-02-22 22:42 97K 
 as105030-1.jpg 2016-02-22 22:39 96K 
 fl733643.jpg 2016-02-22 22:42 96K 
 fl368011-2.jpg 2016-02-22 22:42 96K 
 zu96109.jpg 2016-02-22 22:50 96K 
 fl366418_1.jpg 2016-02-22 22:41 96K 
 fl367915.jpg 2016-02-22 22:41 96K 
 fl739189_3.jpg 2016-02-22 22:43 96K 
 fl3540115.jpg 2016-02-22 22:40 96K 
 365-213.jpg 2016-02-22 22:38 96K 
 fl36258410-3.jpg 2016-02-22 22:41 96K 
 fl362584-3.jpg 2016-02-22 22:41 96K 
 zu8934-2.jpg 2016-02-22 22:50 96K 
 365-016.jpg 2016-02-22 22:38 96K 
 fl366689_1.jpg 2016-02-22 22:41 96K 
 fl733345.jpg 2016-02-22 22:42 96K 
 stfhqx010.jpg 2016-02-22 22:49 96K 
 zu8936_3.jpg 2016-02-22 22:50 95K 
 fl368428.jpg 2016-02-22 22:42 95K 
 ps84476ge.jpg 2016-02-22 22:45 95K 
 fl367422.jpg 2016-02-22 22:41 95K 
 fl366221.jpg 2016-02-22 22:41 95K 
 fl367621.jpg 2016-02-22 22:41 95K 
 351-0141.jpg 2016-02-22 22:38 95K 
 fl366218_1.jpg 2016-02-22 22:41 95K 
 fl368521.jpg 2016-02-22 22:42 95K 
 zu8937s_5.jpg 2016-02-22 22:50 95K 
 fl733342.jpg 2016-02-22 22:42 95K 
 363-122.jpg 2016-02-22 22:38 95K 
 as106050-2.jpg 2016-02-22 22:39 95K 
 369-428-9.jpg 2016-02-22 22:38 95K 
 fl368220.jpg 2016-02-22 22:42 95K 
 fl734064_3.jpg 2016-02-22 22:42 95K 
 fl367418.jpg 2016-02-22 22:41 95K 
 fl369732-1.jpg 2016-02-22 22:42 95K 
 fl734063.jpg 2016-02-22 22:42 95K 
 stfsux010.jpg 2016-02-22 22:49 94K 
 fl368610.jpg 2016-02-22 22:42 94K 
 fl369921-1.jpg 2016-02-22 22:42 94K 
 fl369126-1.jpg 2016-02-22 22:42 94K 
 fl734061_3.jpg 2016-02-22 22:42 94K 
 stfkwx010.jpg 2016-02-22 22:49 94K 
 73-3485.jpg 2016-02-22 22:38 94K 
 fl368011.jpg 2016-02-22 22:42 94K 
 8542661.jpg 2016-02-22 22:38 94K 
 fl367417.jpg 2016-02-22 22:41 94K 
 AX1072_2.jpg 2016-02-22 22:39 93K 
 as104040.jpg 2016-02-22 22:38 93K 
 re1345g.jpg 2016-02-22 22:45 93K 
 hmrbe22u0.jpg 2016-02-22 22:43 93K 
 365-012.jpg 2016-02-22 22:38 93K 
 fl734123-2.jpg 2016-02-22 22:42 93K 
 363-10934.jpg 2016-02-22 22:38 93K 
 re1345y.jpg 2016-02-22 22:45 93K 
 fl369738-1.jpg 2016-02-22 22:42 93K 
 stfhnx010.jpg 2016-02-22 22:49 93K 
 fl367115.jpg 2016-02-22 22:41 93K 
 73-4046.jpg 2016-02-22 22:38 93K 
 36-16075.jpg 2016-02-22 22:38 93K 
 fl734051.jpg 2016-02-22 22:42 93K 
 fl366429_1.jpg 2016-02-22 22:41 93K 
 fl367415.jpg 2016-02-22 22:41 93K 
 stfyax010.jpg 2016-02-22 22:49 92K 
 fl734123-3.jpg 2016-02-22 22:42 92K 
 as104040-1.jpg 2016-02-22 22:38 92K 
 fl734115-2.jpg 2016-02-22 22:42 92K 
 ps84478o.jpg 2016-02-22 22:45 92K 
 365-13134.jpg 2016-02-22 22:38 92K 
 fl36258410-2.jpg 2016-02-22 22:41 92K 
 fl362584-2.jpg 2016-02-22 22:41 92K 
 fl366722_1.jpg 2016-02-22 22:41 92K 
 363-1102.jpg 2016-02-22 22:38 92K 
 fl366322_2.jpg 2016-02-22 22:41 92K 
 AX1176_2.jpg 2016-02-22 22:39 92K 
 fl368232.jpg 2016-02-22 22:42 92K 
 fl733371-3.jpg 2016-02-22 22:42 92K 
 AX1055_1.jpg 2016-02-22 22:39 91K 
 fl368721.jpg 2016-02-22 22:42 91K 
 stfhnx020.jpg 2016-02-22 22:49 91K 
 fl734063_1.jpg 2016-02-22 22:42 91K 
 fl285128.jpg 2016-02-22 22:40 91K 
 as105030-4.jpg 2016-02-22 22:39 91K 
 fl733647.jpg 2016-02-22 22:42 91K 
 fl367628.jpg 2016-02-22 22:41 91K 
 fl733645.jpg 2016-02-22 22:42 91K 
 fl3510231.jpg 2016-02-22 22:40 91K 
 fl366813_2.jpg 2016-02-22 22:41 91K 
 fl369435-1.jpg 2016-02-22 22:42 91K 
 as101030.jpg 2016-02-22 22:38 91K 
 fl734054_3.jpg 2016-02-22 22:42 91K 
 zu8930s.jpg 2016-02-22 22:50 91K 
 fl366115_1.jpg 2016-02-22 22:41 91K 
 fl367642.jpg 2016-02-22 22:41 91K 
 fl367413.jpg 2016-02-22 22:41 91K 
 fl3616070_1.jpg 2016-02-22 22:40 91K 
 fl285063_1.jpg 2016-02-22 22:40 91K 
 fl367235_4.jpg 2016-02-22 22:41 91K 
 fl366011_1.jpg 2016-02-22 22:41 91K 
 fl366119.jpg 2016-02-22 22:41 91K 
 fl368118.jpg 2016-02-22 22:42 91K 
 369-221-9.jpg 2016-02-22 22:38 91K 
 369-425-9.jpg 2016-02-22 22:38 91K 
 fl366321_2.jpg 2016-02-22 22:41 90K 
 fl366811_2.jpg 2016-02-22 22:41 90K 
 fl3540111.jpg 2016-02-22 22:40 90K 
 fl369434-2.jpg 2016-02-22 22:42 90K 
 t36_pr1d1lb_2.jpg 2016-02-22 22:49 90K 
 365-220.jpg 2016-02-22 22:38 90K 
 fl369612-2.jpg 2016-02-22 22:42 90K 
 fl3520355.jpg 2016-02-22 22:40 90K 
 fl733352.jpg 2016-02-22 22:42 90K 
 365-512.jpg 2016-02-22 22:38 90K 
 fl3500862-2.jpg 2016-02-22 22:40 90K 
 fl3609386.jpg 2016-02-22 22:40 90K 
 fl367918.jpg 2016-02-22 22:42 90K 
 si07991360.jpg 2016-02-22 22:47 90K 
 fl366212.jpg 2016-02-22 22:41 90K 
 fl734113-2.jpg 2016-02-22 22:42 90K 
 fl367641.jpg 2016-02-22 22:41 90K 
 fl285128_3.jpg 2016-02-22 22:40 90K 
 365-520.jpg 2016-02-22 22:38 90K 
 zu4840-1.jpg 2016-02-22 22:50 90K 
 AX1175_2.jpg 2016-02-22 22:39 90K 
 fl367912-2.jpg 2016-02-22 22:41 90K 
 fl739136_1.jpg 2016-02-22 22:42 89K 
 as101050.jpg 2016-02-22 22:38 89K 
 fl3520358.jpg 2016-02-22 22:40 89K 
 fl369938-1.jpg 2016-02-22 22:42 89K 
 as105020-4.jpg 2016-02-22 22:39 89K 
 AX1175_4.jpg 2016-02-22 22:39 89K 
 fl734122-3.jpg 2016-02-22 22:42 89K 
 fl369130-1.jpg 2016-02-22 22:42 89K 
 ps84469r.jpg 2016-02-22 22:45 89K 
 fl734114.jpg 2016-02-22 22:42 89K 
 fl366689_2.jpg 2016-02-22 22:41 89K 
 365-110.jpg 2016-02-22 22:38 89K 
 fl733347_3.jpg 2016-02-22 22:42 89K 
 fl3540115_1.jpg 2016-02-22 22:40 88K 
 fl734114-2.jpg 2016-02-22 22:42 88K 
 fl368120.jpg 2016-02-22 22:42 88K 
 fl734054_1.jpg 2016-02-22 22:42 88K 
 zu8937s_1.jpg 2016-02-22 22:50 88K 
 si20957.jpg 2016-02-22 22:47 88K 
 fl733945.jpg 2016-02-22 22:42 88K 
 fl285061.jpg 2016-02-22 22:40 88K 
 zu96104.jpg 2016-02-22 22:50 88K 
 fl285112.jpg 2016-02-22 22:40 88K 
 352-6086.jpg 2016-02-22 22:38 88K 
 as101050-1.jpg 2016-02-22 22:38 88K 
 fl3540111_1.jpg 2016-02-22 22:40 88K 
 fl369434-1.jpg 2016-02-22 22:42 88K 
 fl733946.jpg 2016-02-22 22:42 88K 
 fl366429_2.jpg 2016-02-22 22:41 87K 
 si05655990_2.jpg 2016-02-22 22:46 87K 
 zu8937s_2.jpg 2016-02-22 22:50 87K 
 fl367638_95.jpg 2016-02-22 22:41 87K 
 us101203.jpg 2016-02-22 22:49 87K 
 fl365513.jpg 2016-02-22 22:41 87K 
 kt1201514120-2.jpg 2016-02-22 22:43 87K 
 369-127-9.jpg 2016-02-22 22:38 87K 
 352-0130.jpg 2016-02-22 22:38 87K 
 fl373014-1.jpg 2016-02-22 22:42 87K 
 fl373007-1.jpg 2016-02-22 22:42 87K 
 365-212.jpg 2016-02-22 22:38 87K 
 fl734061.jpg 2016-02-22 22:42 87K 
 fl366218_2.jpg 2016-02-22 22:41 87K 
 fl285190.jpg 2016-02-22 22:40 87K 
 369-663-9.jpg 2016-02-22 22:38 87K 
 365-53934.jpg 2016-02-22 22:38 87K 
 fl368610-2.jpg 2016-02-22 22:42 87K 
 365-13034.jpg 2016-02-22 22:38 87K 
 fl3609383_2.jpg 2016-02-22 22:40 87K 
 36-16076.jpg 2016-02-22 22:38 87K 
 369-522-9.jpg 2016-02-22 22:38 86K 
 fl367912.jpg 2016-02-22 22:41 86K 
 fl3609802_1.jpg 2016-02-22 22:40 86K 
 fl36258010-2.jpg 2016-02-22 22:41 86K 
 fl362580-2.jpg 2016-02-22 22:41 86K 
 36-16072-1.jpg 2016-02-22 22:38 86K 
 fl367111.jpg 2016-02-22 22:41 86K 
 se1406110_3.jpg 2016-02-22 22:46 86K 
 365-514.jpg 2016-02-22 22:38 86K 
 fl368722.jpg 2016-02-22 22:42 86K 
 fl367235_2.jpg 2016-02-22 22:41 86K 
 fl367938_5.jpg 2016-02-22 22:42 86K 
 fl3546079.jpg 2016-02-22 22:40 86K 
 fl3520300.jpg 2016-02-22 22:40 86K 
 fl366221_2.jpg 2016-02-22 22:41 86K 
 fl368614-2.jpg 2016-02-22 22:42 86K 
 fl366213.jpg 2016-02-22 22:41 86K 
 fl283055.jpg 2016-02-22 22:40 86K 
 fl366681.jpg 2016-02-22 22:41 86K 
 fl367919.jpg 2016-02-22 22:42 86K 
 fl367521.jpg 2016-02-22 22:41 86K 
 se1406121_2.jpg 2016-02-22 22:46 86K 
 fl733791.jpg 2016-02-22 22:42 86K 
 fl368720.jpg 2016-02-22 22:42 86K 
 fl367420.jpg 2016-02-22 22:41 86K 
 fl3510306.jpg 2016-02-22 22:40 86K 
 fl366229.jpg 2016-02-22 22:41 85K 
 dd44098.jpg 2016-02-22 22:39 85K 
 fl734071.jpg 2016-02-22 22:42 85K 
 fl734111.jpg 2016-02-22 22:42 85K 
 fl367528.jpg 2016-02-22 22:41 85K 
 fl734055_1.jpg 2016-02-22 22:42 85K 
 fl3546070_1.jpg 2016-02-22 22:40 85K 
 364-234.jpg 2016-02-22 22:38 85K 
 si02103990_1.jpg 2016-02-22 22:46 85K 
 si02103990.jpg 2016-02-22 22:46 85K 
 351-0168.jpg 2016-02-22 22:38 85K 
 si07885240.jpg 2016-02-22 22:47 85K 
 stfhsx020.jpg 2016-02-22 22:49 85K 
 fl368417.jpg 2016-02-22 22:42 85K 
 36-16073-1.jpg 2016-02-22 22:38 85K 
 fl367227.jpg 2016-02-22 22:41 85K 
 fl733642.jpg 2016-02-22 22:42 85K 
 ps89827s-1.jpg 2016-02-22 22:45 85K 
 363-55509.jpg 2016-02-22 22:38 85K 
 fl734052_3.jpg 2016-02-22 22:42 85K 
 352-0246.jpg 2016-02-22 22:38 84K 
 fl734053_3.jpg 2016-02-22 22:42 84K 
 se1406126_2.jpg 2016-02-22 22:46 84K 
 fl366410.jpg 2016-02-22 22:41 84K 
 fl733366.jpg 2016-02-22 22:42 84K 
 fl367111_1.jpg 2016-02-22 22:41 84K 
 fl353204.jpg 2016-02-22 22:40 84K 
 AX1117_1.jpg 2016-02-22 22:39 84K 
 re216u520b.jpg 2016-02-22 22:46 84K 
 zu96302.jpg 2016-02-22 22:50 84K 
 fl368431.jpg 2016-02-22 22:42 84K 
 AX1081_1.jpg 2016-02-22 22:39 84K 
 AX1162_4.jpg 2016-02-22 22:39 84K 
 xt041770001xt.jpg 2016-02-22 22:49 84K 
 369-120-9.jpg 2016-02-22 22:38 84K 
 xt40505006.jpg 2016-02-22 22:49 84K 
 xt40505005.jpg 2016-02-22 22:49 84K 
 fl366112.jpg 2016-02-22 22:41 84K 
 AX1072_3.jpg 2016-02-22 22:39 84K 
 se1406123_2.jpg 2016-02-22 22:46 84K 
 fl369734-1.jpg 2016-02-22 22:42 83K 
 354-0080.jpg 2016-02-22 22:38 83K 
 fl367522.jpg 2016-02-22 22:41 83K 
 zu8935-2.jpg 2016-02-22 22:50 83K 
 fl367938_4.jpg 2016-02-22 22:42 83K 
 fl367419.jpg 2016-02-22 22:41 83K 
 fl366722_2.jpg 2016-02-22 22:41 83K 
 36-16011.jpg 2016-02-22 22:38 83K 
 fl369530-1.jpg 2016-02-22 22:42 83K 
 fl734756.jpg 2016-02-22 22:42 83K 
 fl368010-2.jpg 2016-02-22 22:42 83K 
 zu89042-2.jpg 2016-02-22 22:50 83K 
 zu89041-2.jpg 2016-02-22 22:50 83K 
 365-13234.jpg 2016-02-22 22:38 83K 
 fl285128_1.jpg 2016-02-22 22:40 83K 
 fl733371-2.jpg 2016-02-22 22:42 83K 
 fl368128.jpg 2016-02-22 22:42 83K 
 sc00434001.jpg 2016-02-22 22:46 83K 
 fl369938-2.jpg 2016-02-22 22:42 83K 
 fl368112.jpg 2016-02-22 22:42 83K 
 fl367638_3.jpg 2016-02-22 22:41 83K 
 fl373005-1.jpg 2016-02-22 22:42 83K 
 fl366225.jpg 2016-02-22 22:41 83K 
 fl369638-2.jpg 2016-02-22 22:42 83K 
 si05652990_2.jpg 2016-02-22 22:46 82K 
 si05651990_2.jpg 2016-02-22 22:46 82K 
 fl734120-3.jpg 2016-02-22 22:42 82K 
 fl733362.jpg 2016-02-22 22:42 82K 
 re224u520o.jpg 2016-02-22 22:46 82K 
 fl733363.jpg 2016-02-22 22:42 82K 
 fl368415-2.jpg 2016-02-22 22:42 82K 
 fl368811.jpg 2016-02-22 22:42 82K 
 fl366211_2.jpg 2016-02-22 22:41 82K 
 fl3510266.jpg 2016-02-22 22:40 82K 
 fl733943.jpg 2016-02-22 22:42 82K 
 kin-mesh-rs-blue-1.jpg 2016-02-22 22:43 82K 
 ax3026_1.jpg 2016-02-22 22:39 82K 
 fl373012-1.jpg 2016-02-22 22:42 82K 
 fl373002-1.jpg 2016-02-22 22:42 82K 
 fl3609803_1.jpg 2016-02-22 22:40 82K 
 stsun260r.jpg 2016-02-22 22:49 82K 
 fl368418-2.jpg 2016-02-22 22:42 82K 
 zu8930w.jpg 2016-02-22 22:50 82K 
 fl3520338_1.jpg 2016-02-22 22:40 82K 
 sc00425002.jpg 2016-02-22 22:46 82K 
 sm2024_2_intake_grap..>2016-02-22 22:48 82K 
 sm2024_2.jpg 2016-02-22 22:48 82K 
 po20071.jpg 2016-02-22 22:44 82K 
 fl733942.jpg 2016-02-22 22:42 82K 
 AX1167_2.jpg 2016-02-22 22:39 82K 
 fl36258010-3.jpg 2016-02-22 22:41 82K 
 fl362580-3.jpg 2016-02-22 22:41 82K 
 fl739189_2.jpg 2016-02-22 22:43 82K 
 fl366110_2.jpg 2016-02-22 22:41 82K 
 fl733375-2.jpg 2016-02-22 22:42 82K 
 351-0148.jpg 2016-02-22 22:38 82K 
 AX3033_1.jpg 2016-02-22 22:39 82K 
 fl368118-2.jpg 2016-02-22 22:42 82K 
 369-521-9.jpg 2016-02-22 22:38 82K 
 fl368010.jpg 2016-02-22 22:42 82K 
 as101040-3.jpg 2016-02-22 22:38 81K 
 fl739184_2.jpg 2016-02-22 22:43 81K 
 365-518.jpg 2016-02-22 22:38 81K 
 fl285070-2.jpg 2016-02-22 22:40 81K 
 fl3520691-1.jpg 2016-02-22 22:40 81K 
 sc00406001.jpg 2016-02-22 22:46 81K 
 fl734115-3.jpg 2016-02-22 22:42 81K 
 Lite-blue-1.jpg 2016-02-22 22:44 81K 
 fl367938_2.jpg 2016-02-22 22:42 81K 
 sc00426003.jpg 2016-02-22 22:46 81K 
 363-55109-9.jpg 2016-02-22 22:38 81K 
 si94112485.jpg 2016-02-22 22:47 81K 
 se1406121.jpg 2016-02-22 22:46 81K 
 sc00426002.jpg 2016-02-22 22:46 81K 
 as101050-2.jpg 2016-02-22 22:38 81K 
 351-0169.jpg 2016-02-22 22:38 81K 
 369-527-9.jpg 2016-02-22 22:38 81K 
 fl368230.jpg 2016-02-22 22:42 81K 
 fl373011-1.jpg 2016-02-22 22:42 81K 
 fl373001-1.jpg 2016-02-22 22:42 81K 
 fl734051_1.jpg 2016-02-22 22:42 81K 
 fl367922.jpg 2016-02-22 22:42 81K 
 8542531.jpg 2016-02-22 22:38 81K 
 8542529.jpg 2016-02-22 22:38 81K 
 8542528.jpg 2016-02-22 22:38 81K 
 8542527.jpg 2016-02-22 22:38 81K 
 fl738180_2.jpg 2016-02-22 22:42 81K 
 fl3520338.jpg 2016-02-22 22:40 81K 
 fl366122.jpg 2016-02-22 22:41 81K 
 ps84579s.jpg 2016-02-22 22:45 81K 
 ps84578s.jpg 2016-02-22 22:45 81K 
 ps84574s.jpg 2016-02-22 22:45 81K 
 ps84560s.jpg 2016-02-22 22:45 81K 
 ps84559s.jpg 2016-02-22 22:45 81K 
 ps84553s.jpg 2016-02-22 22:45 81K 
 fl733641.jpg 2016-02-22 22:42 81K 
 fl367910.jpg 2016-02-22 22:41 81K 
 zu8936_2.jpg 2016-02-22 22:50 81K 
 365-13834.jpg 2016-02-22 22:38 81K 
 fl734111-2.jpg 2016-02-22 22:42 81K 
 fl366214_1.jpg 2016-02-22 22:41 81K 
 fl368520.jpg 2016-02-22 22:42 81K 
 hosmi30_3.jpg 2016-02-22 22:43 80K 
 dd6709998.jpg 2016-02-22 22:39 80K 
 fl3609802_2.jpg 2016-02-22 22:40 80K 
 fl367529.jpg 2016-02-22 22:41 80K 
 st7009mg2930b.jpg 2016-02-22 22:49 80K 
 363-55309-9.jpg 2016-02-22 22:38 80K 
 se1406121_3.jpg 2016-02-22 22:46 80K 
 zu8935-1.jpg 2016-02-22 22:50 80K 
 fl366738_5.jpg 2016-02-22 22:41 80K 
 AX1185_1.jpg 2016-02-22 22:39 80K 
 AX1163_1.jpg 2016-02-22 22:39 80K 
 fl366628_2.jpg 2016-02-22 22:41 80K 
 ps84475ge.jpg 2016-02-22 22:45 80K 
 fl734120-2.jpg 2016-02-22 22:42 80K 
 se1406126_3.jpg 2016-02-22 22:46 80K 
 fl734062_1.jpg 2016-02-22 22:42 80K 
 fl35701602.jpg 2016-02-22 22:40 80K 
 zu177759sl40-1.jpg 2016-02-22 22:50 80K 
 zu177759sl30-1.jpg 2016-02-22 22:50 80K 
 zu177759sl20-1.jpg 2016-02-22 22:50 80K 
 zu177759sl11-1.jpg 2016-02-22 22:50 80K 
 zu177759sl10-1.jpg 2016-02-22 22:50 80K 
 zu177759sl00-1.jpg 2016-02-22 22:50 80K 
 fl733793.jpg 2016-02-22 22:42 80K 
 AX1117_4.jpg 2016-02-22 22:39 80K 
 fl733305.jpg 2016-02-22 22:42 80K 
 fl366682_1.jpg 2016-02-22 22:41 80K 
 mb101010-3.jpg 2016-02-22 22:44 80K 
 fl739184_3.jpg 2016-02-22 22:43 80K 
 fl4772041.jpg 2016-02-22 22:42 80K 
 zu8937s_3.jpg 2016-02-22 22:50 79K 
 as101040.jpg 2016-02-22 22:38 79K 
 ps84477o.jpg 2016-02-22 22:45 79K 
 zu8939.jpg 2016-02-22 22:50 79K 
 AX3038_1.jpg 2016-02-22 22:39 79K 
 363-120.jpg 2016-02-22 22:38 79K 
 369-126-9.jpg 2016-02-22 22:38 79K 
 fl366338.jpg 2016-02-22 22:41 79K 
 fl734055_3.jpg 2016-02-22 22:42 79K 
 AX1166_3.jpg 2016-02-22 22:39 79K 
 fl367225.jpg 2016-02-22 22:41 79K 
 352-0132.jpg 2016-02-22 22:38 79K 
 ussp_3.jpg 2016-02-22 22:49 79K 
 fl367928.jpg 2016-02-22 22:42 79K 
 fl36258410-4.jpg 2016-02-22 22:41 79K 
 fl362584-4.jpg 2016-02-22 22:41 79K 
 AX1130_1.jpg 2016-02-22 22:39 79K 
 AX1113_3.jpg 2016-02-22 22:39 79K 
 350-0211.jpg 2016-02-22 22:38 79K 
 369-928-9.jpg 2016-02-22 22:38 79K 
 stfapx020.jpg 2016-02-22 22:49 79K 
 fl367921.jpg 2016-02-22 22:42 79K 
 8538330.jpg 2016-02-22 22:38 79K 
 85388330.jpg 2016-02-22 22:38 79K 
 8538333.jpg 2016-02-22 22:38 79K 
 8538332.jpg 2016-02-22 22:38 79K 
 8538329.jpg 2016-02-22 22:38 79K 
 8538328.jpg 2016-02-22 22:38 79K 
 fl366420.jpg 2016-02-22 22:41 79K 
 AX1166_4.jpg 2016-02-22 22:39 79K 
 360-9832.jpg 2016-02-22 22:38 79K 
 fl368522.jpg 2016-02-22 22:42 79K 
 si05652990_3.jpg 2016-02-22 22:46 79K 
 si05651990_3.jpg 2016-02-22 22:46 79K 
 fl368411-2.jpg 2016-02-22 22:42 79K 
 AX1048_1.jpg 2016-02-22 22:39 79K 
 fl366214_2.jpg 2016-02-22 22:41 79K 
 AX1117_2.jpg 2016-02-22 22:39 79K 
 fl366418_2.jpg 2016-02-22 22:41 79K 
 AX3026_2.jpg 2016-02-22 22:39 79K 
 fl733350_1.jpg 2016-02-22 22:42 78K 
 ps89842.jpg 2016-02-22 22:45 78K 
 ps89837s-1.jpg 2016-02-22 22:45 78K 
 ps84597s-1.jpg 2016-02-22 22:45 78K 
 ps84592s-1.jpg 2016-02-22 22:45 78K 
 ps89856s-1.jpg 2016-02-22 22:45 78K 
 ps89842s-1.jpg 2016-02-22 22:45 78K 
 ps89840s-1.jpg 2016-02-22 22:45 78K 
 ps84596s-1.jpg 2016-02-22 22:45 78K 
 ps84595s-1.jpg 2016-02-22 22:45 78K 
 ps84594s-1.jpg 2016-02-22 22:45 78K 
 ps84593s-1.jpg 2016-02-22 22:45 78K 
 ps84591s-1.jpg 2016-02-22 22:45 78K 
 ps84590s-1.jpg 2016-02-22 22:45 78K 
 ps84589s-1.jpg 2016-02-22 22:45 78K 
 ps84588s-1.jpg 2016-02-22 22:45 78K 
 ps84587s-1.jpg 2016-02-22 22:45 78K 
 ps84586s-1.jpg 2016-02-22 22:45 78K 
 ps84585s-1.jpg 2016-02-22 22:45 78K 
 AX3038_2.jpg 2016-02-22 22:39 78K 
 AX1117_3.jpg 2016-02-22 22:39 78K 
 AX1081_3.jpg 2016-02-22 22:39 78K 
 AX1163_4.jpg 2016-02-22 22:39 78K 
 se1406123_3.jpg 2016-02-22 22:46 78K 
 fl734063_3.jpg 2016-02-22 22:42 78K 
 stfhnx030.jpg 2016-02-22 22:49 78K 
 369-424-9.jpg 2016-02-22 22:38 78K 
 351-0161.jpg 2016-02-22 22:38 78K 
 as105010.jpg 2016-02-22 22:38 78K 
 zu89042-1.jpg 2016-02-22 22:50 78K 
 zu89041-1.jpg 2016-02-22 22:50 78K 
 Evo-Spike-Wht-F.png 2016-02-22 23:06 78K 
 351-0149.jpg 2016-02-22 22:38 78K 
 sm70102.jpg 2016-02-22 22:49 78K 
 fl739136_2.jpg 2016-02-22 22:42 78K 
 fl3510331.jpg 2016-02-22 22:40 78K 
 fl734062_3.jpg 2016-02-22 22:42 78K 
 AX1139_1.jpg 2016-02-22 22:39 78K 
 si94125021.jpg 2016-02-22 22:47 78K 
 si94115021.jpg 2016-02-22 22:47 78K 
 Kin-Inv-bk-2.jpg 2016-02-22 22:43 78K 
 fl366628_1.jpg 2016-02-22 22:41 78K 
 fl3500862-1.jpg 2016-02-22 22:40 78K 
 fl369931-1.jpg 2016-02-22 22:42 78K 
 fl357025.jpg 2016-02-22 22:40 78K 
 si92101286_2.jpg 2016-02-22 22:47 78K 
 365-210.jpg 2016-02-22 22:38 78K 
 stfsux020.jpg 2016-02-22 22:49 78K 
 fl373003-1.jpg 2016-02-22 22:42 78K 
 fl285068.jpg 2016-02-22 22:40 78K 
 fl3520690-3.jpg 2016-02-22 22:40 77K 
 fl3546079_1.jpg 2016-02-22 22:40 77K 
 si92121286_2.jpg 2016-02-22 22:47 77K 
 fl368724.jpg 2016-02-22 22:42 77K 
 365-540.jpg 2016-02-22 22:38 77K 
 zu8910_4.jpg 2016-02-22 22:50 77K 
 AX1163_3.jpg 2016-02-22 22:39 77K 
 relv153-2.jpg 2016-02-22 22:46 77K 
 relv147-2.jpg 2016-02-22 22:46 77K 
 relv122-2.jpg 2016-02-22 22:46 77K 
 relv114-2.jpg 2016-02-22 22:46 77K 
 relv113-2.jpg 2016-02-22 22:46 77K 
 relv112-2.jpg 2016-02-22 22:46 77K 
 zu8928_1.jpg 2016-02-22 22:50 77K 
 po20072.jpg 2016-02-22 22:44 77K 
 fl734063_4.jpg 2016-02-22 22:42 77K 
 fl366818_2.jpg 2016-02-22 22:41 77K 
 fl368018.jpg 2016-02-22 22:42 77K 
 mw4.jpg 2016-02-22 22:44 77K 
 fl368728.jpg 2016-02-22 22:42 77K 
 fl3500291.jpg 2016-02-22 22:40 77K 
 fl350291.jpg 2016-02-22 22:40 77K 
 si92102450_2.jpg 2016-02-22 22:47 77K 
 fl739150.jpg 2016-02-22 22:43 77K 
 fl3546070.jpg 2016-02-22 22:40 77K 
 lite-hydrogen.jpg 2016-02-22 22:44 77K 
 fl4772045.jpg 2016-02-22 22:42 77K 
 Evo-Spike-Hvz-F_0.png 2016-02-22 23:06 77K 
 t36_pr1d1lb_1.jpg 2016-02-22 22:49 77K 
 sr1420.jpg 2016-02-22 22:49 77K 
 fl368730.jpg 2016-02-22 22:42 77K 
 8542535.jpg 2016-02-22 22:38 76K 
 8542532.jpg 2016-02-22 22:38 76K 
 zu8938s_1.jpg 2016-02-22 22:50 76K 
 sc00427002.jpg 2016-02-22 22:46 76K 
 sm2053_2_intake_swea..>2016-02-22 22:48 76K 
 sm2053_2.jpg 2016-02-22 22:48 76K 
 sm1982_2_fuel_v2_smi..>2016-02-22 22:48 76K 
 sm1982_2.jpg 2016-02-22 22:48 76K 
 fl366010.jpg 2016-02-22 22:41 76K 
 AX1055_3.jpg 2016-02-22 22:39 76K 
 fl367410.jpg 2016-02-22 22:41 76K 
 AX1175_1.jpg 2016-02-22 22:39 76K 
 fl367221_8.jpg 2016-02-22 22:41 76K 
 ps8007_1.jpg 2016-02-22 22:45 76K 
 fl366210.jpg 2016-02-22 22:41 76K 
 fl366738_2.jpg 2016-02-22 22:41 76K 
 si92121107_2.jpg 2016-02-22 22:47 76K 
 364-688.jpg 2016-02-22 22:38 76K 
 fl368420.jpg 2016-02-22 22:42 76K 
 36-16012.jpg 2016-02-22 22:38 76K 
 fl367121.jpg 2016-02-22 22:41 76K 
 sm70002.jpg 2016-02-22 22:49 76K 
 fl368418.jpg 2016-02-22 22:42 76K 
 xt967000.jpg 2016-02-22 22:49 76K 
 fl3510305.jpg 2016-02-22 22:40 76K 
 28-5003-9.jpg 2016-02-22 22:38 76K 
 fl3510230.jpg 2016-02-22 22:40 76K 
 fl3520304.jpg 2016-02-22 22:40 75K 
 365-510.jpg 2016-02-22 22:38 75K 
 351-0151.jpg 2016-02-22 22:38 75K 
 ar1013.jpg 2016-02-22 22:38 75K 
 365-23934.jpg 2016-02-22 22:38 75K 
 zu8932-1.jpg 2016-02-22 22:50 75K 
 ussp_2.jpg 2016-02-22 22:49 75K 
 fl353086_1.jpg 2016-02-22 22:40 75K 
 fl366115_2.jpg 2016-02-22 22:41 75K 
 fl373015-1.jpg 2016-02-22 22:42 75K 
 fl373008-1.jpg 2016-02-22 22:42 75K 
 zu8937w_4.jpg 2016-02-22 22:50 75K 
 zu8937w_5.jpg 2016-02-22 22:50 75K 
 AX1063_1.jpg 2016-02-22 22:39 75K 
 si92101107_2.jpg 2016-02-22 22:47 75K 
 sm70009.jpg 2016-02-22 22:49 75K 
 AX1113_2.jpg 2016-02-22 22:39 75K 
 tu5516021sw.jpg 2016-02-22 22:49 75K 
 sm70211.jpg 2016-02-22 22:49 75K 
 xt50100020.jpg 2016-02-22 22:49 75K 
 xt50100019.jpg 2016-02-22 22:49 75K 
 xt50100018.jpg 2016-02-22 22:49 75K 
 xt50100017.jpg 2016-02-22 22:49 75K 
 xt50100016.jpg 2016-02-22 22:49 75K 
 xt50100008.jpg 2016-02-22 22:49 75K 
 AX1162_3.jpg 2016-02-22 22:39 75K 
 fl734116-3.jpg 2016-02-22 22:42 75K 
 AX1185_2.jpg 2016-02-22 22:39 75K 
 fl285192.jpg 2016-02-22 22:40 75K 
 fl367231.jpg 2016-02-22 22:41 75K 
 356-0164.jpg 2016-02-22 22:38 75K 
 Kinetic-Glitch-Org-F..>2016-02-22 23:07 75K 
 hmabm1001.jpg 2016-02-22 22:43 75K 
 fl3609802.jpg 2016-02-22 22:40 75K 
 36-16010.jpg 2016-02-22 22:38 75K 
 fl353046.jpg 2016-02-22 22:40 75K 
 369-921-9.jpg 2016-02-22 22:38 75K 
 si94101999_2.jpg 2016-02-22 22:47 75K 
 as101030-2.jpg 2016-02-22 22:38 75K 
 se1406126_1.jpg 2016-02-22 22:46 75K 
 se1406126.jpg 2016-02-22 22:46 75K 
 fl3520291.jpg 2016-02-22 22:40 75K 
 si05656990_2.jpg 2016-02-22 22:46 75K 
 Kinetic-Glitch-Green..>2016-02-22 23:07 75K 
 fl369732-2.jpg 2016-02-22 22:42 75K 
 fl366223.jpg 2016-02-22 22:41 75K 
 kin-mesh-rs-red-2.jpg 2016-02-22 22:43 75K 
 zu8937w_1.jpg 2016-02-22 22:50 74K 
 zt6100.jpg 2016-02-22 22:50 74K 
 fl368119.jpg 2016-02-22 22:42 74K 
 sc00423001.jpg 2016-02-22 22:46 74K 
 fl368524.jpg 2016-02-22 22:42 74K 
 8542594.jpg 2016-02-22 22:38 74K 
 si94121999_2.jpg 2016-02-22 22:47 74K 
 mw5.jpg 2016-02-22 22:44 74K 
 AX1081_2.jpg 2016-02-22 22:39 74K 
 fl366120.jpg 2016-02-22 22:41 74K 
 AX1130_3.jpg 2016-02-22 22:39 74K 
 hms2rgam4.jpg 2016-02-22 22:43 74K 
 hms2rgam2.jpg 2016-02-22 22:43 74K 
 hms2rgam1.jpg 2016-02-22 22:43 74K 
 si85825435.jpg 2016-02-22 22:47 74K 
 fl368432.jpg 2016-02-22 22:42 74K 
 st7009mg25r.jpg 2016-02-22 22:49 74K 
 fl363567.jpg 2016-02-22 22:41 74K 
 fl733341.jpg 2016-02-22 22:42 74K 
 Kinetic-Glitch-Blk-F..>2016-02-22 23:07 74K 
 stfyax040.jpg 2016-02-22 22:49 74K 
 hmt1xba48.jpg 2016-02-22 22:43 74K 
 hmt1xba47.jpg 2016-02-22 22:43 74K 
 hmt1xba43.jpg 2016-02-22 22:43 74K 
 hmt1xba42.jpg 2016-02-22 22:43 74K 
 hmt1xba41.jpg 2016-02-22 22:43 74K 
 ts55150520002.jpg 2016-02-22 22:49 74K 
 fl733941.jpg 2016-02-22 22:42 74K 
 stfyax020.jpg 2016-02-22 22:49 74K 
 fl368417-2.jpg 2016-02-22 22:42 74K 
 Lite-Hvz-F.png 2016-02-22 23:07 74K 
 fl366439_1.jpg 2016-02-22 22:41 74K 
 dd47099.jpg 2016-02-22 22:39 74K 
 ps84411r.jpg 2016-02-22 22:45 74K 
 sc00430001.jpg 2016-02-22 22:46 74K 
 zu8930s_1.jpg 2016-02-22 22:50 74K 
 se1406123_1.jpg 2016-02-22 22:46 74K 
 se1406123.jpg 2016-02-22 22:46 74K 
 sc00439001.jpg 2016-02-22 22:46 74K 
 ab1evo-factory.jpg 2016-02-22 22:38 74K 
 hmvunwam5.jpg 2016-02-22 22:43 74K 
 fl3510225.jpg 2016-02-22 22:40 74K 
 AX3060-2.jpg 2016-02-22 22:39 74K 
 sc00410002.jpg 2016-02-22 22:46 73K 
 fl366818.jpg 2016-02-22 22:41 73K 
 kinetic-inversion.jpg 2016-02-22 22:43 73K 
 Evo-Clean-Bk-F_0.png 2016-02-22 23:06 73K 
 AX1072_1.jpg 2016-02-22 22:39 73K 
 AX1185_3.jpg 2016-02-22 22:39 73K 
 fl3520692-1.jpg 2016-02-22 22:40 73K 
 zu8938w_1.jpg 2016-02-22 22:50 73K 
 se1406128.jpg 2016-02-22 22:46 73K 
 si93125021.jpg 2016-02-22 22:47 73K 
 fl369738-2.jpg 2016-02-22 22:42 73K 
 sc00419002.jpg 2016-02-22 22:46 73K 
 se1406100.jpg 2016-02-22 22:46 73K 
 fl733347_4.jpg 2016-02-22 22:42 73K 
 fl368412-2.jpg 2016-02-22 22:42 73K 
 352-0236.jpg 2016-02-22 22:38 73K 
 3520172_1.jpg 2016-02-22 22:38 73K 
 fl734061_1.jpg 2016-02-22 22:42 73K 
 fl369920-1.jpg 2016-02-22 22:42 73K 
 fl285110.jpg 2016-02-22 22:40 73K 
 fl3510301.jpg 2016-02-22 22:40 73K 
 fl368731.jpg 2016-02-22 22:42 73K 
 fl366220.jpg 2016-02-22 22:41 73K 
 AX1143_1.jpg 2016-02-22 22:39 73K 
 sm70103.jpg 2016-02-22 22:49 73K 
 us201230.jpg 2016-02-22 22:49 73K 
 AX1058_1.jpg 2016-02-22 22:39 73K 
 fl366131.jpg 2016-02-22 22:41 73K 
 fl367925.jpg 2016-02-22 22:42 73K 
 si05656990_3.jpg 2016-02-22 22:46 73K 
 351-0150.jpg 2016-02-22 22:38 73K 
 ka035_2.jpg 2016-02-22 22:43 73K 
 zu8910_1.jpg 2016-02-22 22:50 73K 
 AX1162_5.jpg 2016-02-22 22:39 72K 
 sm8010.jpg 2016-02-22 22:49 72K 
 as105020-1.jpg 2016-02-22 22:38 72K 
 us101201.jpg 2016-02-22 22:49 72K 
 us101200.jpg 2016-02-22 22:49 72K 
 sm70008.jpg 2016-02-22 22:49 72K 
 fl367528_9.jpg 2016-02-22 22:41 72K 
 ar1011_1.jpg 2016-02-22 22:38 72K 
 sc00409005.jpg 2016-02-22 22:46 72K 
 sm70003.jpg 2016-02-22 22:49 72K 
 zu8930w_1.jpg 2016-02-22 22:50 72K 
 pf2538.jpg 2016-02-22 22:44 72K 
 S36P.jpg 2016-02-22 22:46 72K 
 sc00409003.jpg 2016-02-22 22:46 72K 
 zu8903_1.jpg 2016-02-22 22:50 72K 
 zu8937s_4.jpg 2016-02-22 22:50 72K 
 AX1113_1.jpg 2016-02-22 22:39 72K 
 fl366227.jpg 2016-02-22 22:41 72K 
 as106050-1.jpg 2016-02-22 22:39 72K 
 fl367112_1.jpg 2016-02-22 22:41 72K 
 fl367425_9.jpg 2016-02-22 22:41 72K 
 Kinetic-Glitch-Red-F..>2016-02-22 23:07 72K 
 fl734113-3.jpg 2016-02-22 22:42 72K 
 fl367437.jpg 2016-02-22 22:41 72K 
 365-23334.jpg 2016-02-22 22:38 72K 
 fl3500861-2.jpg 2016-02-22 22:40 72K 
 sc00409002.jpg 2016-02-22 22:46 72K 
 si02105990_1.jpg 2016-02-22 22:46 72K 
 si02101990_1.jpg 2016-02-22 22:46 72K 
 zu1298b.jpg 2016-02-22 22:50 72K 
 369-728-92.jpg 2016-02-22 22:38 72K 
 fl367020.jpg 2016-02-22 22:41 72K 
 fl3520292.jpg 2016-02-22 22:40 72K 
 fl3520290.jpg 2016-02-22 22:40 72K 
 AX1042_3.jpg 2016-02-22 22:39 72K 
 ar1012.jpg 2016-02-22 22:38 72K 
 sc00433001.jpg 2016-02-22 22:46 72K 
 se1406101.jpg 2016-02-22 22:46 72K 
 AX1172_4.jpg 2016-02-22 22:39 72K 
 fl733350.jpg 2016-02-22 22:42 72K 
 zt03180.jpg 2016-02-22 22:49 71K 
 AX6051_1.jpg 2016-02-22 22:39 71K 
 hm015.jpg 2016-02-22 22:43 71K 
 ps84598r.jpg 2016-02-22 22:45 71K 
 ps84574r.jpg 2016-02-22 22:45 71K 
 ps84564r.jpg 2016-02-22 22:45 71K 
 ps84563r.jpg 2016-02-22 22:45 71K 
 ps84558r.jpg 2016-02-22 22:45 71K 
 ps84557r.jpg 2016-02-22 22:45 71K 
 si92102001_2.jpg 2016-02-22 22:47 71K 
 fl734063_5.jpg 2016-02-22 22:42 71K 
 re112ug520.jpg 2016-02-22 22:45 71K 
 mb101030-4.jpg 2016-02-22 22:44 71K 
 mb101010-4.jpg 2016-02-22 22:44 71K 
 fl353086_2.jpg 2016-02-22 22:40 71K 
 ar1014.jpg 2016-02-22 22:38 71K 
 sc00438001.jpg 2016-02-22 22:46 71K 
 AX1166_1.jpg 2016-02-22 22:39 71K 
 us201221.jpg 2016-02-22 22:49 71K 
 363-10134.jpg 2016-02-22 22:38 71K 
 fl366738.jpg 2016-02-22 22:41 71K 
 fl373029-1.jpg 2016-02-22 22:42 71K 
 fl373024-1.jpg 2016-02-22 22:42 71K 
 si05655990_3.jpg 2016-02-22 22:46 71K 
 dd44010.jpg 2016-02-22 22:39 71K 
 si20004990_2.jpg 2016-02-22 22:47 71K 
 fl366620_1.jpg 2016-02-22 22:41 71K 
 fl366138_1.jpg 2016-02-22 22:41 71K 
 fl4772040.jpg 2016-02-22 22:42 71K 
 f16-black-f.png 2016-02-22 23:06 71K 
 si94102185_2.jpg 2016-02-22 22:47 71K 
 AX1155_2.jpg 2016-02-22 22:39 71K 
 AX1172_1.jpg 2016-02-22 22:39 71K 
 8542520.jpg 2016-02-22 22:38 71K 
 8542517.jpg 2016-02-22 22:38 71K 
 Kinetic-Mesh-Red-F.png 2016-02-22 23:07 71K 
 365-23534.jpg 2016-02-22 22:38 71K 
 sm70106.jpg 2016-02-22 22:49 71K 
 fl367528_91.jpg 2016-02-22 22:41 71K 
 fl367235.jpg 2016-02-22 22:41 71K 
 fl3510235.jpg 2016-02-22 22:40 71K 
 fl363566_1.jpg 2016-02-22 22:41 71K 
 si94102286_2.jpg 2016-02-22 22:47 71K 
 f16-blue-f.png 2016-02-22 23:07 71K 
 zu8910.jpg 2016-02-22 22:50 71K 
 fl366139_1.jpg 2016-02-22 22:41 71K 
 F-16-Ltd-F_0.png 2016-02-22 23:06 71K 
 AX1163_2.jpg 2016-02-22 22:39 71K 
 AX3061_1.jpg 2016-02-22 22:39 71K 
 sc00427001.jpg 2016-02-22 22:46 71K 
 365-53134.jpg 2016-02-22 22:38 70K 
 fl3570269-2.jpg 2016-02-22 22:40 70K 
 as104050.jpg 2016-02-22 22:38 70K 
 fl366222_1.jpg 2016-02-22 22:41 70K 
 Kinetic-WomenRace-Te..>2016-02-22 23:07 70K 
 fl366681_1.jpg 2016-02-22 22:41 70K 
 Lite-Blue-F.png 2016-02-22 23:07 70K 
 Kinetic-Div-Blk-F_0.png2016-02-22 23:07 70K 
 fl368138.jpg 2016-02-22 22:42 70K 
 fl366420_1.jpg 2016-02-22 22:41 70K 
 sm70104.jpg 2016-02-22 22:49 70K 
 AX1144_1.jpg 2016-02-22 22:39 70K 
 fl353086.jpg 2016-02-22 22:40 70K 
 fl733624.jpg 2016-02-22 22:42 70K 
 fl365538_1.jpg 2016-02-22 22:41 70K 
 fl368411.jpg 2016-02-22 22:42 70K 
 sc00422001.jpg 2016-02-22 22:46 70K 
 fl366682_2.jpg 2016-02-22 22:41 70K 
 si92101185_2.jpg 2016-02-22 22:47 70K 
 fl733640.jpg 2016-02-22 22:42 70K 
 zu8910_2.jpg 2016-02-22 22:50 70K 
 imprezagdb.jpg 2016-02-22 22:43 70K 
 Kinetic-Div-Ora-F_0.png2016-02-22 23:07 70K 
 352-0160.jpg 2016-02-22 22:38 70K 
 ps8910.jpg 2016-02-22 22:45 70K 
 as104050-1.jpg 2016-02-22 22:38 70K 
 sm70101.jpg 2016-02-22 22:49 70K 
 AX1162_1.jpg 2016-02-22 22:39 70K 
 AX1166_2.jpg 2016-02-22 22:39 70K 
 sc00429001.jpg 2016-02-22 22:46 70K 
 ps84584b.jpg 2016-02-22 22:45 70K 
 stsun260g.jpg 2016-02-22 22:49 70K 
 110130000401.jpg 2016-02-22 22:36 70K 
 110130000201.jpg 2016-02-22 22:36 70K 
 Kinetic-Mesh-Blue-F.png2016-02-22 23:07 70K 
 fl285069.jpg 2016-02-22 22:40 70K 
 fl283061.jpg 2016-02-22 22:40 70K 
 sm62099.jpg 2016-02-22 22:48 70K 
 AX1167_1.jpg 2016-02-22 22:39 70K 
 sc00432001.jpg 2016-02-22 22:46 70K 
 fl366410_1.jpg 2016-02-22 22:41 70K 
 369-925-9.jpg 2016-02-22 22:38 70K 
 fl3510232.jpg 2016-02-22 22:40 69K 
 fl3580080.jpg 2016-02-22 22:40 69K 
 zu8902_1.jpg 2016-02-22 22:50 69K 
 369-922-9.jpg 2016-02-22 22:38 69K 
 re1382_1.jpg 2016-02-22 22:46 69K 
 us201240.jpg 2016-02-22 22:49 69K 
 as103050.jpg 2016-02-22 22:38 69K 
 ts55140520002.jpg 2016-02-22 22:49 69K 
 ts55130000190.jpg 2016-02-22 22:49 69K 
 zu8937w_2.jpg 2016-02-22 22:50 69K 
 fl4772044.jpg 2016-02-22 22:42 69K 
 hmabm1002.jpg 2016-02-22 22:43 69K 
 sf08006001040.jpg 2016-02-22 22:46 69K 
 zu9527_2.jpg 2016-02-22 22:50 69K 
 fl367231_1.jpg 2016-02-22 22:41 69K 
 zu8910_3.jpg 2016-02-22 22:50 69K 
 357000.jpg 2016-02-22 22:38 69K 
 sm62092.jpg 2016-02-22 22:48 69K 
 ho038_2.jpg 2016-02-22 22:43 69K 
 fl3500293.jpg 2016-02-22 22:40 69K 
 fl350293.jpg 2016-02-22 22:40 69K 
 fl366811_1.jpg 2016-02-22 22:41 69K 
 fl368810.jpg 2016-02-22 22:42 69K 
 fl733361.jpg 2016-02-22 22:42 69K 
 zu8929_1.jpg 2016-02-22 22:50 69K 
 351-0171.jpg 2016-02-22 22:38 69K 
 zu8925.jpg 2016-02-22 22:50 69K 
 dd39099.jpg 2016-02-22 22:39 69K 
 354-0060.jpg 2016-02-22 22:38 69K 
 si93102001_2.jpg 2016-02-22 22:47 69K 
 si92102286_5.jpg 2016-02-22 22:47 69K 
 si92102286_1.jpg 2016-02-22 22:47 69K 
 fl285111.jpg 2016-02-22 22:40 69K 
 fl368438.jpg 2016-02-22 22:42 69K 
 351-0190.jpg 2016-02-22 22:38 69K 
 356-0160.jpg 2016-02-22 22:38 69K 
 ps84407g.jpg 2016-02-22 22:45 69K 
 369-520-9.jpg 2016-02-22 22:38 69K 
 stfktx020.jpg 2016-02-22 22:49 69K 
 364-682.jpg 2016-02-22 22:38 69K 
 F-16-Red-F_0.png 2016-02-22 23:06 69K 
 zu8929_3.jpg 2016-02-22 22:50 69K 
 fl734024.jpg 2016-02-22 22:42 69K 
 8542581.jpg 2016-02-22 22:38 68K 
 8542580.jpg 2016-02-22 22:38 68K 
 8542579.jpg 2016-02-22 22:38 68K 
 8542577.jpg 2016-02-22 22:38 68K 
 8542576.jpg 2016-02-22 22:38 68K 
 fl363566.jpg 2016-02-22 22:41 68K 
 fl366238.jpg 2016-02-22 22:41 68K 
 fl369935-1.jpg 2016-02-22 22:42 68K 
 sm70005.jpg 2016-02-22 22:49 68K 
 fl367122.jpg 2016-02-22 22:41 68K 
 fl368130.jpg 2016-02-22 22:42 68K 
 369-220-9.jpg 2016-02-22 22:38 68K 
 fl366680_1.jpg 2016-02-22 22:41 68K 
 fl368812-2.jpg 2016-02-22 22:42 68K 
 sm70001.jpg 2016-02-22 22:49 68K 
 dd46011.jpg 2016-02-22 22:39 68K 
 AX1042_4.jpg 2016-02-22 22:39 68K 
 dd64010.jpg 2016-02-22 22:39 68K 
 fl367121_92.jpg 2016-02-22 22:41 68K 
 fl734114-3.jpg 2016-02-22 22:42 68K 
 sm70203.jpg 2016-02-22 22:49 68K 
 fl367321.jpg 2016-02-22 22:41 68K 
 us201220.jpg 2016-02-22 22:49 68K 
 zu8938s_2.jpg 2016-02-22 22:50 68K 
 st7009mg2930g.jpg 2016-02-22 22:49 68K 
 8542525.jpg 2016-02-22 22:38 68K 
 8542524.jpg 2016-02-22 22:38 68K 
 8542522.jpg 2016-02-22 22:38 68K 
 sm62052.jpg 2016-02-22 22:48 68K 
 356-0148.jpg 2016-02-22 22:38 68K 
 fl366018_1.jpg 2016-02-22 22:41 68K 
 fl368014.jpg 2016-02-22 22:42 68K 
 lancerct9a.jpg 2016-02-22 22:44 68K 
 as101040-1.jpg 2016-02-22 22:38 68K 
 sm70007.jpg 2016-02-22 22:49 68K 
 imprezagrb.jpg 2016-02-22 22:43 68K 
 si55830286_3.jpg 2016-02-22 22:47 68K 
 si83101286.jpg 2016-02-22 22:47 68K 
 fl734051_2.jpg 2016-02-22 22:42 68K 
 usbda.jpg 2016-02-22 22:49 68K 
 fl366439_2.jpg 2016-02-22 22:41 68K 
 zu1915_1.jpg 2016-02-22 22:50 68K 
 fl373006-1.jpg 2016-02-22 22:42 68K 
 AX1042_2.jpg 2016-02-22 22:39 67K 
 Evo-Clean-Or-F_0.png 2016-02-22 23:06 67K 
 Kinetic-WomenRace-Bl..>2016-02-22 23:07 67K 
 as105020-2.jpg 2016-02-22 22:38 67K 
 sm62069.jpg 2016-02-22 22:48 67K 
 sm70206.jpg 2016-02-22 22:49 67K 
 zu9525.jpg 2016-02-22 22:50 67K 
 S46HR1C1L.jpg 2016-02-22 22:46 67K 
 tu5635016sw.jpg 2016-02-22 22:49 67K 
 zu96353_2.jpg 2016-02-22 22:50 67K 
 sm70105.jpg 2016-02-22 22:49 67K 
 363-10234.jpg 2016-02-22 22:38 67K 
 sm62045.jpg 2016-02-22 22:48 67K 
 fl366135.jpg 2016-02-22 22:41 67K 
 Kinetic-Div-Hvz-F_0.png2016-02-22 23:07 67K 
 ar1010_1.jpg 2016-02-22 22:38 67K 
 sm70204.jpg 2016-02-22 22:49 67K 
 fl367221_7.jpg 2016-02-22 22:41 67K 
 fl367321_91.jpg 2016-02-22 22:41 67K 
 fl366222_2.jpg 2016-02-22 22:41 67K 
 fl3500292.jpg 2016-02-22 22:40 67K 
 fl350292.jpg 2016-02-22 22:40 67K 
 zu1298r.jpg 2016-02-22 22:50 67K 
 sm70100.jpg 2016-02-22 22:49 67K 
 fl367809.jpg 2016-02-22 22:41 67K 
 AX1144_4.jpg 2016-02-22 22:39 67K 
 pf_bremsscheiben.jpg 2016-02-22 22:44 67K 
 fl733790.jpg 2016-02-22 22:42 67K 
 fl367801.jpg 2016-02-22 22:41 67K 
 fl738180.jpg 2016-02-22 22:42 67K 
 AX1155_1.jpg 2016-02-22 22:39 67K 
 fl367435.jpg 2016-02-22 22:41 67K 
 Kin-Inv-blue-3.jpg 2016-02-22 22:43 67K 
 as104030-3.jpg 2016-02-22 22:38 67K 
 si92121021.jpg 2016-02-22 22:47 67K 
 fl366110_1.jpg 2016-02-22 22:41 67K 
 ttx25fsae4_2.jpg 2016-02-22 22:49 67K 
 fl367928_9.jpg 2016-02-22 22:42 67K 
 si93121021_2.jpg 2016-02-22 22:47 67K 
 sm70000.jpg 2016-02-22 22:49 67K 
 si93101021_2.jpg 2016-02-22 22:47 67K 
 sm70201.jpg 2016-02-22 22:49 67K 
 fl367321_9.jpg 2016-02-22 22:41 67K 
 dd44011.jpg 2016-02-22 22:39 67K 
 fl3520530-2.jpg 2016-02-22 22:40 66K 
 fl369724-2.jpg 2016-02-22 22:42 66K 
 zu8936_4.jpg 2016-02-22 22:50 66K 
 fl367521_9.jpg 2016-02-22 22:41 66K 
 ka035_1.jpg 2016-02-22 22:43 66K 
 AX3042_1.jpg 2016-02-22 22:39 66K 
 3616075.jpg 2016-02-22 22:38 66K 
 fl368110.jpg 2016-02-22 22:42 66K 
 fl368410.jpg 2016-02-22 22:42 66K 
 fl366231_1.jpg 2016-02-22 22:41 66K 
 sm62063_1.jpg 2016-02-22 22:48 66K 
 fl366730.jpg 2016-02-22 22:41 66K 
 fl353044.jpg 2016-02-22 22:40 66K 
 AX1143_3.jpg 2016-02-22 22:39 66K 
 fl367532.jpg 2016-02-22 22:41 66K 
 fl3540109.jpg 2016-02-22 22:40 66K 
 fl366239.jpg 2016-02-22 22:41 66K 
 sm1981_2_fuel_v2_smi..>2016-02-22 22:48 66K 
 sm1981_2.jpg 2016-02-22 22:48 66K 
 36-16074.jpg 2016-02-22 22:38 66K 
 si93121286_2.jpg 2016-02-22 22:47 66K 
 Kinetic-Div-Red-F_0.png2016-02-22 23:07 66K 
 srmsr04.jpg 2016-02-22 22:49 66K 
 356-0149.jpg 2016-02-22 22:38 66K 
 stfhqx030.jpg 2016-02-22 22:49 66K 
 351-0140.jpg 2016-02-22 22:38 66K 
 relv153-1.jpg 2016-02-22 22:46 66K 
 relv147-1.jpg 2016-02-22 22:46 66K 
 relv122-1.jpg 2016-02-22 22:46 66K 
 relv114-1.jpg 2016-02-22 22:46 66K 
 relv113-1.jpg 2016-02-22 22:46 66K 
 relv112-1.jpg 2016-02-22 22:46 66K 
 ps6068_3.jpg 2016-02-22 22:45 66K 
 ps6067_3.jpg 2016-02-22 22:45 66K 
 ps6066_3.jpg 2016-02-22 22:45 66K 
 ps6065_3.jpg 2016-02-22 22:45 66K 
 ps6064_3.jpg 2016-02-22 22:45 66K 
 ps6063_3.jpg 2016-02-22 22:45 66K 
 ps6062_3.jpg 2016-02-22 22:45 66K 
 ps6061_3.jpg 2016-02-22 22:45 66K 
 fl373010-1.jpg 2016-02-22 22:42 66K 
 fl373000-1.jpg 2016-02-22 22:42 66K 
 sm70107.jpg 2016-02-22 22:49 66K 
 dd64011.jpg 2016-02-22 22:39 66K 
 dd48w24.jpg 2016-02-22 22:39 66K 
 si93101286_2.jpg 2016-02-22 22:47 66K 
 sm70209.jpg 2016-02-22 22:49 66K 
 jcr-1.png 2016-02-22 23:07 66K 
 365-23834.jpg 2016-02-22 22:38 66K 
 fl368818.jpg 2016-02-22 22:42 66K 
 sm70210.jpg 2016-02-22 22:49 66K 
 lancercz4a.jpg 2016-02-22 22:44 66K 
 fl366813.jpg 2016-02-22 22:41 66K 
 369-920-9.jpg 2016-02-22 22:38 66K 
 zu8927.jpg 2016-02-22 22:50 65K 
 gtqt43b.jpg 2016-02-22 22:43 65K 
 fl367939.jpg 2016-02-22 22:42 65K 
 Lite-Red-F.png 2016-02-22 23:07 65K 
 AX1162_2.jpg 2016-02-22 22:39 65K 
 fl3510300.jpg 2016-02-22 22:40 65K 
 Lite-Green-F.png 2016-02-22 23:07 65K 
 zu9520.jpg 2016-02-22 22:50 65K 
 as104030.jpg 2016-02-22 22:38 65K 
 354-6010-8.jpg 2016-02-22 22:38 65K 
 fl367427_9.jpg 2016-02-22 22:41 65K 
 sm2025_2_intake_grap..>2016-02-22 22:48 65K 
 sm2025_2.jpg 2016-02-22 22:48 65K 
 sm3051.jpg 2016-02-22 22:48 65K 
 AX1175_3.jpg 2016-02-22 22:39 65K 
 fl363566_3.jpg 2016-02-22 22:41 65K 
 AX1144_2.jpg 2016-02-22 22:39 65K 
 365-448.jpg 2016-02-22 22:38 65K 
 hm012.jpg 2016-02-22 22:43 65K 
 fl367320.jpg 2016-02-22 22:41 65K 
 sm63502.jpg 2016-02-22 22:48 65K 
 zu8903.jpg 2016-02-22 22:50 65K 
 fl3540110.jpg 2016-02-22 22:40 65K 
 fl368430.jpg 2016-02-22 22:42 65K 
 fl367235_1.jpg 2016-02-22 22:41 65K 
 fl3510260.jpg 2016-02-22 22:40 65K 
 fl367320_8.jpg 2016-02-22 22:41 65K 
 Kinetic-Mesh-Teal-F.png2016-02-22 23:07 65K 
 sm62095.jpg 2016-02-22 22:48 65K 
 sm63402.jpg 2016-02-22 22:48 65K 
 365-610.jpg 2016-02-22 22:38 65K 
 hms3jkam6.jpg 2016-02-22 22:43 65K 
 hms3jkam5.jpg 2016-02-22 22:43 65K 
 hms3jkam3.jpg 2016-02-22 22:43 65K 
 hms3jkam2.jpg 2016-02-22 22:43 65K 
 hms3jkam1.jpg 2016-02-22 22:43 65K 
 fl366722_91.jpg 2016-02-22 22:41 65K 
 relv111-1.jpg 2016-02-22 22:46 65K 
 as104030-1.jpg 2016-02-22 22:38 65K 
 hm006.jpg 2016-02-22 22:43 65K 
 fl367921_9.jpg 2016-02-22 22:42 65K 
 fl367320_9.jpg 2016-02-22 22:41 65K 
 fl285070-1.jpg 2016-02-22 22:40 65K 
 hms1tgam5.jpg 2016-02-22 22:43 65K 
 hms1tgam4.jpg 2016-02-22 22:43 65K 
 hms1tgam3.jpg 2016-02-22 22:43 65K 
 hms1tgam2.jpg 2016-02-22 22:43 65K 
 hms1tgam1.jpg 2016-02-22 22:43 65K 
 fl362590-1.jpg 2016-02-22 22:41 65K 
 fl366728_91.jpg 2016-02-22 22:41 65K 
 fl367432.jpg 2016-02-22 22:41 65K 
 283080_3.jpg 2016-02-22 22:38 65K 
 283080.jpg 2016-02-22 22:38 65K 
 sm70004.jpg 2016-02-22 22:49 65K 
 fl367538.jpg 2016-02-22 22:41 65K 
 sm63401.jpg 2016-02-22 22:48 65K 
 365-23134.jpg 2016-02-22 22:38 65K 
 ps8911.jpg 2016-02-22 22:45 65K 
 re1335rby.jpg 2016-02-22 22:45 65K 
 ps84549b.jpg 2016-02-22 22:45 65K 
 AX1144_3.jpg 2016-02-22 22:39 65K 
 szsmi00_2.jpg 2016-02-22 22:49 65K 
 xtrig-blau.jpg 2016-02-22 22:49 65K 
 ohsu037.jpg 2016-02-22 22:44 64K 
 sc02717002.jpg 2016-02-22 22:46 64K 
 zu8917.jpg 2016-02-22 22:50 64K 
 zu8938w_2.jpg 2016-02-22 22:50 64K 
 us101205.jpg 2016-02-22 22:49 64K 
 fl367120.jpg 2016-02-22 22:41 64K 
 fl3510332.jpg 2016-02-22 22:40 64K 
 fl285063_2.jpg 2016-02-22 22:40 64K 
 sm62091.jpg 2016-02-22 22:48 64K 
 hmr1hoam6.jpg 2016-02-22 22:43 64K 
 hmr1hoam5.jpg 2016-02-22 22:43 64K 
 hmr1hoam3.jpg 2016-02-22 22:43 64K 
 hmr1hoam2.jpg 2016-02-22 22:43 64K 
 hmr1hoam1.jpg 2016-02-22 22:43 64K 
 fl367529_9.jpg 2016-02-22 22:41 64K 
 fl367922_92.jpg 2016-02-22 22:42 64K 
 sm63501.jpg 2016-02-22 22:48 64K 
 sc00430002.jpg 2016-02-22 22:46 64K 
 dd44099.jpg 2016-02-22 22:39 64K 
 fl734111-3.jpg 2016-02-22 22:42 64K 
 sm62062.jpg 2016-02-22 22:48 64K 
 hosmi30_2.jpg 2016-02-22 22:43 64K 
 Lite-Wht-F.png 2016-02-22 23:07 64K 
 mb101010-1.jpg 2016-02-22 22:44 64K 
 AX1130_2.jpg 2016-02-22 22:39 64K 
 ls305602502.jpg 2016-02-22 22:44 64K 
 fl363567_2.jpg 2016-02-22 22:41 64K 
 fl3631109.jpg 2016-02-22 22:41 64K 
 fl366233.jpg 2016-02-22 22:41 64K 
 sr1210.jpg 2016-02-22 22:49 64K 
 ts55150520016.jpg 2016-02-22 22:49 64K 
 365-53234.jpg 2016-02-22 22:38 64K 
 pwsskh04420.jpg 2016-02-22 22:45 64K 
 si93115021.jpg 2016-02-22 22:47 64K 
 fl3520310.jpg 2016-02-22 22:40 64K 
 sc00420002.jpg 2016-02-22 22:46 64K 
 se1406138_1.jpg 2016-02-22 22:46 64K 
 351-0152.jpg 2016-02-22 22:38 64K 
 fl368412.jpg 2016-02-22 22:42 64K 
 fl366812.jpg 2016-02-22 22:41 64K 
 fl369930-1.jpg 2016-02-22 22:42 64K 
 fl367121_8.jpg 2016-02-22 22:41 64K 
 fl366237.jpg 2016-02-22 22:41 64K 
 fl3520695-1.jpg 2016-02-22 22:40 64K 
 zu9579_2.jpg 2016-02-22 22:50 64K 
 si94101286_2.jpg 2016-02-22 22:47 64K 
 pwsakh14008.jpg 2016-02-22 22:45 64K 
 ps84358g.jpg 2016-02-22 22:45 63K 
 sc00421005.jpg 2016-02-22 22:46 63K 
 zu9538.jpg 2016-02-22 22:50 63K 
 pwlkh11008.jpg 2016-02-22 22:45 63K 
 zu8927_1.jpg 2016-02-22 22:50 63K 
 sm70200.jpg 2016-02-22 22:49 63K 
 fl3510220.jpg 2016-02-22 22:40 63K 
 si94121286_2.jpg 2016-02-22 22:47 63K 
 sm62044.jpg 2016-02-22 22:48 63K 
 zu8926.jpg 2016-02-22 22:50 63K 
 zu8932w_3.jpg 2016-02-22 22:50 63K 
 fl3609925.jpg 2016-02-22 22:40 63K 
 sc00421003.jpg 2016-02-22 22:46 63K 
 t36pr1c1l_2.jpg 2016-02-22 22:49 63K 
 si94121999_3.jpg 2016-02-22 22:47 63K 
 sm70006.jpg 2016-02-22 22:49 63K 
 sm2051_2_intake_swea..>2016-02-22 22:48 63K 
 sm2051_2.jpg 2016-02-22 22:48 63K 
 si94101999_3.jpg 2016-02-22 22:47 63K 
 as103030-1.jpg 2016-02-22 22:38 63K 
 stsun260sw.jpg 2016-02-22 22:49 63K 
 bmsmi10_6.jpg 2016-02-22 22:39 63K 
 fl366012_2.jpg 2016-02-22 22:41 63K 
 re1380_1.jpg 2016-02-22 22:45 63K 
 xtrig-rot.jpg 2016-02-22 22:49 63K 
 fl366235.jpg 2016-02-22 22:41 63K 
 as103040-2.jpg 2016-02-22 22:38 63K 
 ussp_1.jpg 2016-02-22 22:49 63K 
 zu8932-2.jpg 2016-02-22 22:50 63K 
 fl363575.jpg 2016-02-22 22:41 63K 
 fl367802.jpg 2016-02-22 22:41 63K 
 AX1172_2.jpg 2016-02-22 22:39 63K 
 as105010-2.jpg 2016-02-22 22:38 63K 
 ush2xc252.jpg 2016-02-22 22:49 63K 
 zu9412.jpg 2016-02-22 22:50 63K 
 fl367131_1.jpg 2016-02-22 22:41 63K 
 fl373027-1.jpg 2016-02-22 22:42 63K 
 fl373022-1.jpg 2016-02-22 22:42 63K 
 fl3564010.jpg 2016-02-22 22:40 63K 
 si93101185_2.jpg 2016-02-22 22:47 63K 
 ka035_3.jpg 2016-02-22 22:43 63K 
 as103030.jpg 2016-02-22 22:38 63K 
 dd40099.jpg 2016-02-22 22:39 63K 
 fl373025-1.jpg 2016-02-22 22:42 63K 
 fl373020-1.jpg 2016-02-22 22:42 63K 
 sm62051.jpg 2016-02-22 22:48 63K 
 si64112286_1.jpg 2016-02-22 22:47 63K 
 fl366722_92.jpg 2016-02-22 22:41 63K 
 sm62061.jpg 2016-02-22 22:48 62K 
 fl367920.jpg 2016-02-22 22:42 62K 
 AX1042_1.jpg 2016-02-22 22:39 62K 
 s46pr1c1s_v.jpg 2016-02-22 22:46 62K 
 hosmi30_1.jpg 2016-02-22 22:43 62K 
 fl3520326.jpg 2016-02-22 22:40 62K 
 zu8925_1.jpg 2016-02-22 22:50 62K 
 sm70208.jpg 2016-02-22 22:49 62K 
 dd46099.jpg 2016-02-22 22:39 62K 
 si06620980_3.jpg 2016-02-22 22:46 62K 
 si06600980_3.jpg 2016-02-22 22:46 62K 
 sm70205.jpg 2016-02-22 22:49 62K 
 tu1044.jpg 2016-02-22 22:49 62K 
 dd46098.jpg 2016-02-22 22:39 62K 
 sm62021.jpg 2016-02-22 22:48 62K 
 fl3510333.jpg 2016-02-22 22:40 62K 
 fl366813_1.jpg 2016-02-22 22:41 62K 
 ax1256.jpg 2016-02-22 22:39 62K 
 hosmi30_4.jpg 2016-02-22 22:43 62K 
 36-16014.jpg 2016-02-22 22:38 62K 
 zu8922_1.jpg 2016-02-22 22:50 62K 
 fl733493.jpg 2016-02-22 22:42 62K 
 110530002401.jpg 2016-02-22 22:36 62K 
 110530002301.jpg 2016-02-22 22:36 62K 
 110530002001.jpg 2016-02-22 22:36 62K 
 fl366332_1.jpg 2016-02-22 22:41 62K 
 110530001901.jpg 2016-02-22 22:36 62K 
 110530001001.jpg 2016-02-22 22:36 62K 
 110530000901.jpg 2016-02-22 22:36 62K 
 110530000601.jpg 2016-02-22 22:36 62K 
 110530000401.jpg 2016-02-22 22:36 62K 
 110530000301.jpg 2016-02-22 22:36 62K 
 110530000201.jpg 2016-02-22 22:36 62K 
 fl369925-2.jpg 2016-02-22 22:42 62K 
 fl367539.jpg 2016-02-22 22:41 62K 
 as104050-3.jpg 2016-02-22 22:38 62K 
 zu4820-1.jpg 2016-02-22 22:50 62K 
 si94101185_2.jpg 2016-02-22 22:47 62K 
 fl3609801_11.jpg 2016-02-22 22:40 62K 
 fl367430.jpg 2016-02-22 22:41 62K 
 ab1.jpg 2016-02-22 22:38 62K 
 hmr1jkbm5.jpg 2016-02-22 22:43 62K 
 hmr1jkbm4.jpg 2016-02-22 22:43 62K 
 hmr1jkbm3.jpg 2016-02-22 22:43 62K 
 hmr1jkbm2.jpg 2016-02-22 22:43 62K 
 hmr1jkbm1.jpg 2016-02-22 22:43 62K 
 hmr1jkb6.jpg 2016-02-22 22:43 62K 
 ps84550b.jpg 2016-02-22 22:45 62K 
 si55840286.jpg 2016-02-22 22:47 62K 
 sm70207.jpg 2016-02-22 22:49 62K 
 fl734070.jpg 2016-02-22 22:42 62K 
 AX3056_1.jpg 2016-02-22 22:39 62K 
 sr1410.jpg 2016-02-22 22:49 62K 
 fl367330.jpg 2016-02-22 22:41 62K 
 sm63504.jpg 2016-02-22 22:48 62K 
 sc00408001.jpg 2016-02-22 22:46 62K 
 fl2520053.jpg 2016-02-22 22:40 62K 
 si94121107_2.jpg 2016-02-22 22:47 62K 
 ls305602312.jpg 2016-02-22 22:44 62K 
 si94101107_2.jpg 2016-02-22 22:47 62K 
 fl733492.jpg 2016-02-22 22:42 62K 
 relv121-2.jpg 2016-02-22 22:46 62K 
 relv120-2.jpg 2016-02-22 22:46 62K 
 relv119-2.jpg 2016-02-22 22:46 62K 
 relv118-2.jpg 2016-02-22 22:46 62K 
 relv117-2.jpg 2016-02-22 22:46 62K 
 relv116-2.jpg 2016-02-22 22:46 62K 
 fl367331.jpg 2016-02-22 22:41 62K 
 me4452.jpg 2016-02-22 22:44 62K 
 fl367122_9.jpg 2016-02-22 22:41 62K 
 fl368415.jpg 2016-02-22 22:42 62K 
 as103050-1.jpg 2016-02-22 22:38 62K 
 sm1986_2_fuel_v2_smi..>2016-02-22 22:48 62K 
 sm1986_2.jpg 2016-02-22 22:48 62K 
 365-23234.jpg 2016-02-22 22:38 61K 
 fl121864_6.jpg 2016-02-22 22:40 61K 
 pwshkh24008.jpg 2016-02-22 22:45 61K 
 hms1tjam6.jpg 2016-02-22 22:43 61K 
 hms1tjam5.jpg 2016-02-22 22:43 61K 
 hms1tjam4.jpg 2016-02-22 22:43 61K 
 hms1tjam3.jpg 2016-02-22 22:43 61K 
 hms1tjam2.jpg 2016-02-22 22:43 61K 
 hms1tjam1.jpg 2016-02-22 22:43 61K 
 si94121021_2.jpg 2016-02-22 22:47 61K 
 fl733494.jpg 2016-02-22 22:42 61K 
 ush1xc202.jpg 2016-02-22 22:49 61K 
 fl3520590.jpg 2016-02-22 22:40 61K 
 sm63404.jpg 2016-02-22 22:48 61K 
 fl367435_1.jpg 2016-02-22 22:41 61K 
 sm1406evo_smith.jpg 2016-02-22 22:47 61K 
 sm1406.jpg 2016-02-22 22:47 61K 
 hma1pca01.jpg 2016-02-22 22:43 61K 
 AX3060_1.jpg 2016-02-22 22:39 61K 
 si93101999_2.jpg 2016-02-22 22:47 61K 
 as103050-4.jpg 2016-02-22 22:38 61K 
 relv121-1.jpg 2016-02-22 22:46 61K 
 relv120-1.jpg 2016-02-22 22:46 61K 
 relv119-1.jpg 2016-02-22 22:46 61K 
 relv118-1.jpg 2016-02-22 22:46 61K 
 relv117-1.jpg 2016-02-22 22:46 61K 
 relv116-1.jpg 2016-02-22 22:46 61K 
 369-722-92.jpg 2016-02-22 22:38 61K 
 hmr1caak0.jpg 2016-02-22 22:43 61K 
 fl357017022.jpg 2016-02-22 22:40 61K 
 si92101185_3.jpg 2016-02-22 22:47 61K 
 si93121999_2.jpg 2016-02-22 22:47 61K 
 fl733360.jpg 2016-02-22 22:42 61K 
 sm63602.jpg 2016-02-22 22:48 61K 
 fl366132.jpg 2016-02-22 22:41 61K 
 gttcark_2.jpg 2016-02-22 22:43 61K 
 sm62093.jpg 2016-02-22 22:48 61K 
 AX3060_3.jpg 2016-02-22 22:39 61K 
 sr37l_1.jpg 2016-02-22 22:49 61K 
 relv116.jpg 2016-02-22 22:46 61K 
 ps89855b.jpg 2016-02-22 22:45 61K 
 ps84556b.jpg 2016-02-22 22:45 61K 
 ps84555b.jpg 2016-02-22 22:45 61K 
 ps84554b.jpg 2016-02-22 22:45 61K 
 ps898221.jpg 2016-02-22 22:45 61K 
 fl367640.jpg 2016-02-22 22:41 61K 
 relv153-3.jpg 2016-02-22 22:46 61K 
 relv147-3.jpg 2016-02-22 22:46 61K 
 relv122-3.jpg 2016-02-22 22:46 61K 
 relv114-3.jpg 2016-02-22 22:46 61K 
 relv113-3.jpg 2016-02-22 22:46 61K 
 relv112-3.jpg 2016-02-22 22:46 61K 
 st7009mg2930si.jpg 2016-02-22 22:49 61K 
 zu8932w_2.jpg 2016-02-22 22:50 61K 
 sm1986_fuel_v2_smith..>2016-02-22 22:48 61K 
 sm1986.jpg 2016-02-22 22:48 61K 
 fl3540120_1.jpg 2016-02-22 22:40 61K 
 fl357010_1.jpg 2016-02-22 22:40 61K 
 fl734051_3.jpg 2016-02-22 22:42 61K 
 re61303g.jpg 2016-02-22 22:46 61K 
 fl366731.jpg 2016-02-22 22:41 61K 
 zu159030_1.jpg 2016-02-22 22:50 61K 
 zu4870.jpg 2016-02-22 22:50 61K 
 zu4830.jpg 2016-02-22 22:50 61K 
 zu8922.jpg 2016-02-22 22:50 61K 
 sm1987_fuel_v2_smith..>2016-02-22 22:48 61K 
 sm1987.jpg 2016-02-22 22:48 61K 
 zu8926_1.jpg 2016-02-22 22:50 61K 
 AX1172_3.jpg 2016-02-22 22:39 61K 
 fl369932-1.jpg 2016-02-22 22:42 60K 
 sm63601.jpg 2016-02-22 22:48 60K 
 zu9538_1.jpg 2016-02-22 22:50 60K 
 fl362608-1.jpg 2016-02-22 22:41 60K 
 sm62067.jpg 2016-02-22 22:48 60K 
 ab1evo.jpg 2016-02-22 22:38 60K 
 fl3560188.jpg 2016-02-22 22:40 60K 
 dd64099.jpg 2016-02-22 22:39 60K 
 fl368812.jpg 2016-02-22 22:42 60K 
 kinetic-girls.jpg 2016-02-22 22:43 60K 
 fl285023.jpg 2016-02-22 22:40 60K 
 sm63503.jpg 2016-02-22 22:48 60K 
 fl368413.jpg 2016-02-22 22:42 60K 
 fl367034.jpg 2016-02-22 22:41 60K 
 kt255_1.jpg 2016-02-22 22:44 60K 
 fl368531.jpg 2016-02-22 22:42 60K 
 fl3540036.jpg 2016-02-22 22:40 60K 
 fl3580020.jpg 2016-02-22 22:40 60K 
 sc00431001.jpg 2016-02-22 22:46 60K 
 zu4850sw.jpg 2016-02-22 22:50 60K 
 fl3585095_2.jpg 2016-02-22 22:40 60K 
 stktt0600.jpg 2016-02-22 22:49 60K 
 AX6089_3.jpg 2016-02-22 22:39 60K 
 fl368814.jpg 2016-02-22 22:42 60K 
 fl367030.jpg 2016-02-22 22:41 60K 
 352-0212.jpg 2016-02-22 22:38 60K 
 si93112485.jpg 2016-02-22 22:47 60K 
 stktt0700.jpg 2016-02-22 22:49 60K 
 fl998220.jpg 2016-02-22 22:43 60K 
 zu1656.jpg 2016-02-22 22:50 60K 
 si02105990_2.jpg 2016-02-22 22:46 60K 
 si02101990_2.jpg 2016-02-22 22:46 60K 
 fl366232_1.jpg 2016-02-22 22:41 60K 
 fl366331_1.jpg 2016-02-22 22:41 60K 
 fl367531.jpg 2016-02-22 22:41 60K 
 fl368532.jpg 2016-02-22 22:42 60K 
 fl367422_8.jpg 2016-02-22 22:41 60K 
 fl366638_4.jpg 2016-02-22 22:41 60K 
 zu9527_3.jpg 2016-02-22 22:50 60K 
 sm70202.jpg 2016-02-22 22:49 60K 
 283080_4.jpg 2016-02-22 22:38 60K 
 283080_1.jpg 2016-02-22 22:38 60K 
 fl366818_1.jpg 2016-02-22 22:41 60K 
 fl734017.jpg 2016-02-22 22:42 60K 
 pk12155.jpg 2016-02-22 22:44 60K 
 3520172.jpg 2016-02-22 22:38 60K 
 351-0170.jpg 2016-02-22 22:38 60K 
 xt40405005.jpg 2016-02-22 22:49 59K 
 xt40405004.jpg 2016-02-22 22:49 59K 
 sm2053_intake_sweatx..>2016-02-22 22:48 59K 
 sm2053.jpg 2016-02-22 22:48 59K 
 365-33034.jpg 2016-02-22 22:38 59K 
 ohsusmi10_1.jpg 2016-02-22 22:44 59K 
 fl3560160.jpg 2016-02-22 22:40 59K 
 fl36258910-1.jpg 2016-02-22 22:41 59K 
 fl362589-1.jpg 2016-02-22 22:41 59K 
 fl733624_1.jpg 2016-02-22 22:42 59K 
 fl733624-1.jpg 2016-02-22 22:42 59K 
 fgrt301_3.jpg 2016-02-22 22:40 59K 
 si96362185_2.jpg 2016-02-22 22:47 59K 
 hmr1hoak4.jpg 2016-02-22 22:43 59K 
 as104020-2.jpg 2016-02-22 22:38 59K 
 hmrhoak4.jpg 2016-02-22 22:43 59K 
 hmr1hoak3.jpg 2016-02-22 22:43 59K 
 hmr1hoak2.jpg 2016-02-22 22:43 59K 
 hmr1hoak1.jpg 2016-02-22 22:43 59K 
 hmr1hoak0.jpg 2016-02-22 22:43 59K 
 fl3510333_2.jpg 2016-02-22 22:40 59K 
 fl285067.jpg 2016-02-22 22:40 59K 
 733637_2.jpg 2016-02-22 22:38 59K 
 356-6022.jpg 2016-02-22 22:38 59K 
 si92121999_2.jpg 2016-02-22 22:47 59K 
 si55830430.jpg 2016-02-22 22:47 59K 
 AX1055_2.jpg 2016-02-22 22:39 59K 
 fl366139_2.jpg 2016-02-22 22:41 59K 
 fl367532_1.jpg 2016-02-22 22:41 59K 
 si92101999_2.jpg 2016-02-22 22:47 59K 
 mb101030-3.jpg 2016-02-22 22:44 59K 
 mb101030-1.jpg 2016-02-22 22:44 59K 
 fl367522_8.jpg 2016-02-22 22:41 59K 
 bmsmi10_4.jpg 2016-02-22 22:39 59K 
 fl285062.jpg 2016-02-22 22:40 59K 
 re1354.jpg 2016-02-22 22:45 59K 
 fl366732_1.jpg 2016-02-22 22:41 59K 
 as104030-2.jpg 2016-02-22 22:38 59K 
 fl367132.jpg 2016-02-22 22:41 59K 
 110530001801.jpg 2016-02-22 22:36 59K 
 110530001701.jpg 2016-02-22 22:36 59K 
 110530001601.jpg 2016-02-22 22:36 59K 
 110530001501.jpg 2016-02-22 22:36 59K 
 110530001301.jpg 2016-02-22 22:36 59K 
 110530000801.jpg 2016-02-22 22:36 59K 
 110530000701.jpg 2016-02-22 22:36 59K 
 110530000501.jpg 2016-02-22 22:36 59K 
 zu8929_5.jpg 2016-02-22 22:50 59K 
 sm62043.jpg 2016-02-22 22:48 59K 
 356-0142.jpg 2016-02-22 22:38 59K 
 si31101292.jpg 2016-02-22 22:47 59K 
 fl3560202.jpg 2016-02-22 22:40 59K 
 relv115.jpg 2016-02-22 22:46 59K 
 sm1408_evo_smith.jpg 2016-02-22 22:47 59K 
 sm1408.jpg 2016-02-22 22:47 59K 
 ls103963912.jpg 2016-02-22 22:44 59K 
 28-3095-intro.jpg 2016-02-22 22:38 59K 
 fl353040.jpg 2016-02-22 22:40 59K 
 fl3524061.jpg 2016-02-22 22:40 59K 
 muk.jpg 2016-02-22 22:44 59K 
 fl366011_2.jpg 2016-02-22 22:41 59K 
 fl367621_9.jpg 2016-02-22 22:41 59K 
 28-3095-intro2.jpg 2016-02-22 22:38 59K 
 AX1143_2.jpg 2016-02-22 22:39 59K 
 365229_3.jpg 2016-02-22 22:38 59K 
 8542564.jpg 2016-02-22 22:38 59K 
 8542563.jpg 2016-02-22 22:38 59K 
 8542562.jpg 2016-02-22 22:38 59K 
 8542561.jpg 2016-02-22 22:38 59K 
 fl733494_2.jpg 2016-02-22 22:42 59K 
 fl733494-2.jpg 2016-02-22 22:42 59K 
 fl368738.jpg 2016-02-22 22:42 59K 
 relv116_1.jpg 2016-02-22 22:46 59K 
 relv112_1.jpg 2016-02-22 22:46 59K 
 fl373013-1.jpg 2016-02-22 22:42 58K 
 fl373004-1.jpg 2016-02-22 22:42 58K 
 re112u520s.jpg 2016-02-22 22:45 58K 
 fl368990.jpg 2016-02-22 22:42 58K 
 fl734052_4.jpg 2016-02-22 22:42 58K 
 354-0072.jpg 2016-02-22 22:38 58K 
 fl367935.jpg 2016-02-22 22:42 58K 
 posmi10_1.jpg 2016-02-22 22:44 58K 
 ush2xc252_1.jpg 2016-02-22 22:49 58K 
 fl368639.jpg 2016-02-22 22:42 58K 
 fl734019.jpg 2016-02-22 22:42 58K 
 fl733354.jpg 2016-02-22 22:42 58K 
 fl367931.jpg 2016-02-22 22:42 58K 
 734022.jpg 2016-02-22 22:38 58K 
 fl3510331_2.jpg 2016-02-22 22:40 58K 
 fl366810.jpg 2016-02-22 22:41 58K 
 fl367621_8.jpg 2016-02-22 22:41 58K 
 sm1958_2_fuel_smith.jpg2016-02-22 22:48 58K 
 sm1958_2.jpg 2016-02-22 22:48 58K 
 sm1987_2_fuel_v2_smi..>2016-02-22 22:48 58K 
 sm1987_2.jpg 2016-02-22 22:48 58K 
 S36PL.jpg 2016-02-22 22:46 58K 
 fl367437_1.jpg 2016-02-22 22:41 58K 
 ts55217000020.jpg 2016-02-22 22:49 58K 
 ts55216001002.jpg 2016-02-22 22:49 58K 
 ts55216000002.jpg 2016-02-22 22:49 58K 
 fl3520532.jpg 2016-02-22 22:40 58K 
 fl3560248_2.jpg 2016-02-22 22:40 58K 
 si93121999_3.jpg 2016-02-22 22:47 58K 
 sm62063.jpg 2016-02-22 22:48 58K 
 fl367538_1.jpg 2016-02-22 22:41 58K 
 sm62065.jpg 2016-02-22 22:48 58K 
 fl366680_2.jpg 2016-02-22 22:41 58K 
 AX1143_4.jpg 2016-02-22 22:39 58K 
 si06620980_2.jpg 2016-02-22 22:46 58K 
 si06600980_2.jpg 2016-02-22 22:46 58K 
 si92102999_2.jpg 2016-02-22 22:47 58K 
 fl369922-2.jpg 2016-02-22 22:42 58K 
 si93121286_3.jpg 2016-02-22 22:47 58K 
 ps6119.jpg 2016-02-22 22:45 58K 
 fl366720_92.jpg 2016-02-22 22:41 58K 
 si93101999_3.jpg 2016-02-22 22:47 58K 
 fl3616080j.jpg 2016-02-22 22:40 58K 
 fl368732.jpg 2016-02-22 22:42 58K 
 ls305602102.jpg 2016-02-22 22:44 58K 
 285056.jpg 2016-02-22 22:38 58K 
 sm63412.jpg 2016-02-22 22:48 58K 
 si94126430_3.jpg 2016-02-22 22:47 58K 
 ps800342.jpg 2016-02-22 22:45 58K 
 sm1982_fuel_v2_smith..>2016-02-22 22:48 58K 
 sm1982.jpg 2016-02-22 22:48 58K 
 150270000101.jpg 2016-02-22 22:38 58K 
 354-6050.jpg 2016-02-22 22:38 58K 
 fl367420_8.jpg 2016-02-22 22:41 58K 
 fl285050_1.jpg 2016-02-22 22:40 58K 
 fl285050-1.jpg 2016-02-22 22:40 58K 
 usahhf10_1.jpg 2016-02-22 22:49 58K 
 fl367420_9.jpg 2016-02-22 22:41 58K 
 re216u520si.jpg 2016-02-22 22:46 58K 
 si93101286_3.jpg 2016-02-22 22:47 58K 
 si92101107_3.jpg 2016-02-22 22:47 58K 
 351-0172.jpg 2016-02-22 22:38 58K 
 fl121864_3.jpg 2016-02-22 22:40 58K 
 as105010-1.jpg 2016-02-22 22:38 57K 
 fl373028-1.jpg 2016-02-22 22:42 57K 
 fl373023-1.jpg 2016-02-22 22:42 57K 
 sm1906_fuel_smith.jpg 2016-02-22 22:48 57K 
 sm1906.jpg 2016-02-22 22:48 57K 
 si92121107_3.jpg 2016-02-22 22:47 57K 
 stfkwx020.jpg 2016-02-22 22:49 57K 
 pf2537_2.jpg 2016-02-22 22:44 57K 
 tu1043.jpg 2016-02-22 22:49 57K 
 fl367938.jpg 2016-02-22 22:42 57K 
 hmr1hoaw4.jpg 2016-02-22 22:43 57K 
 356-6034.jpg 2016-02-22 22:38 57K 
 si94116430_3.jpg 2016-02-22 22:47 57K 
 fl3520691-3.jpg 2016-02-22 22:40 57K 
 hmr1hoaw3.jpg 2016-02-22 22:43 57K 
 hmr1hoaw2.jpg 2016-02-22 22:43 57K 
 hmr1hoaw1.jpg 2016-02-22 22:43 57K 
 hmr1hoaw0.jpg 2016-02-22 22:43 57K 
 3520170_1.jpg 2016-02-22 22:38 57K 
 8542541_2.jpg 2016-02-22 22:38 57K 
 8542538_2.jpg 2016-02-22 22:38 57K 
 us201220add1.jpg 2016-02-22 22:49 57K 
 sm1729_sonic_smith.jpg 2016-02-22 22:48 57K 
 sm1729.jpg 2016-02-22 22:48 57K 
 zu8929_4.jpg 2016-02-22 22:50 57K 
 as103030-3.jpg 2016-02-22 22:38 57K 
 as103030-2.jpg 2016-02-22 22:38 57K 
 8542544_2.jpg 2016-02-22 22:38 57K 
 8542543_2.jpg 2016-02-22 22:38 57K 
 8542542_2.jpg 2016-02-22 22:38 57K 
 8542540_2.jpg 2016-02-22 22:38 57K 
 8542539_2.jpg 2016-02-22 22:38 57K 
 8542537_2.jpg 2016-02-22 22:38 57K 
 as103040.jpg 2016-02-22 22:38 57K 
 fl367637.jpg 2016-02-22 22:41 57K 
 as103020-1.jpg 2016-02-22 22:38 57K 
 fl353120.jpg 2016-02-22 22:40 57K 
 as102010.jpg 2016-02-22 22:38 57K 
 fl733354_1.jpg 2016-02-22 22:42 57K 
 sm1401_evo_smith.jpg 2016-02-22 22:47 57K 
 sm1401.jpg 2016-02-22 22:47 57K 
 zu8929_2.jpg 2016-02-22 22:50 57K 
 zu1930b.jpg 2016-02-22 22:50 57K 
 fl121864.jpg 2016-02-22 22:40 57K 
 fl3520690-1.jpg 2016-02-22 22:40 57K 
 fl366728_92.jpg 2016-02-22 22:41 57K 
 fl362599-1.jpg 2016-02-22 22:41 57K 
 si92102286_4.jpg 2016-02-22 22:47 57K 
 relv112.jpg 2016-02-22 22:46 57K 
 zu1007.jpg 2016-02-22 22:50 57K 
 zu1004.jpg 2016-02-22 22:50 57K 
 zu1003.jpg 2016-02-22 22:50 57K 
 zu1002.jpg 2016-02-22 22:50 57K 
 zu1001.jpg 2016-02-22 22:50 57K 
 8542541.jpg 2016-02-22 22:38 57K 
 8542538.jpg 2016-02-22 22:38 57K 
 fl362600-4.jpg 2016-02-22 22:41 57K 
 fgrt301_1.jpg 2016-02-22 22:40 57K 
 8542544.jpg 2016-02-22 22:38 57K 
 8542543.jpg 2016-02-22 22:38 57K 
 8542542.jpg 2016-02-22 22:38 57K 
 8542540.jpg 2016-02-22 22:38 57K 
 8542539.jpg 2016-02-22 22:38 57K 
 8542537.jpg 2016-02-22 22:38 57K 
 si20667990_3.jpg 2016-02-22 22:47 57K 
 364-680.jpg 2016-02-22 22:38 57K 
 fl366721_1.jpg 2016-02-22 22:41 57K 
 fl3524076.jpg 2016-02-22 22:40 57K 
 sm62094.jpg 2016-02-22 22:48 57K 
 fl739140.jpg 2016-02-22 22:43 57K 
 hosmi20_2.jpg 2016-02-22 22:43 57K 
 si20668990_3.jpg 2016-02-22 22:47 57K 
 sm62047.jpg 2016-02-22 22:48 57K 
 szsmi00_3.jpg 2016-02-22 22:49 57K 
 fl367531_1.jpg 2016-02-22 22:41 57K 
 Kin-rs-grn-2.jpg 2016-02-22 22:43 57K 
 fl3540120.jpg 2016-02-22 22:40 57K 
 fl998221.jpg 2016-02-22 22:43 57K 
 si92121286_3.jpg 2016-02-22 22:47 56K 
 sr37l_2.jpg 2016-02-22 22:49 56K 
 zu9581r.jpg 2016-02-22 22:50 56K 
 sm62089.jpg 2016-02-22 22:48 56K 
 usadt1001.jpg 2016-02-22 22:49 56K 
 AX6065_3.jpg 2016-02-22 22:39 56K 
 sr1320.jpg 2016-02-22 22:49 56K 
 fl3580024.jpg 2016-02-22 22:40 56K 
 zu96116.jpg 2016-02-22 22:50 56K 
 dd39098.jpg 2016-02-22 22:39 56K 
 fl3520612.jpg 2016-02-22 22:40 56K 
 ush4xc252_1.jpg 2016-02-22 22:49 56K 
 si92102001_3.jpg 2016-02-22 22:47 56K 
 1.jpg 2016-02-22 22:35 56K 
 fl3560200.jpg 2016-02-22 22:40 56K 
 rt7401_2.jpg 2016-02-22 22:46 56K 
 hms2rsam5.jpg 2016-02-22 22:43 56K 
 hms2rsam4.jpg 2016-02-22 22:43 56K 
 hms2rsam3.jpg 2016-02-22 22:43 56K 
 hms2rsam2.jpg 2016-02-22 22:43 56K 
 hms2rsam1.jpg 2016-02-22 22:43 56K 
 ab2.jpg 2016-02-22 22:38 56K 
 sm63604.jpg 2016-02-22 22:48 56K 
 si20674240.jpg 2016-02-22 22:47 56K 
 bm679_1.jpg 2016-02-22 22:39 56K 
 bm677_1.jpg 2016-02-22 22:39 56K 
 si92101286_3.jpg 2016-02-22 22:47 56K 
 sm1606_cme_smith.jpg 2016-02-22 22:47 56K 
 sm1606.jpg 2016-02-22 22:47 56K 
 733634.jpg 2016-02-22 22:38 56K 
 sm1728_sonic_smith.jpg 2016-02-22 22:48 56K 
 sm1728.jpg 2016-02-22 22:48 56K 
 150340000701.jpg 2016-02-22 22:38 56K 
 hma09c004e.jpg 2016-02-22 22:43 56K 
 fl734581.jpg 2016-02-22 22:42 56K 
 k911kit.jpg 2016-02-22 22:43 56K 
 hma09c004w.jpg 2016-02-22 22:43 56K 
 hma09c004k.jpg 2016-02-22 22:43 56K 
 hma09c004.jpg 2016-02-22 22:43 56K 
 fl367530_1.jpg 2016-02-22 22:41 56K 
 xt0702120_1.jpg 2016-02-22 22:49 56K 
 354-0030.jpg 2016-02-22 22:38 56K 
 si05674240.jpg 2016-02-22 22:46 56K 
 si05672240.jpg 2016-02-22 22:46 56K 
 si20668990_2.jpg 2016-02-22 22:47 56K 
 si20667990_2.jpg 2016-02-22 22:47 56K 
 si05660990_2.jpg 2016-02-22 22:46 56K 
 fl367427.jpg 2016-02-22 22:41 56K 
 sm1506_sme_smith.jpg 2016-02-22 22:47 56K 
 sm1506.jpg 2016-02-22 22:47 56K 
 sm8053.jpg 2016-02-22 22:49 56K 
 mb101010-2.jpg 2016-02-22 22:44 56K 
 t36pr1c1s.jpg 2016-02-22 22:49 56K 
 sm8001.jpg 2016-02-22 22:49 56K 
 sm1966_fuel_v2_smith..>2016-02-22 22:48 56K 
 sm1966.jpg 2016-02-22 22:48 56K 
 fl367130.jpg 2016-02-22 22:41 56K 
 363551_2.jpg 2016-02-22 22:38 56K 
 si94126430_2.jpg 2016-02-22 22:47 56K 
 mg0722201.jpg 2016-02-22 22:44 56K 
 si96362185_3.jpg 2016-02-22 22:47 56K 
 si94116430_2.jpg 2016-02-22 22:47 56K 
 zu8920.jpg 2016-02-22 22:50 56K 
 si94101001_2.jpg 2016-02-22 22:47 56K 
 352-6056.jpg 2016-02-22 22:38 56K 
 fl3560209.jpg 2016-02-22 22:40 56K 
 fl367120_9.jpg 2016-02-22 22:41 56K 
 fl367938_1.jpg 2016-02-22 22:42 56K 
 xtrig-alu.jpg 2016-02-22 22:49 56K 
 AX1036_1.jpg 2016-02-22 22:39 56K 
 t36pr1c1l.jpg 2016-02-22 22:49 55K 
 zu8914.jpg 2016-02-22 22:50 55K 
 365321_1.jpg 2016-02-22 22:38 55K 
 zu9464.jpg 2016-02-22 22:50 55K 
 733637.jpg 2016-02-22 22:38 55K 
 fl368530.jpg 2016-02-22 22:42 55K 
 365-23034.jpg 2016-02-22 22:38 55K 
 xt0702120_3.jpg 2016-02-22 22:49 55K 
 8542560.jpg 2016-02-22 22:38 55K 
 8542559.jpg 2016-02-22 22:38 55K 
 fl368819.jpg 2016-02-22 22:42 55K 
 ax1193_1.jpg 2016-02-22 22:39 55K 
 ps8902.jpg 2016-02-22 22:45 55K 
 357008.jpg 2016-02-22 22:38 55K 
 fl285055_1.jpg 2016-02-22 22:40 55K 
 fl285055-1.jpg 2016-02-22 22:40 55K 
 fl357000.jpg 2016-02-22 22:40 55K 
 fl368734.jpg 2016-02-22 22:42 55K 
 354-0070.jpg 2016-02-22 22:38 55K 
 fl3520344.jpg 2016-02-22 22:40 55K 
 fl3609890.jpg 2016-02-22 22:40 55K 
 sm1969_fuel_v2_smith..>2016-02-22 22:48 55K 
 sm1969.jpg 2016-02-22 22:48 55K 
 fl121864_2.jpg 2016-02-22 22:40 55K 
 zu8928_2.jpg 2016-02-22 22:50 55K 
 sm1006_warp_smith.jpg 2016-02-22 22:47 55K 
 sm1006.jpg 2016-02-22 22:47 55K 
 fl367132_1.jpg 2016-02-22 22:41 55K 
 352-0164.jpg 2016-02-22 22:38 55K 
 fl3520458.jpg 2016-02-22 22:40 55K 
 sm1722_sonic_smith.jpg 2016-02-22 22:47 55K 
 sm1722.jpg 2016-02-22 22:47 55K 
 si20001780_3.jpg 2016-02-22 22:47 55K 
 fl734584.jpg 2016-02-22 22:42 55K 
 st7009mg25sw.jpg 2016-02-22 22:49 55K 
 zu4840.jpg 2016-02-22 22:50 55K 
 AX1176_1.jpg 2016-02-22 22:39 55K 
 zu8924.jpg 2016-02-22 22:50 55K 
 sm63411.jpg 2016-02-22 22:48 55K 
 mb101030-2.jpg 2016-02-22 22:44 55K 
 si20062985_3.jpg 2016-02-22 22:47 55K 
 zu8937w_3.jpg 2016-02-22 22:50 55K 
 fl367539_1.jpg 2016-02-22 22:41 55K 
 fl366730_1.jpg 2016-02-22 22:41 55K 
 fl3520530.jpg 2016-02-22 22:40 55K 
 sm63616.jpg 2016-02-22 22:48 55K 
 zu1930o.jpg 2016-02-22 22:50 55K 
 fl3510332_2.jpg 2016-02-22 22:40 55K 
 fgr100_1.jpg 2016-02-22 22:40 55K 
 as104020.jpg 2016-02-22 22:38 55K 
 zu9421.jpg 2016-02-22 22:50 55K 
 si20032985_2.jpg 2016-02-22 22:47 55K 
 fl3520459.jpg 2016-02-22 22:40 55K 
 150120000101.jpg 2016-02-22 22:38 55K 
 365228_2.jpg 2016-02-22 22:38 55K 
 sm62084.jpg 2016-02-22 22:48 55K 
 fl367638.jpg 2016-02-22 22:41 55K 
 fl367932.jpg 2016-02-22 22:42 55K 
 sm1978.jpg 2016-02-22 22:48 55K 
 sm1909_fuel_smith.jpg 2016-02-22 22:48 54K 
 sm1909.jpg 2016-02-22 22:48 54K 
 fl3580049.jpg 2016-02-22 22:40 54K 
 sm1907_fuel_smith.jpg 2016-02-22 22:48 54K 
 sm1907.jpg 2016-02-22 22:48 54K 
 fl3500294.jpg 2016-02-22 22:40 54K 
 fl350294.jpg 2016-02-22 22:40 54K 
 ps8008_2.jpg 2016-02-22 22:45 54K 
 110530002201.jpg 2016-02-22 22:36 54K 
 fl366620_2.jpg 2016-02-22 22:41 54K 
 sm2009_intake_smith.jpg2016-02-22 22:48 54K 
 sm2009.jpg 2016-02-22 22:48 54K 
 hmd1tna02.jpg 2016-02-22 22:43 54K 
 fl366438.jpg 2016-02-22 22:41 54K 
 as102010-1.jpg 2016-02-22 22:38 54K 
 AX1185_4.jpg 2016-02-22 22:39 54K 
 si20001460_3.jpg 2016-02-22 22:47 54K 
 fl3520058.jpg 2016-02-22 22:40 54K 
 fl368638.jpg 2016-02-22 22:42 54K 
 sm62082.jpg 2016-02-22 22:48 54K 
 re1345o.jpg 2016-02-22 22:45 54K 
 oh00053kit_1.jpg 2016-02-22 22:44 54K 
 sm1602_cme_smith.jpg 2016-02-22 22:47 54K 
 sm1602.jpg 2016-02-22 22:47 54K 
 zu1930r.jpg 2016-02-22 22:50 54K 
 xt7696.jpg 2016-02-22 22:49 54K 
 150340000901.jpg 2016-02-22 22:38 54K 
 zu9510.jpg 2016-02-22 22:50 54K 
 sm62064.jpg 2016-02-22 22:48 54K 
 fl366738_1.jpg 2016-02-22 22:41 54K 
 fl734024_1.jpg 2016-02-22 22:42 54K 
 fl734024-1.jpg 2016-02-22 22:42 54K 
 as104020-1.jpg 2016-02-22 22:38 54K 
 fl3580048.jpg 2016-02-22 22:40 54K 
 si05667990_3.jpg 2016-02-22 22:46 54K 
 si02102450_1.jpg 2016-02-22 22:46 54K 
 as103020-4.jpg 2016-02-22 22:38 54K 
 ohsusmi00_1.jpg 2016-02-22 22:44 54K 
 365-53034.jpg 2016-02-22 22:38 54K 
 fl3520692-2.jpg 2016-02-22 22:40 54K 
 fl3560249.jpg 2016-02-22 22:40 54K 
 zu4850w.jpg 2016-02-22 22:50 54K 
 ax1196_1.jpg 2016-02-22 22:39 54K 
 zu9550.jpg 2016-02-22 22:50 54K 
 fl3520419.jpg 2016-02-22 22:40 54K 
 sm1402_evo_smith.jpg 2016-02-22 22:47 54K 
 sm1402.jpg 2016-02-22 22:47 54K 
 352-0131.jpg 2016-02-22 22:38 54K 
 fl367432_1.jpg 2016-02-22 22:41 54K 
 fl3524060_1.jpg 2016-02-22 22:40 54K 
 se1406110_2.jpg 2016-02-22 22:46 54K 
 fl3526061_shirt_fly.jpg2016-02-22 22:40 54K 
 zu1298w.jpg 2016-02-22 22:50 54K 
 150340000601.jpg 2016-02-22 22:38 54K 
 sm2005_intake_smith.jpg2016-02-22 22:48 54K 
 sm2005.jpg 2016-02-22 22:48 54K 
 si94102185_3.jpg 2016-02-22 22:47 54K 
 fl367638_1.jpg 2016-02-22 22:41 54K 
 sm62086.jpg 2016-02-22 22:48 54K 
 fl3566079.jpg 2016-02-22 22:40 54K 
 fl3520695-2.jpg 2016-02-22 22:40 54K 
 fl3520321.jpg 2016-02-22 22:40 54K 
 sm63617.jpg 2016-02-22 22:48 54K 
 si07990990_2.jpg 2016-02-22 22:47 54K 
 fl3526080_2_shirt_fl..>2016-02-22 22:40 54K 
 re1383_1.jpg 2016-02-22 22:46 54K 
 fl3520330_2.jpg 2016-02-22 22:40 54K 
 fgrt301_2.jpg 2016-02-22 22:40 54K 
 ts55140520016.jpg 2016-02-22 22:49 54K 
 ts55130000180.jpg 2016-02-22 22:49 54K 
 fl366138_2.jpg 2016-02-22 22:41 54K 
 ohho122.jpg 2016-02-22 22:44 54K 
 fl734018_2.jpg 2016-02-22 22:42 54K 
 fl734018-2.jpg 2016-02-22 22:42 54K 
 ts55211000010.jpg 2016-02-22 22:49 54K 
 sm62088.jpg 2016-02-22 22:48 54K 
 sm62048.jpg 2016-02-22 22:48 54K 
 si01102240_1.jpg 2016-02-22 22:46 53K 
 ax1196_3.jpg 2016-02-22 22:39 53K 
 as104010-1.jpg 2016-02-22 22:38 53K 
 zu9462-1.jpg 2016-02-22 22:50 53K 
 fl362599-5.jpg 2016-02-22 22:41 53K 
 si07885240_2.jpg 2016-02-22 22:47 53K 
 365529_1.jpg 2016-02-22 22:38 53K 
 si95858001.jpg 2016-02-22 22:47 53K 
 365448_1.jpg 2016-02-22 22:38 53K 
 boyapc03qs.jpg 2016-02-22 22:39 53K 
 AX6082_3.jpg 2016-02-22 22:39 53K 
 si07892952_2.jpg 2016-02-22 22:47 53K 
 si07892952.jpg 2016-02-22 22:47 53K 
 fl367427_5.jpg 2016-02-22 22:41 53K 
 zu177773.jpg 2016-02-22 22:50 53K 
 zu9311.jpg 2016-02-22 22:50 53K 
 364-640.jpg 2016-02-22 22:38 53K 
 fl3524060.jpg 2016-02-22 22:40 53K 
 fl3520532-2.jpg 2016-02-22 22:40 53K 
 hydraulic-kit-mit-fe..>2016-02-22 22:43 53K 
 zu9537_12.jpg 2016-02-22 22:50 53K 
 fl3616083.jpg 2016-02-22 22:40 53K 
 fl3609375.jpg 2016-02-22 22:40 53K 
 fl733479.jpg 2016-02-22 22:42 53K 
 363564.jpg 2016-02-22 22:38 53K 
 si92102450_3.jpg 2016-02-22 22:47 53K 
 sm1968_fuel_v2_smith..>2016-02-22 22:48 53K 
 sm1968.jpg 2016-02-22 22:48 53K 
 hd159_1.jpg 2016-02-22 22:43 53K 
 sm62066.jpg 2016-02-22 22:48 53K 
 734040.jpg 2016-02-22 22:38 53K 
 cs54478_2.jpg 2016-02-22 22:39 53K 
 sm62022.jpg 2016-02-22 22:48 53K 
 sm2006_intake_smith.jpg2016-02-22 22:48 53K 
 sm2006.jpg 2016-02-22 22:48 53K 
 si01109240_1.jpg 2016-02-22 22:46 53K 
 sm1962_fuel_v2_smith..>2016-02-22 22:48 53K 
 sm1962.jpg 2016-02-22 22:48 53K 
 bmsmi10_1.jpg 2016-02-22 22:39 53K 
 fl285051_2.jpg 2016-02-22 22:40 53K 
 fl285051-2.jpg 2016-02-22 22:40 53K 
 si44461430.jpg 2016-02-22 22:47 53K 
 si93101185_3.jpg 2016-02-22 22:47 53K 
 sm1985_fuel_v2_smith..>2016-02-22 22:48 53K 
 sm1985.jpg 2016-02-22 22:48 53K 
 fl362579_1.jpg 2016-02-22 22:41 53K 
 si92101999_3.jpg 2016-02-22 22:47 53K 
 dd64098.jpg 2016-02-22 22:39 53K 
 ar1021.jpg 2016-02-22 22:38 53K 
 fl3540109_1.jpg 2016-02-22 22:40 53K 
 ho038_1.jpg 2016-02-22 22:43 53K 
 bmsmi10_5.jpg 2016-02-22 22:39 53K 
 fl734033_helm_fly.jpg 2016-02-22 22:42 53K 
 as103040-1.jpg 2016-02-22 22:38 53K 
 fl3566061.jpg 2016-02-22 22:40 53K 
 sm1967_fuel_v2_smith..>2016-02-22 22:48 53K 
 sm1967.jpg 2016-02-22 22:48 53K 
 AX1095_1.jpg 2016-02-22 22:39 53K 
 fl367130_1.jpg 2016-02-22 22:41 53K 
 fl285191.jpg 2016-02-22 22:40 53K 
 mobius-sizing2.jpg 2016-02-22 22:44 53K 
 fl357010.jpg 2016-02-22 22:40 53K 
 sm62046.jpg 2016-02-22 22:48 53K 
 AX1172_5.jpg 2016-02-22 22:39 53K 
 ohnismi10_1.jpg 2016-02-22 22:44 53K 
 fl366438_1.jpg 2016-02-22 22:41 53K 
 sm62053.jpg 2016-02-22 22:48 53K 
 fl3510082.jpg 2016-02-22 22:40 53K 
 hmt1pam34.jpg 2016-02-22 22:43 52K 
 zu9450.jpg 2016-02-22 22:50 52K 
 sm1005_warp_smith.jpg 2016-02-22 22:47 52K 
 sm1005.jpg 2016-02-22 22:47 52K 
 fl733623.jpg 2016-02-22 22:42 52K 
 sm1905_fuel_smith.jpg 2016-02-22 22:48 52K 
 sm1905.jpg 2016-02-22 22:48 52K 
 zudp51025.jpg 2016-02-22 22:50 52K 
 733635.jpg 2016-02-22 22:38 52K 
 fl367920_1.jpg 2016-02-22 22:42 52K 
 zu96114.jpg 2016-02-22 22:50 52K 
 3510180_1.jpg 2016-02-22 22:38 52K 
 AX1115_1.jpg 2016-02-22 22:39 52K 
 365529_2.jpg 2016-02-22 22:38 52K 
 fl3585050.jpg 2016-02-22 22:40 52K 
 150340000801.jpg 2016-02-22 22:38 52K 
 ritzel.jpg 2016-02-22 22:46 52K 
 sm63603.jpg 2016-02-22 22:48 52K 
 sm62081.jpg 2016-02-22 22:48 52K 
 mg0723058.jpg 2016-02-22 22:44 52K 
 110530002101.jpg 2016-02-22 22:36 52K 
 as103020-2.jpg 2016-02-22 22:38 52K 
 si04105981_1.jpg 2016-02-22 22:46 52K 
 si04101981_1.jpg 2016-02-22 22:46 52K 
 sm1902_fuel_smith.jpg 2016-02-22 22:48 52K 
 sm1902.jpg 2016-02-22 22:48 52K 
 sm63619.jpg 2016-02-22 22:49 52K 
 sm62078.jpg 2016-02-22 22:48 52K 
 me4456o.jpg 2016-02-22 22:44 52K 
 fl733492_1.jpg 2016-02-22 22:42 52K 
 fl733492-1.jpg 2016-02-22 22:42 52K 
 150190000101.jpg 2016-02-22 22:38 52K 
 fl364121.jpg 2016-02-22 22:41 52K 
 zu013010.jpg 2016-02-22 22:50 52K 
 352-0156.jpg 2016-02-22 22:38 52K 
 fl3585090.jpg 2016-02-22 22:40 52K 
 734023.jpg 2016-02-22 22:38 52K 
 si92121999_3.jpg 2016-02-22 22:47 52K 
 zu96355.jpg 2016-02-22 22:50 52K 
 3520200_1.jpg 2016-02-22 22:38 52K 
 as103020.jpg 2016-02-22 22:38 52K 
 si06620650_2.jpg 2016-02-22 22:46 52K 
 si06600650_2.jpg 2016-02-22 22:46 52K 
 zu9524.jpg 2016-02-22 22:50 52K 
 360-9855.jpg 2016-02-22 22:38 52K 
 si93102001_3.jpg 2016-02-22 22:47 52K 
 hma09c003.jpg 2016-02-22 22:43 52K 
 fl285024.jpg 2016-02-22 22:40 52K 
 fl285005_tasche_fly.jpg2016-02-22 22:40 52K 
 zu8921.jpg 2016-02-22 22:50 52K 
 sm2051_intake_sweatx..>2016-02-22 22:48 52K 
 sm2051.jpg 2016-02-22 22:48 52K 
 sm1981_fuel_v2_smith..>2016-02-22 22:48 52K 
 sm1981.jpg 2016-02-22 22:48 52K 
 nismi00_2.jpg 2016-02-22 22:44 52K 
 zu96209.jpg 2016-02-22 22:50 52K 
 as106051-1.jpg 2016-02-22 22:39 52K 
 si05674240_2.jpg 2016-02-22 22:46 52K 
 si05672240_2.jpg 2016-02-22 22:46 52K 
 fl734018.jpg 2016-02-22 22:42 52K 
 re1345r.jpg 2016-02-22 22:45 52K 
 fl367938_3.jpg 2016-02-22 22:42 52K 
 sm1721_sonic_smith.jpg 2016-02-22 22:47 52K 
 sm1721.jpg 2016-02-22 22:47 52K 
 si93101001_2.jpg 2016-02-22 22:47 52K 
 sm1724_sonic_smith.jpg 2016-02-22 22:48 52K 
 sm1724.jpg 2016-02-22 22:47 52K 
 fl3526040.jpg 2016-02-22 22:40 52K 
 150050000301.jpg 2016-02-22 22:38 52K 
 fl363567_1.jpg 2016-02-22 22:41 52K 
 zu4870_2.jpg 2016-02-22 22:50 52K 
 as104010.jpg 2016-02-22 22:38 52K 
 AX6059_2.jpg 2016-02-22 22:39 52K 
 xt0702120_2.jpg 2016-02-22 22:49 52K 
 365525_1.jpg 2016-02-22 22:38 52K 
 28-3095-intro3.jpg 2016-02-22 22:38 52K 
 si06600980_1.jpg 2016-02-22 22:46 51K 
 fl3566050_1.jpg 2016-02-22 22:40 51K 
 sm1976.jpg 2016-02-22 22:48 51K 
 fl3520059.jpg 2016-02-22 22:40 51K 
 hosmi30_6.jpg 2016-02-22 22:43 51K 
 733633.jpg 2016-02-22 22:38 51K 
 phds.jpg 2016-02-22 22:44 51K 
 as104010-2.jpg 2016-02-22 22:38 51K 
 fl3540190.jpg 2016-02-22 22:40 51K 
 zu1360.jpg 2016-02-22 22:50 51K 
 zu1298sw.jpg 2016-02-22 22:50 51K 
 ttxgp_1.jpg 2016-02-22 22:49 51K 
 si20032985_3.jpg 2016-02-22 22:47 51K 
 fl283050.jpg 2016-02-22 22:40 51K 
 fl3616070_2.jpg 2016-02-22 22:40 51K 
 fixclamp.jpg 2016-02-22 22:40 51K 
 fl285055.jpg 2016-02-22 22:40 51K 
 ohmismi10_2.jpg 2016-02-22 22:44 51K 
 as101040-2.jpg 2016-02-22 22:38 51K 
 733637_1.jpg 2016-02-22 22:38 51K 
 hms2rsbm4.jpg 2016-02-22 22:43 51K 
 sm1501_sme_smith.jpg 2016-02-22 22:47 51K 
 sm1501.jpg 2016-02-22 22:47 51K 
 zu8931.jpg 2016-02-22 22:50 51K 
 733632.jpg 2016-02-22 22:38 51K 
 fl357020_1.jpg 2016-02-22 22:40 51K 
 fl366230.jpg 2016-02-22 22:41 51K 
 fl3524054.jpg 2016-02-22 22:40 51K 
 fl36258910-3.jpg 2016-02-22 22:41 51K 
 fl362589-3.jpg 2016-02-22 22:41 51K 
 sm1601_cme_smith.jpg 2016-02-22 22:47 51K 
 sm1601.jpg 2016-02-22 22:47 51K 
 365230.jpg 2016-02-22 22:38 51K 
 as103010.jpg 2016-02-22 22:38 51K 
 364-628-8.jpg 2016-02-22 22:38 51K 
 fl366638_1.jpg 2016-02-22 22:41 51K 
 cs54407_2.jpg 2016-02-22 22:39 51K 
 se1406110_1.jpg 2016-02-22 22:46 51K 
 se1406110.jpg 2016-02-22 22:46 51K 
 fl362590-2.jpg 2016-02-22 22:41 51K 
 285001.jpg 2016-02-22 22:38 51K 
 ax1250_4.jpg 2016-02-22 22:39 51K 
 ps800341.jpg 2016-02-22 22:45 51K 
 sm1957_2_fuel_smith.jpg2016-02-22 22:48 51K 
 sm1957_2.jpg 2016-02-22 22:48 51K 
 sm1956_2_fuel_smith.jpg2016-02-22 22:48 51K 
 sm1956_2.jpg 2016-02-22 22:48 51K 
 fl365122_2_hemd_fly.jpg2016-02-22 22:41 51K 
 fl3609801_12.jpg 2016-02-22 22:40 51K 
 si05669990.jpg 2016-02-22 22:46 51K 
 si05668990.jpg 2016-02-22 22:46 51K 
 gttcark_1.jpg 2016-02-22 22:43 51K 
 si02105450_1.jpg 2016-02-22 22:46 51K 
 si02101450_1.jpg 2016-02-22 22:46 51K 
 sm1979.jpg 2016-02-22 22:48 51K 
 tu2027kit.jpg 2016-02-22 22:49 51K 
 si92102999_3.jpg 2016-02-22 22:47 51K 
 AX1094_3.jpg 2016-02-22 22:39 51K 
 sm2050_intake_sweatx..>2016-02-22 22:48 51K 
 sm2050.jpg 2016-02-22 22:48 51K 
 fl357017.jpg 2016-02-22 22:40 51K 
 fl365538_2.jpg 2016-02-22 22:41 51K 
 si03104990_2.jpg 2016-02-22 22:46 51K 
 boyapc3.jpg 2016-02-22 22:39 51K 
 fl285022.jpg 2016-02-22 22:40 51K 
 365448_2.jpg 2016-02-22 22:38 51K 
 fl367637_1.jpg 2016-02-22 22:41 51K 
 fl3616080m.jpg 2016-02-22 22:40 51K 
 si20620650_2.jpg 2016-02-22 22:47 51K 
 si20600650_2.jpg 2016-02-22 22:47 51K 
 fl362579_2.jpg 2016-02-22 22:41 51K 
 zu9550_2.jpg 2016-02-22 22:50 51K 
 nismi00_1.jpg 2016-02-22 22:44 51K 
 fl3520320.jpg 2016-02-22 22:40 51K 
 sm1901_fuel_smith.jpg 2016-02-22 22:48 51K 
 sm1901.jpg 2016-02-22 22:48 51K 
 ps8007r_1.jpg 2016-02-22 22:45 51K 
 zu1920g.jpg 2016-02-22 22:50 51K 
 sm1961_fuel_v2_smith..>2016-02-22 22:48 51K 
 sm1961.jpg 2016-02-22 22:48 51K 
 si67443021.jpg 2016-02-22 22:47 51K 
 fl3585095.jpg 2016-02-22 22:40 51K 
 re1441.jpg 2016-02-22 22:46 51K 
 as103010-1.jpg 2016-02-22 22:38 51K 
 usahs2510.jpg 2016-02-22 22:49 51K 
 as104050-2.jpg 2016-02-22 22:38 51K 
 AX1037_3.jpg 2016-02-22 22:39 51K 
 fl285051_1.jpg 2016-02-22 22:40 51K 
 fl285051-1.jpg 2016-02-22 22:40 51K 
 fl362579.jpg 2016-02-22 22:41 51K 
 fl730001.jpg 2016-02-22 22:42 50K 
 fl3546030.jpg 2016-02-22 22:40 50K 
 AX1099_3.jpg 2016-02-22 22:39 50K 
 fl366332_2.jpg 2016-02-22 22:41 50K 
 si94121021_3.jpg 2016-02-22 22:47 50K 
 ohya359.jpg 2016-02-22 22:44 50K 
 re1418.jpg 2016-02-22 22:46 50K 
 358-0020.jpg 2016-02-22 22:38 50K 
 dd48w98.jpg 2016-02-22 22:39 50K 
 si94101107_3.jpg 2016-02-22 22:47 50K 
 si02105360_1.jpg 2016-02-22 22:46 50K 
 si02101360_1.jpg 2016-02-22 22:46 50K 
 sm1996.jpg 2016-02-22 22:48 50K 
 zu9462-2.jpg 2016-02-22 22:50 50K 
 zu1920o.jpg 2016-02-22 22:50 50K 
 fl366231_2.jpg 2016-02-22 22:41 50K 
 fl366232_2.jpg 2016-02-22 22:41 50K 
 zu9538_2.jpg 2016-02-22 22:50 50K 
 si01105981_1.jpg 2016-02-22 22:46 50K 
 si01101981_1.jpg 2016-02-22 22:46 50K 
 110190004701.jpg 2016-02-22 22:36 50K 
 110190004201.jpg 2016-02-22 22:36 50K 
 110190002601.jpg 2016-02-22 22:36 50K 
 110190001601.jpg 2016-02-22 22:36 50K 
 734044.jpg 2016-02-22 22:38 50K 
 fl364122.jpg 2016-02-22 22:41 50K 
 si85840185.jpg 2016-02-22 22:47 50K 
 fl3540021.jpg 2016-02-22 22:40 50K 
 fl285060.jpg 2016-02-22 22:40 50K 
 sm2026_intake_graphi..>2016-02-22 22:48 50K 
 sm2026.jpg 2016-02-22 22:48 50K 
 ohho429.jpg 2016-02-22 22:44 50K 
 365321_2.jpg 2016-02-22 22:38 50K 
 sm63413.jpg 2016-02-22 22:48 50K 
 AX1087_2.jpg 2016-02-22 22:39 50K 
 fl3609855_1_hose_fly..>2016-02-22 22:40 50K 
 stfhqm030.jpg 2016-02-22 22:49 50K 
 stfhqm010.jpg 2016-02-22 22:49 50K 
 fl367639_1.jpg 2016-02-22 22:41 50K 
 si94121107_3.jpg 2016-02-22 22:47 50K 
 zu2051.jpg 2016-02-22 22:50 50K 
 si02105360_2.jpg 2016-02-22 22:46 50K 
 si02101360_2.jpg 2016-02-22 22:46 50K 
 fl3500270.jpg 2016-02-22 22:40 50K 
 fl362599-2.jpg 2016-02-22 22:41 50K 
 fl3520410.jpg 2016-02-22 22:40 50K 
 fl3580084.jpg 2016-02-22 22:40 50K 
 ttxgp_3.jpg 2016-02-22 22:49 50K 
 fl36258910-2.jpg 2016-02-22 22:41 50K 
 fl362589-2.jpg 2016-02-22 22:41 50K 
 sm1983_fuel_v2_smith..>2016-02-22 22:48 50K 
 sm1983.jpg 2016-02-22 22:48 50K 
 zu8950.jpg 2016-02-22 22:50 50K 
 AX1093_3.jpg 2016-02-22 22:39 50K 
 si01102450_1.jpg 2016-02-22 22:46 50K 
 fl3609351.jpg 2016-02-22 22:40 50K 
 fl365221_1_hemd_fly.jpg2016-02-22 22:41 50K 
 fl362575.jpg 2016-02-22 22:41 50K 
 sm63613.jpg 2016-02-22 22:48 50K 
 S46HR1C1_3.jpg 2016-02-22 22:46 50K 
 ps7116.jpg 2016-02-22 22:45 50K 
 fl481626-3.jpg 2016-02-22 22:42 50K 
 zu8911.jpg 2016-02-22 22:50 50K 
 fgr100_2.jpg 2016-02-22 22:40 50K 
 fl3520242.jpg 2016-02-22 22:40 50K 
 365418_1.jpg 2016-02-22 22:38 50K 
 zu1920r.jpg 2016-02-22 22:50 50K 
 fl7346305.jpg 2016-02-22 22:42 50K 
 kt525.jpg 2016-02-22 22:44 49K 
 ps7115.jpg 2016-02-22 22:45 49K 
 stfhqm020.jpg 2016-02-22 22:49 49K 
 fl366130.jpg 2016-02-22 22:41 49K 
 AX6086_3.jpg 2016-02-22 22:39 49K 
 sm1002_warp_smith.jpg 2016-02-22 22:47 49K 
 sm1002.jpg 2016-02-22 22:47 49K 
 zu96203.jpg 2016-02-22 22:50 49K 
 KineticInvRdBk_front..>2016-02-22 22:43 49K 
 fl3560196.jpg 2016-02-22 22:40 49K 
 fl3520691-2.jpg 2016-02-22 22:40 49K 
 fl352-0691-2.jpg 2016-02-22 22:40 49K 
 fl366638_2.jpg 2016-02-22 22:41 49K 
 zu1930s.jpg 2016-02-22 22:50 49K 
 fl7346303.jpg 2016-02-22 22:42 49K 
 fl3566078.jpg 2016-02-22 22:40 49K 
 ps84553o.jpg 2016-02-22 22:45 49K 
 zu9564.jpg 2016-02-22 22:50 49K 
 mg0720853.jpg 2016-02-22 22:44 49K 
 sm1972.jpg 2016-02-22 22:48 49K 
 365110_1.jpg 2016-02-22 22:38 49K 
 AX1120_2.jpg 2016-02-22 22:39 49K 
 sm63618.jpg 2016-02-22 22:49 49K 
 zu1606_1.jpg 2016-02-22 22:50 49K 
 fl365529_1_hemd_fly.jpg2016-02-22 22:41 49K 
 xt0409130801ka.jpg 2016-02-22 22:49 49K 
 fl365229_2_hemd_fly.jpg2016-02-22 22:41 49K 
 364-620-8.jpg 2016-02-22 22:38 49K 
 AX6065_1.jpg 2016-02-22 22:39 49K 
 zu8931_1.jpg 2016-02-22 22:50 49K 
 as102020-1.jpg 2016-02-22 22:38 49K 
 sm63614.jpg 2016-02-22 22:48 49K 
 sm1965_fuel_v2_smith..>2016-02-22 22:48 49K 
 sm1965.jpg 2016-02-22 22:48 49K 
 relv116_2.jpg 2016-02-22 22:46 49K 
 relv112_2.jpg 2016-02-22 22:46 49K 
 si02102450_2.jpg 2016-02-22 22:46 49K 
 358-5010.jpg 2016-02-22 22:38 49K 
 ps7114.jpg 2016-02-22 22:45 49K 
 365448_3.jpg 2016-02-22 22:38 49K 
 as102020.jpg 2016-02-22 22:38 49K 
 fl3520618.jpg 2016-02-22 22:40 49K 
 fl3616086.jpg 2016-02-22 22:40 49K 
 sm1971.jpg 2016-02-22 22:48 49K 
 fl3616070_3.jpg 2016-02-22 22:40 49K 
 fl739142.jpg 2016-02-22 22:43 49K 
 si04102450_2.jpg 2016-02-22 22:46 49K 
 sm1997.jpg 2016-02-22 22:48 49K 
 sm2026_2_intake_grap..>2016-02-22 22:48 49K 
 sm2026_2.jpg 2016-02-22 22:48 49K 
 si06620980_1.jpg 2016-02-22 22:46 49K 
 fgrt_black2.jpg 2016-02-22 22:40 49K 
 si94101185_3.jpg 2016-02-22 22:47 49K 
 vwsmi00_2.jpg 2016-02-22 22:49 49K 
 sm61040_2.jpg 2016-02-22 22:48 49K 
 fl739151.JPG 2016-02-22 22:43 49K 
 KineticRSWtOr_back.jpg 2016-02-22 22:43 49K 
 si20669990_2.jpg 2016-02-22 22:47 49K 
 sm62173.jpg 2016-02-22 22:48 49K 
 733484.jpg 2016-02-22 22:38 49K 
 KineticInvGrBk_front..>2016-02-22 22:43 49K 
 fl365211_handschuhe_..>2016-02-22 22:41 49K 
 si02102943_1.jpg 2016-02-22 22:46 49K 
 fl364121_1.jpg 2016-02-22 22:41 49K 
 fl364121-1.jpg 2016-02-22 22:41 49K 
 bm679_2.jpg 2016-02-22 22:39 49K 
 bm677_2.jpg 2016-02-22 22:39 49K 
 atk110.jpg 2016-02-22 22:39 49K 
 sm2008_intake_smith.jpg2016-02-22 22:48 49K 
 sm2008.jpg 2016-02-22 22:48 49K 
 si20648990_2.jpg 2016-02-22 22:47 49K 
 733631.jpg 2016-02-22 22:38 49K 
 zu1925_3.jpg 2016-02-22 22:50 49K 
 zu1920b.jpg 2016-02-22 22:50 49K 
 fl373026-1.jpg 2016-02-22 22:42 49K 
 fl373021-1.jpg 2016-02-22 22:42 49K 
 re1335or.jpg 2016-02-22 22:45 49K 
 si02102650_1.jpg 2016-02-22 22:46 49K 
 zu9570.jpg 2016-02-22 22:50 49K 
 si20001460_2.jpg 2016-02-22 22:47 49K 
 po20063-1.jpg 2016-02-22 22:44 49K 
 fl3570269-1.jpg 2016-02-22 22:40 49K 
 sr21_3.jpg 2016-02-22 22:49 49K 
 si93121021_3.jpg 2016-02-22 22:47 49K 
 sm63615.jpg 2016-02-22 22:48 49K 
 fl364221.jpg 2016-02-22 22:41 49K 
 364-64834.jpg 2016-02-22 22:38 48K 
 pfcarbon.jpg 2016-02-22 22:44 48K 
 si20652990_2.jpg 2016-02-22 22:47 48K 
 si20651990_2.jpg 2016-02-22 22:47 48K 
 si20650990_2.jpg 2016-02-22 22:47 48K 
 zu1277.jpg 2016-02-22 22:50 48K 
 sm3024.jpg 2016-02-22 22:48 48K 
 fl3520412.jpg 2016-02-22 22:40 48K 
 AX1088_3.jpg 2016-02-22 22:39 48K 
 sm2024_intake_graphi..>2016-02-22 22:48 48K 
 sm2024.jpg 2016-02-22 22:48 48K 
 LiteHydrogen_front.jpg 2016-02-22 22:44 48K 
 LiteHydrogenRed_fron..>2016-02-22 22:44 48K 
 fl364224.jpg 2016-02-22 22:41 48K 
 me4456g.jpg 2016-02-22 22:44 48K 
 3510186_1.jpg 2016-02-22 22:38 48K 
 zu8902_2.jpg 2016-02-22 22:50 48K 
 mw2.jpg 2016-02-22 22:44 48K 
 fl367800.jpg 2016-02-22 22:41 48K 
 re1345b.jpg 2016-02-22 22:45 48K 
 sm2025_intake_graphi..>2016-02-22 22:48 48K 
 sm2025.jpg 2016-02-22 22:48 48K 
 tu1031_2.jpg 2016-02-22 22:49 48K 
 733482.jpg 2016-02-22 22:38 48K 
 fl365228_1_hemd_fly.jpg2016-02-22 22:41 48K 
 AX1096_3.jpg 2016-02-22 22:39 48K 
 kt25520710.jpg 2016-02-22 22:44 48K 
 8538310.jpg 2016-02-22 22:38 48K 
 si06600650_1.jpg 2016-02-22 22:46 48K 
 si98410001.jpg 2016-02-22 22:47 48K 
 me9718.jpg 2016-02-22 22:44 48K 
 fl3560199.jpg 2016-02-22 22:40 48K 
 fl733475.jpg 2016-02-22 22:42 48K 
 sm1405_evo_smith.jpg 2016-02-22 22:47 48K 
 sm1405.jpg 2016-02-22 22:47 48K 
 sm2001_intake_smith.jpg2016-02-22 22:48 48K 
 sm2001.jpg 2016-02-22 22:48 48K 
 fl364111.jpg 2016-02-22 22:41 48K 
 si06600450_2.jpg 2016-02-22 22:46 48K 
 zu9538_3.jpg 2016-02-22 22:50 48K 
 si93101021_3.jpg 2016-02-22 22:47 48K 
 ax1254.jpg 2016-02-22 22:39 48K 
 fl734022_helm_fly.jpg 2016-02-22 22:42 48K 
 fl3609855_2_hose_fly..>2016-02-22 22:40 48K 
 fl733472.jpg 2016-02-22 22:42 48K 
 si06620650_1.jpg 2016-02-22 22:46 48K 
 fl3580031_2_pulli_fl..>2016-02-22 22:40 48K 
 as102010-2.jpg 2016-02-22 22:38 48K 
 ps1026.jpg 2016-02-22 22:44 48K 
 S46ER1S.jpg 2016-02-22 22:46 48K 
 si04102240_1.jpg 2016-02-22 22:46 48K 
 fl366814.jpg 2016-02-22 22:41 48K 
 xt8713ho.jpg 2016-02-22 22:49 48K 
 hosmi20_1.jpg 2016-02-22 22:43 48K 
 fgr100_3.jpg 2016-02-22 22:40 48K 
 ts55217000010.jpg 2016-02-22 22:49 48K 
 ts55216001001.jpg 2016-02-22 22:49 48K 
 ts55216000001.jpg 2016-02-22 22:49 48K 
 si91125021_2.jpg 2016-02-22 22:47 48K 
 si91115021_2.jpg 2016-02-22 22:47 48K 
 re1381_1.jpg 2016-02-22 22:46 48K 
 ps8901-1.jpg 2016-02-22 22:45 48K 
 fl365135_1_hose_fly.jpg2016-02-22 22:41 48K 
 zu8924_1.jpg 2016-02-22 22:50 48K 
 fl366430.jpg 2016-02-22 22:41 48K 
 S46DR1S.jpg 2016-02-22 22:46 48K 
 ps7113.jpg 2016-02-22 22:45 48K 
 si20956.jpg 2016-02-22 22:47 48K 
 sm63612.jpg 2016-02-22 22:48 48K 
 fl3540080_1_jacke_fl..>2016-02-22 22:40 48K 
 fl3566050.jpg 2016-02-22 22:40 48K 
 bmsmi10_3.jpg 2016-02-22 22:39 48K 
 cs54027_2.jpg 2016-02-22 22:39 48K 
 AX6065_2.jpg 2016-02-22 22:39 48K 
 S46HR1C1_1.jpg 2016-02-22 22:46 48K 
 fl7346306.jpg 2016-02-22 22:42 48K 
 fl365222_1_hemd_fly.jpg2016-02-22 22:41 48K 
 sm1001_warp_smith.jpg 2016-02-22 22:47 48K 
 sm1001.jpg 2016-02-22 22:47 48K 
 S46PR1C1LS.jpg 2016-02-22 22:46 48K 
 si06620350_2.jpg 2016-02-22 22:46 48K 
 si06600350_2.jpg 2016-02-22 22:46 48K 
 150290001201.jpg 2016-02-22 22:38 48K 
 ohho320.jpg 2016-02-22 22:44 48K 
 fl363567_3.jpg 2016-02-22 22:41 48K 
 zu159000.jpg 2016-02-22 22:50 48K 
 fl3631109_1.jpg 2016-02-22 22:41 48K 
 fl3631109-1.jpg 2016-02-22 22:41 48K 
 365218_1.jpg 2016-02-22 22:38 48K 
 fl364128.jpg 2016-02-22 22:41 48K 
 KineticRSBlWt_back.jpg 2016-02-22 22:43 48K 
 mg2700178.jpg 2016-02-22 22:44 48K 
 ttxgp.jpg 2016-02-22 22:49 48K 
 zu9511.jpg 2016-02-22 22:50 48K 
 fl3585050_1.jpg 2016-02-22 22:40 48K 
 150130000101.jpg 2016-02-22 22:38 48K 
 fl3540081_2_jacke_fl..>2016-02-22 22:40 48K 
 rk73044.jpg 2016-02-22 22:46 48K 
 fl3526124.jpg 2016-02-22 22:40 48K 
 si01105360_1.jpg 2016-02-22 22:46 47K 
 si01101360_1.jpg 2016-02-22 22:46 47K 
 fl733623_1.jpg 2016-02-22 22:42 47K 
 fl733623-1.jpg 2016-02-22 22:42 47K 
 si20600450_2.jpg 2016-02-22 22:47 47K 
 fl3566020.jpg 2016-02-22 22:40 47K 
 sm62085.jpg 2016-02-22 22:48 47K 
 sm1403_evo_smith.jpg 2016-02-22 22:47 47K 
 sm1403.jpg 2016-02-22 22:47 47K 
 si20652990_3.jpg 2016-02-22 22:47 47K 
 si20651990_3.jpg 2016-02-22 22:47 47K 
 si20650990_3.jpg 2016-02-22 22:47 47K 
 3520170.jpg 2016-02-22 22:38 47K 
 si02105430_1.jpg 2016-02-22 22:46 47K 
 si02101430_1.jpg 2016-02-22 22:46 47K 
 KineticInvBlBk_back.jpg2016-02-22 22:43 47K 
 cs56464_1.jpg 2016-02-22 22:39 47K 
 zu96202.jpg 2016-02-22 22:50 47K 
 fl3546016.jpg 2016-02-22 22:40 47K 
 fl3540013.jpg 2016-02-22 22:40 47K 
 fl366430_1.jpg 2016-02-22 22:41 47K 
 dd24099.jpg 2016-02-22 22:39 47K 
 sm70211-2.jpg 2016-02-22 22:49 47K 
 si20001780_2.jpg 2016-02-22 22:47 47K 
 kt30sskschs1.jpg 2016-02-22 22:44 47K 
 si01105450_1.jpg 2016-02-22 22:46 47K 
 si01101450_1.jpg 2016-02-22 22:46 47K 
 sm62077.jpg 2016-02-22 22:48 47K 
 ax1262_3.jpg 2016-02-22 22:39 47K 
 fl364-213.jpg 2016-02-22 22:41 47K 
 fl364225.jpg 2016-02-22 22:41 47K 
 szsmi00_1.jpg 2016-02-22 22:49 47K 
 365135.jpg 2016-02-22 22:38 47K 
 fl3540021_1.jpg 2016-02-22 22:40 47K 
 fl3540021-1.jpg 2016-02-22 22:40 47K 
 AX1094_1.jpg 2016-02-22 22:39 47K 
 AX1093_1.jpg 2016-02-22 22:39 47K 
 si20044990_2.jpg 2016-02-22 22:47 47K 
 si95840999.jpg 2016-02-22 22:47 47K 
 KineticRSBlWt_front.jpg2016-02-22 22:43 47K 
 sm1975.jpg 2016-02-22 22:48 47K 
 ps8001_1.jpg 2016-02-22 22:45 47K 
 fl3520065_1.jpg 2016-02-22 22:40 47K 
 fl3520065-1.jpg 2016-02-22 22:40 47K 
 kt24511520.jpg 2016-02-22 22:44 47K 
 fl364211.jpg 2016-02-22 22:41 47K 
 fl367221.jpg 2016-02-22 22:41 47K 
 si20673240.jpg 2016-02-22 22:47 47K 
 ps7004.jpg 2016-02-22 22:45 47K 
 hmt1rbau0.jpg 2016-02-22 22:43 47K 
 AX6079_2.jpg 2016-02-22 22:39 47K 
 cm5217.jpg 2016-02-22 22:39 47K 
 734039.jpg 2016-02-22 22:38 47K 
 si02105450_2.jpg 2016-02-22 22:46 47K 
 si02101450_2.jpg 2016-02-22 22:46 47K 
 hmr1tsam6.jpg 2016-02-22 22:43 47K 
 hmr1tsam2.jpg 2016-02-22 22:43 47K 
 hmr1tsam1.jpg 2016-02-22 22:43 47K 
 AX1103_3.jpg 2016-02-22 22:39 47K 
 fl3540058_2_jacke_fl..>2016-02-22 22:40 47K 
 fl3540058_1.jpg 2016-02-22 22:40 47K 
 fl733473.jpg 2016-02-22 22:42 47K 
 sm1974.jpg 2016-02-22 22:48 47K 
 fl733479_1.jpg 2016-02-22 22:42 47K 
 fl733479-1.jpg 2016-02-22 22:42 47K 
 ps8903.jpg 2016-02-22 22:45 47K 
 fl3526075_shirt_fly.jpg2016-02-22 22:40 47K 
 KineticInvBlBk_front..>2016-02-22 22:43 47K 
 re1335y.jpg 2016-02-22 22:45 47K 
 cm5215.jpg 2016-02-22 22:39 47K 
 KineticInvRdBk_back.jpg2016-02-22 22:43 47K 
 sm1603_cme_smith.jpg 2016-02-22 22:47 47K 
 sm1603.jpg 2016-02-22 22:47 47K 
 si91125021_1.jpg 2016-02-22 22:47 47K 
 si91125021.jpg 2016-02-22 22:47 47K 
 si91115021_1.jpg 2016-02-22 22:47 47K 
 734045.jpg 2016-02-22 22:38 47K 
 si02105650_1.jpg 2016-02-22 22:46 47K 
 si02101650_1.jpg 2016-02-22 22:46 47K 
 8538308_2.jpg 2016-02-22 22:38 47K 
 st1.jpg 2016-02-22 22:49 47K 
 fl365225_1_hemd_fly.jpg2016-02-22 22:41 47K 
 fl3616072_3.jpg 2016-02-22 22:40 47K 
 fl3616072-3.jpg 2016-02-22 22:40 47K 
 8538309_2.jpg 2016-02-22 22:38 47K 
 8538307_2.jpg 2016-02-22 22:38 47K 
 8538306_2.jpg 2016-02-22 22:38 47K 
 8538305_2.jpg 2016-02-22 22:38 47K 
 fl3540058_1_jacke_fl..>2016-02-22 22:40 47K 
 fl3540058.jpg 2016-02-22 22:40 47K 
 si20620350_2.jpg 2016-02-22 22:47 47K 
 si20600350_2.jpg 2016-02-22 22:47 47K 
 oh019207.jpg 2016-02-22 22:44 47K 
 xt9195018.jpg 2016-02-22 22:49 47K 
 110460000101.jpg 2016-02-22 22:36 47K 
 285010.jpg 2016-02-22 22:38 47K 
 AX1115_3.jpg 2016-02-22 22:39 47K 
 zu4840_2.jpg 2016-02-22 22:50 47K 
 si20620650_3.jpg 2016-02-22 22:47 47K 
 si20600650_3.jpg 2016-02-22 22:47 47K 
 si01101-185.jpg 2016-02-22 22:46 47K 
 hosmi20_3.jpg 2016-02-22 22:43 47K 
 sm62075.jpg 2016-02-22 22:48 47K 
 sr21_1.jpg 2016-02-22 22:49 47K 
 fl366638_3.jpg 2016-02-22 22:41 47K 
 si20044650_2.jpg 2016-02-22 22:47 47K 
 zu9571.jpg 2016-02-22 22:50 47K 
 ps8002400012.jpg 2016-02-22 22:45 47K 
 zu9537_11.jpg 2016-02-22 22:50 47K 
 kin-mesh-intro.jpg 2016-02-22 22:43 47K 
 zu96365_2.jpg 2016-02-22 22:50 47K 
 ps60027.jpg 2016-02-22 22:45 47K 
 fl368534.jpg 2016-02-22 22:42 47K 
 as103050-2.jpg 2016-02-22 22:38 47K 
 fl363553_stiefel_fly..>2016-02-22 22:41 47K 
 si05673240.jpg 2016-02-22 22:46 47K 
 ps7112.jpg 2016-02-22 22:45 47K 
 si37105430.jpg 2016-02-22 22:47 47K 
 KineticMeshRSRdWt_fr..>2016-02-22 22:43 46K 
 cs58904_1.jpg 2016-02-22 22:39 46K 
 ps8008b.jpg 2016-02-22 22:45 46K 
 fl734019_1.jpg 2016-02-22 22:42 46K 
 fl734019-1.jpg 2016-02-22 22:42 46K 
 re1335r.jpg 2016-02-22 22:45 46K 
 fl3564014.jpg 2016-02-22 22:40 46K 
 fl364218.jpg 2016-02-22 22:41 46K 
 fl367040.jpg 2016-02-22 22:41 46K 
 fl734021.jpg 2016-02-22 22:42 46K 
 se1406122.jpg 2016-02-22 22:46 46K 
 pf7524xxyy.jpg 2016-02-22 22:44 46K 
 br07su14xx.jpg 2016-02-22 22:39 46K 
 si94121286_3.jpg 2016-02-22 22:47 46K 
 fl739152.jpg 2016-02-22 22:43 46K 
 KineticRSBkRdBl_fron..>2016-02-22 22:43 46K 
 cs58884_1.jpg 2016-02-22 22:39 46K 
 8538288.jpg 2016-02-22 22:38 46K 
 8538287.jpg 2016-02-22 22:38 46K 
 8538286.jpg 2016-02-22 22:38 46K 
 8538285.jpg 2016-02-22 22:38 46K 
 8538284.jpg 2016-02-22 22:38 46K 
 8538283.jpg 2016-02-22 22:38 46K 
 365320_3.jpg 2016-02-22 22:38 46K 
 dd3101012.jpg 2016-02-22 22:39 46K 
 AX1088_2.jpg 2016-02-22 22:39 46K 
 fl364214.jpg 2016-02-22 22:41 46K 
 734032.jpg 2016-02-22 22:38 46K 
 fl7346301.jpg 2016-02-22 22:42 46K 
 365320_2.jpg 2016-02-22 22:38 46K 
 zu159030.jpg 2016-02-22 22:50 46K 
 fl734040_helm_fly.jpg 2016-02-22 22:42 46K 
 fl3580050.jpg 2016-02-22 22:40 46K 
 as105030-2.jpg 2016-02-22 22:39 46K 
 dd63099.jpg 2016-02-22 22:39 46K 
 fl353027.jpg 2016-02-22 22:40 46K 
 sm2002_intake_smith.jpg2016-02-22 22:48 46K 
 sm2002.jpg 2016-02-22 22:48 46K 
 si94101286_3.jpg 2016-02-22 22:47 46K 
 zu2044.jpg 2016-02-22 22:50 46K 
 fl734024_2.jpg 2016-02-22 22:42 46K 
 fl734024-2.jpg 2016-02-22 22:42 46K 
 365130.jpg 2016-02-22 22:38 46K 
 fl734021_1.jpg 2016-02-22 22:42 46K 
 fl734021-1.jpg 2016-02-22 22:42 46K 
 fl481626-2.jpg 2016-02-22 22:42 46K 
 si01105430_1.jpg 2016-02-22 22:46 46K 
 si01101430_1.jpg 2016-02-22 22:46 46K 
 ps2050g.jpg 2016-02-22 22:44 46K 
 fl739153-2.jpg 2016-02-22 22:43 46K 
 sm8057.jpg 2016-02-22 22:49 46K 
 fl365130_hose_fly.jpg 2016-02-22 22:41 46K 
 fl367411.jpg 2016-02-22 22:41 46K 
 ps7031.jpg 2016-02-22 22:45 46K 
 S36E.jpg 2016-02-22 22:46 46K 
 mo161007_1.jpg 2016-02-22 22:44 46K 
 si02105430_2.jpg 2016-02-22 22:46 46K 
 si02101430_2.jpg 2016-02-22 22:46 46K 
 ohtr338.jpg 2016-02-22 22:44 46K 
 fl3566069.jpg 2016-02-22 22:40 46K 
 brxa69510.jpg 2016-02-22 22:39 46K 
 fl3560164.jpg 2016-02-22 22:40 46K 
 as101020.jpg 2016-02-22 22:38 46K 
 AX1087_3.jpg 2016-02-22 22:39 46K 
 sm2027_2_intake_grap..>2016-02-22 22:48 46K 
 sm2027_2.jpg 2016-02-22 22:48 46K 
 si04105991_2.jpg 2016-02-22 22:46 46K 
 si04101991_2.jpg 2016-02-22 22:46 46K 
 zu9518.jpg 2016-02-22 22:50 46K 
 fl364118.jpg 2016-02-22 22:41 46K 
 si04105991_1.jpg 2016-02-22 22:46 46K 
 si04101991_1.jpg 2016-02-22 22:46 46K 
 fl3616073_3.jpg 2016-02-22 22:40 46K 
 fl3616073-3.jpg 2016-02-22 22:40 46K 
 283090.jpg 2016-02-22 22:38 46K 
 ls103963011.jpg 2016-02-22 22:44 46K 
 ps8920.jpg 2016-02-22 22:45 46K 
 re305520.jpg 2016-02-22 22:46 46K 
 sm62079.jpg 2016-02-22 22:48 46K 
 si01103-355.jpg 2016-02-22 22:46 46K 
 fl3540081_1_jacke_fl..>2016-02-22 22:40 46K 
 fl365125_1_hemd_fly.jpg2016-02-22 22:41 46K 
 as103010-2.jpg 2016-02-22 22:38 46K 
 fl364112.jpg 2016-02-22 22:41 46K 
 fl3526120.jpg 2016-02-22 22:40 46K 
 hmr1psam6.jpg 2016-02-22 22:43 46K 
 hmr1psam5.jpg 2016-02-22 22:43 46K 
 hmr1psam4.jpg 2016-02-22 22:43 46K 
 hmr1psam3.jpg 2016-02-22 22:43 46K 
 hmr1psam2.jpg 2016-02-22 22:43 46K 
 hmr1psam1.jpg 2016-02-22 22:43 46K 
 LiteHydrogenBlue_bac..>2016-02-22 22:44 46K 
 KineticInvGrBk_back.jpg2016-02-22 22:43 46K 
 ls305601012.jpg 2016-02-22 22:44 46K 
 fl7346304.jpg 2016-02-22 22:42 46K 
 AX1101_1.jpg 2016-02-22 22:39 46K 
 si04102450_1.jpg 2016-02-22 22:46 46K 
 si06620650_3.jpg 2016-02-22 22:46 46K 
 si06600650_3.jpg 2016-02-22 22:46 46K 
 ps8008r.jpg 2016-02-22 22:45 46K 
 AX6087_1.jpg 2016-02-22 22:39 46K 
 fl367430_1.jpg 2016-02-22 22:41 46K 
 fl737003_helm_fly.jpg 2016-02-22 22:42 46K 
 zu9540.jpg 2016-02-22 22:50 46K 
 sm62042.jpg 2016-02-22 22:48 46K 
 si02102360_1.jpg 2016-02-22 22:46 46K 
 us201111_3.jpg 2016-02-22 22:49 46K 
 sm2027_intake_graphi..>2016-02-22 22:48 46K 
 sm2027.jpg 2016-02-22 22:48 46K 
 ps8007o.jpg 2016-02-22 22:45 46K 
 tu120211.jpg 2016-02-22 22:49 46K 
 si41101286.jpg 2016-02-22 22:47 46K 
 sm1023_warp_smith.jpg 2016-02-22 22:47 46K 
 sm1023.jpg 2016-02-22 22:47 46K 
 ohmasmi30.jpg 2016-02-22 22:44 46K 
 sm1973.jpg 2016-02-22 22:48 46K 
 AX1103_2.jpg 2016-02-22 22:39 46K 
 AX1099_2.jpg 2016-02-22 22:39 46K 
 ce6948.jpg 2016-02-22 22:39 46K 
 si02102943_2.jpg 2016-02-22 22:46 46K 
 fl734580.jpg 2016-02-22 22:42 46K 
 zu223901.jpg 2016-02-22 22:50 46K 
 ps7105.jpg 2016-02-22 22:45 46K 
 fl739154-2.jpg 2016-02-22 22:43 46K 
 fl365521_1_hemd_fly.jpg2016-02-22 22:41 46K 
 fl366630_1.jpg 2016-02-22 22:41 46K 
 si01105991_1.jpg 2016-02-22 22:46 46K 
 si01101991_1.jpg 2016-02-22 22:46 46K 
 fl364228.jpg 2016-02-22 22:41 46K 
 sm2052_intake_sweatx..>2016-02-22 22:48 45K 
 sm2052.jpg 2016-02-22 22:48 45K 
 S46HR1C1S.jpg 2016-02-22 22:46 45K 
 sm8004_3.jpg 2016-02-22 22:49 45K 
 365525_2.jpg 2016-02-22 22:38 45K 
 fl733472_1.jpg 2016-02-22 22:42 45K 
 fl733472-1.jpg 2016-02-22 22:42 45K 
 hmr1tsaw4.jpg 2016-02-22 22:43 45K 
 hmr1tsaw3.jpg 2016-02-22 22:43 45K 
 hmr1tsaw2.jpg 2016-02-22 22:43 45K 
 hmr1tsaw1.jpg 2016-02-22 22:43 45K 
 hmr1tsaw0.jpg 2016-02-22 22:43 45K 
 fl3520452.jpg 2016-02-22 22:40 45K 
 cs51417_2.jpg 2016-02-22 22:39 45K 
 stsdu0190.jpg 2016-02-22 22:49 45K 
 re1335wg.jpg 2016-02-22 22:45 45K 
 fl3540013_1.jpg 2016-02-22 22:40 45K 
 fl3540013-1.jpg 2016-02-22 22:40 45K 
 AX6073_1.jpg 2016-02-22 22:39 45K 
 dd21009.jpg 2016-02-22 22:39 45K 
 AX6081_2.jpg 2016-02-22 22:39 45K 
 si63121435.jpg 2016-02-22 22:47 45K 
 ohu00053.jpg 2016-02-22 22:44 45K 
 sm62083.jpg 2016-02-22 22:48 45K 
 fl366331_2.jpg 2016-02-22 22:41 45K 
 3540081_1.jpg 2016-02-22 22:38 45K 
 fl285108_1.jpg 2016-02-22 22:40 45K 
 si04109240_1.jpg 2016-02-22 22:46 45K 
 re1335sr.jpg 2016-02-22 22:45 45K 
 fl734560.jpg 2016-02-22 22:42 45K 
 35dds.jpg 2016-02-22 22:38 45K 
 stsun310_2.jpg 2016-02-22 22:49 45K 
 sm64202.jpg 2016-02-22 22:49 45K 
 po20062.jpg 2016-02-22 22:44 45K 
 fl367112.jpg 2016-02-22 22:41 45K 
 AX6069_2.jpg 2016-02-22 22:39 45K 
 3540058_1.jpg 2016-02-22 22:38 45K 
 fl364128_1.jpg 2016-02-22 22:41 45K 
 fl364128-1.jpg 2016-02-22 22:41 45K 
 110090000401.jpg 2016-02-22 22:36 45K 
 110090000201.jpg 2016-02-22 22:36 45K 
 3609855_1.jpg 2016-02-22 22:38 45K 
 285057.jpg 2016-02-22 22:38 45K 
 hmr1hobm6.jpg 2016-02-22 22:43 45K 
 hmr1hobm1.jpg 2016-02-22 22:43 45K 
 AX1092_1.jpg 2016-02-22 22:39 45K 
 AX1091_1.jpg 2016-02-22 22:39 45K 
 si94102286_3.jpg 2016-02-22 22:47 45K 
 fl285064_2.jpg 2016-02-22 22:40 45K 
 gegkc101_2.jpg 2016-02-22 22:43 45K 
 AX6089_1.jpg 2016-02-22 22:39 45K 
 sm64102.jpg 2016-02-22 22:49 45K 
 110090000101.jpg 2016-02-22 22:36 45K 
 re14440.jpg 2016-02-22 22:46 45K 
 sm64201.jpg 2016-02-22 22:49 45K 
 sm63611.jpg 2016-02-22 22:48 45K 
 KineticRSWtOr_front.jpg2016-02-22 22:43 45K 
 sm64101.jpg 2016-02-22 22:49 45K 
 734033.jpg 2016-02-22 22:38 45K 
 AX1096_2.jpg 2016-02-22 22:39 45K 
 hmr1blau0.jpg 2016-02-22 22:43 45K 
 sm62073.jpg 2016-02-22 22:48 45K 
 sm64107.jpg 2016-02-22 22:49 45K 
 sm1974-1.jpg 2016-02-22 22:48 45K 
 AX6087_2.jpg 2016-02-22 22:39 45K 
 ps8002400011.jpg 2016-02-22 22:45 45K 
 sm8030.jpg 2016-02-22 22:49 45K 
 fl364215.jpg 2016-02-22 22:41 45K 
 356-6030.jpg 2016-02-22 22:38 45K 
 fgrt_4.jpg 2016-02-22 22:40 45K 
 mg0429633.jpg 2016-02-22 22:44 45K 
 ps7111.jpg 2016-02-22 22:45 45K 
 sm2032.jpg 2016-02-22 22:48 45K 
 fl734018_1.jpg 2016-02-22 22:42 45K 
 fl734018-1.jpg 2016-02-22 22:42 45K 
 ps8901.jpg 2016-02-22 22:45 45K 
 si20002460_3.jpg 2016-02-22 22:47 45K 
 si20001990_2.jpg 2016-02-22 22:47 45K 
 fl3524070.jpg 2016-02-22 22:40 45K 
 se1406134_2.jpg 2016-02-22 22:46 45K 
 AX1101_2.jpg 2016-02-22 22:39 45K 
 xt040270715ap.jpg 2016-02-22 22:49 45K 
 fl3580012_1.jpg 2016-02-22 22:40 45K 
 fl3580012-1.jpg 2016-02-22 22:40 45K 
 sm1974-2.jpg 2016-02-22 22:48 45K 
 fl357020.jpg 2016-02-22 22:40 45K 
 S36K_3.jpg 2016-02-22 22:46 45K 
 zu9562.jpg 2016-02-22 22:50 45K 
 stfdus090.jpg 2016-02-22 22:49 45K 
 stfdus060.jpg 2016-02-22 22:49 45K 
 stfdus030.jpg 2016-02-22 22:49 45K 
 AX1086_1.jpg 2016-02-22 22:39 45K 
 ls305601011.jpg 2016-02-22 22:44 45K 
 ps7106.jpg 2016-02-22 22:45 45K 
 AX1120_3.jpg 2016-02-22 22:39 45K 
 fl364120.jpg 2016-02-22 22:41 45K 
 AX6068_2.jpg 2016-02-22 22:39 45K 
 fl121864_1.jpg 2016-02-22 22:40 45K 
 sm1984_fuel_v2_smith..>2016-02-22 22:48 45K 
 sm1984.jpg 2016-02-22 22:48 45K 
 fl3616071.jpg 2016-02-22 22:40 45K 
 hmr1byak3.jpg 2016-02-22 22:43 45K 
 hmr1byak2.jpg 2016-02-22 22:43 45K 
 hmr1byak1.jpg 2016-02-22 22:43 45K 
 364628_2.jpg 2016-02-22 22:38 45K 
 at3511.jpg 2016-02-22 22:39 45K 
 re154u520r.jpg 2016-02-22 22:46 45K 
 sr29_2.jpg 2016-02-22 22:49 45K 
 si01102650_1.jpg 2016-02-22 22:46 45K 
 8542586.jpg 2016-02-22 22:38 45K 
 8542585.jpg 2016-02-22 22:38 45K 
 8542584.jpg 2016-02-22 22:38 45K 
 8542583.jpg 2016-02-22 22:38 45K 
 8542582.jpg 2016-02-22 22:38 45K 
 hmr1tsak4.jpg 2016-02-22 22:43 45K 
 fl3520450.jpg 2016-02-22 22:40 45K 
 AX6079_1.jpg 2016-02-22 22:39 45K 
 fl365220_1_hemd_fly.jpg2016-02-22 22:41 45K 
 kl411g.jpg 2016-02-22 22:43 44K 
 re1335wr.jpg 2016-02-22 22:45 44K 
 sm63610.jpg 2016-02-22 22:48 44K 
 fl733475_1.jpg 2016-02-22 22:42 44K 
 fl733475-1.jpg 2016-02-22 22:42 44K 
 vwsmi00_1.jpg 2016-02-22 22:49 44K 
 si20024650_2.jpg 2016-02-22 22:47 44K 
 re1422_1.jpg 2016-02-22 22:46 44K 
 LiteHydrogenBlue_fro..>2016-02-22 22:44 44K 
 fl3520416.jpg 2016-02-22 22:40 44K 
 ax1195_2.jpg 2016-02-22 22:39 44K 
 hmr1caau0.jpg 2016-02-22 22:43 44K 
 posmi10_2.jpg 2016-02-22 22:44 44K 
 si01104-185.jpg 2016-02-22 22:46 44K 
 fl3580031_1_pulli_fl..>2016-02-22 22:40 44K 
 zu1453.jpg 2016-02-22 22:50 44K 
 fl3580012.jpg 2016-02-22 22:40 44K 
 zu1621.jpg 2016-02-22 22:50 44K 
 fl360971_1.jpg 2016-02-22 22:40 44K 
 fl360971-1.jpg 2016-02-22 22:40 44K 
 hmr1tsak3.jpg 2016-02-22 22:43 44K 
 hmr1tsak2.jpg 2016-02-22 22:43 44K 
 hmr1tsak1.jpg 2016-02-22 22:43 44K 
 hmr1tsak0.jpg 2016-02-22 22:43 44K 
 si93101001_3.jpg 2016-02-22 22:47 44K 
 si06600450_1.jpg 2016-02-22 22:46 44K 
 fl364227.jpg 2016-02-22 22:41 44K 
 fl733904.jpg 2016-02-22 22:42 44K 
 ktlite_1.jpg 2016-02-22 22:44 44K 
 ush3xc252.jpg 2016-02-22 22:49 44K 
 356-0150.jpg 2016-02-22 22:38 44K 
 cs55938_2.jpg 2016-02-22 22:39 44K 
 zt6780.jpg 2016-02-22 22:50 44K 
 si01102360_1.jpg 2016-02-22 22:46 44K 
 AX6079_3.jpg 2016-02-22 22:39 44K 
 sm63601_1.jpg 2016-02-22 22:48 44K 
 sm1003_warp_smith.jpg 2016-02-22 22:47 44K 
 sm1003.jpg 2016-02-22 22:47 44K 
 AX1088_1.jpg 2016-02-22 22:39 44K 
 AX1096_1.jpg 2016-02-22 22:39 44K 
 ohsusmi10_2.jpg 2016-02-22 22:44 44K 
 sm62071.jpg 2016-02-22 22:48 44K 
 zu96365_3.jpg 2016-02-22 22:50 44K 
 bmsmi10_2.jpg 2016-02-22 22:39 44K 
 zu96113.jpg 2016-02-22 22:50 44K 
 fl478101_1.jpg 2016-02-22 22:42 44K 
 fl739153.jpg 2016-02-22 22:43 44K 
 si04109240_2.jpg 2016-02-22 22:46 44K 
 364688_2.jpg 2016-02-22 22:38 44K 
 fl365212_handschuhe_..>2016-02-22 22:41 44K 
 150280000101.jpg 2016-02-22 22:38 44K 
 cs58874_1.jpg 2016-02-22 22:39 44K 
 cs58864_1.jpg 2016-02-22 22:39 44K 
 xt040470028gr.jpg 2016-02-22 22:49 44K 
 AX1103_1.jpg 2016-02-22 22:39 44K 
 AX1099_1.jpg 2016-02-22 22:39 44K 
 mwtag.jpg 2016-02-22 22:44 44K 
 fl3540058_3_jacke_fl..>2016-02-22 22:40 44K 
 fl3540058_2.jpg 2016-02-22 22:40 44K 
 zu4830_2.jpg 2016-02-22 22:50 44K 
 fl3526080_1_shirt_fl..>2016-02-22 22:40 44K 
 stfkts080.jpg 2016-02-22 22:49 44K 
 stfkts040.jpg 2016-02-22 22:49 44K 
 fl3609357.jpg 2016-02-22 22:40 44K 
 bs77919.jpg 2016-02-22 22:39 44K 
 si20660800_2.jpg 2016-02-22 22:47 44K 
 fl285010_tasche_fly.jpg2016-02-22 22:40 44K 
 fl3526046.jpg 2016-02-22 22:40 44K 
 re1335g.jpg 2016-02-22 22:45 44K 
 sm1725_sonic_smith.jpg 2016-02-22 22:48 44K 
 sm1725.jpg 2016-02-22 22:48 44K 
 sm2038-3_intake_swea..>2016-02-22 22:48 44K 
 sm2038-3.jpg 2016-02-22 22:48 44K 
 si05667990_2.jpg 2016-02-22 22:46 44K 
 cs58894_1.jpg 2016-02-22 22:39 44K 
 ps60025.jpg 2016-02-22 22:45 44K 
 fl3524066.jpg 2016-02-22 22:40 44K 
 si20661800_2.jpg 2016-02-22 22:47 44K 
 fl364410.jpg 2016-02-22 22:41 44K 
 hmr1psbm6.jpg 2016-02-22 22:43 44K 
 hmr1psbm5.jpg 2016-02-22 22:43 44K 
 hmr1psbm4.jpg 2016-02-22 22:43 44K 
 hmr1psbm3.jpg 2016-02-22 22:43 44K 
 hmr1psbm2.jpg 2016-02-22 22:43 44K 
 hmr1psbm1.jpg 2016-02-22 22:43 44K 
 8542546.jpg 2016-02-22 22:38 44K 
 sm1503_sme_smith.jpg 2016-02-22 22:47 44K 
 sm1503.jpg 2016-02-22 22:47 44K 
 sm62072.jpg 2016-02-22 22:48 44K 
 sm62171.jpg 2016-02-22 22:48 44K 
 fl3520491.jpg 2016-02-22 22:40 44K 
 fl3540080_2_jacke_fl..>2016-02-22 22:40 44K 
 ps2034g.jpg 2016-02-22 22:44 44K 
 cm5216.jpg 2016-02-22 22:39 44K 
 ax1262_2.jpg 2016-02-22 22:39 44K 
 356-6020.jpg 2016-02-22 22:38 44K 
 zu223000.jpg 2016-02-22 22:50 44K 
 110410000401.jpg 2016-02-22 22:36 44K 
 110410000301.jpg 2016-02-22 22:36 44K 
 110410000201.jpg 2016-02-22 22:36 44K 
 110410000101.jpg 2016-02-22 22:36 44K 
 365229_1.jpg 2016-02-22 22:38 44K 
 8542552.jpg 2016-02-22 22:38 44K 
 8542551.jpg 2016-02-22 22:38 44K 
 8542550.jpg 2016-02-22 22:38 44K 
 8542549.jpg 2016-02-22 22:38 44K 
 8542548.jpg 2016-02-22 22:38 44K 
 8542547.jpg 2016-02-22 22:38 44K 
 AX6085_3.jpg 2016-02-22 22:39 44K 
 si20662800_2.jpg 2016-02-22 22:47 44K 
 as101020-1.jpg 2016-02-22 22:38 44K 
 as101020-2.jpg 2016-02-22 22:38 44K 
 AX6089_2.jpg 2016-02-22 22:39 44K 
 zu159003.jpg 2016-02-22 22:50 44K 
 fl3500211_socken_fly..>2016-02-22 22:40 44K 
 si01104-286.jpg 2016-02-22 22:46 44K 
 kt255_2.jpg 2016-02-22 22:44 44K 
 mg0723058_1.jpg 2016-02-22 22:44 44K 
 ps60023.jpg 2016-02-22 22:45 44K 
 fl478101_2.jpg 2016-02-22 22:42 44K 
 hma1bta01.jpg 2016-02-22 22:43 44K 
 si04102240_2.jpg 2016-02-22 22:46 44K 
 sm1904_fuel_smith.jpg 2016-02-22 22:48 44K 
 sm1904.jpg 2016-02-22 22:48 44K 
 fl7391093.jpg 2016-02-22 22:42 44K 
 fl3510080.jpg 2016-02-22 22:40 44K 
 ohbmsmi00_2.jpg 2016-02-22 22:44 44K 
 AX1037_2.jpg 2016-02-22 22:39 44K 
 kl411gr.jpg 2016-02-22 22:43 44K 
 stfhnm010.jpg 2016-02-22 22:49 44K 
 356-0155.jpg 2016-02-22 22:38 44K 
 si02102360_2.jpg 2016-02-22 22:46 44K 
 si91121999_3.jpg 2016-02-22 22:47 44K 
 si05673240_2.jpg 2016-02-22 22:46 44K 
 si04102650_2.jpg 2016-02-22 22:46 44K 
 zu9113.jpg 2016-02-22 22:50 44K 
 fl365052.jpg 2016-02-22 22:41 44K 
 sm1976-3.jpg 2016-02-22 22:48 44K 
 sm1979-3.jpg 2016-02-22 22:48 44K 
 si06600450_3.jpg 2016-02-22 22:46 44K 
 fl353050.jpg 2016-02-22 22:40 44K 
 xt100180601ho.jpg 2016-02-22 22:49 44K 
 zu4820.jpg 2016-02-22 22:50 44K 
 si04105981_3.jpg 2016-02-22 22:46 44K 
 si04101981_3.jpg 2016-02-22 22:46 44K 
 usahhf10.jpg 2016-02-22 22:49 44K 
 ush4xc252.jpg 2016-02-22 22:49 44K 
 3520200.jpg 2016-02-22 22:38 44K 
 sm2038.jpg 2016-02-22 22:48 44K 
 hma1mua01.jpg 2016-02-22 22:43 44K 
 br08321003.jpg 2016-02-22 22:39 44K 
 si71101286.jpg 2016-02-22 22:47 44K 
 fl365428_2_hemd_fly.jpg2016-02-22 22:41 44K 
 si05662800_1.jpg 2016-02-22 22:46 44K 
 si05661800_1.jpg 2016-02-22 22:46 44K 
 si05660800_1.jpg 2016-02-22 22:46 44K 
 si20002780_5.jpg 2016-02-22 22:47 44K 
 si20002780_3.jpg 2016-02-22 22:47 44K 
 sm2050_2_intake_swea..>2016-02-22 22:48 44K 
 sm2050_2.jpg 2016-02-22 22:48 44K 
 sm1983_2_fuel_v2_smi..>2016-02-22 22:48 44K 
 sm1983_2.jpg 2016-02-22 22:48 44K 
 si91101999_3.jpg 2016-02-22 22:47 44K 
 si20024460_2.jpg 2016-02-22 22:47 44K 
 ohsusmi10_3.jpg 2016-02-22 22:44 44K 
 bs3666.jpg 2016-02-22 22:39 44K 
 fl362600-1.jpg 2016-02-22 22:41 44K 
 ax1295.jpg 2016-02-22 22:39 43K 
 sm3050.jpg 2016-02-22 22:48 43K 
 S46PR1C1L.jpg 2016-02-22 22:46 43K 
 8542591.jpg 2016-02-22 22:38 43K 
 8542590.jpg 2016-02-22 22:38 43K 
 8542589.jpg 2016-02-22 22:38 43K 
 ky130010010101.jpg 2016-02-22 22:44 43K 
 fl739141.jpg 2016-02-22 22:43 43K 
 fl366732_2.jpg 2016-02-22 22:41 43K 
 KineticInvMesh_front..>2016-02-22 22:43 43K 
 AX6069_1.jpg 2016-02-22 22:39 43K 
 si06600350_1.jpg 2016-02-22 22:46 43K 
 geps0403_get_schalth..>2016-02-22 22:43 43K 
 AX6081_3.jpg 2016-02-22 22:39 43K 
 hosmi30_5.jpg 2016-02-22 22:43 43K 
 zu1245_sw.jpg 2016-02-22 22:50 43K 
 si04105981_2.jpg 2016-02-22 22:46 43K 
 si04101981_2.jpg 2016-02-22 22:46 43K 
 sm1979-2.jpg 2016-02-22 22:48 43K 
 zt6520.jpg 2016-02-22 22:50 43K 
 dd13014.jpg 2016-02-22 22:39 43K 
 ktlite.jpg 2016-02-22 22:44 43K 
 ts55211000020.jpg 2016-02-22 22:49 43K 
 si95840001.jpg 2016-02-22 22:47 43K 
 si91121999_2.jpg 2016-02-22 22:47 43K 
 fl3560010.jpg 2016-02-22 22:40 43K 
 sm64204.jpg 2016-02-22 22:49 43K 
 fl367930.jpg 2016-02-22 22:42 43K 
 28-3068.jpg 2016-02-22 22:38 43K 
 si94101001_3.jpg 2016-02-22 22:47 43K 
 fl365320_2_hemd_fly.jpg2016-02-22 22:41 43K 
 fl364217.jpg 2016-02-22 22:41 43K 
 po20061.jpg 2016-02-22 22:44 43K 
 si01103990_1.jpg 2016-02-22 22:46 43K 
 zu96314.jpg 2016-02-22 22:50 43K 
 fl353050_1.jpg 2016-02-22 22:40 43K 
 8542593.jpg 2016-02-22 22:38 43K 
 8542592.jpg 2016-02-22 22:38 43K 
 8542588.jpg 2016-02-22 22:38 43K 
 8542587.jpg 2016-02-22 22:38 43K 
 fl285051.jpg 2016-02-22 22:40 43K 
 br08670311.jpg 2016-02-22 22:39 43K 
 si85630001.jpg 2016-02-22 22:47 43K 
 kt15510125.jpg 2016-02-22 22:43 43K 
 zt6260.jpg 2016-02-22 22:50 43K 
 si31119286.jpg 2016-02-22 22:47 43K 
 110110000101.jpg 2016-02-22 22:36 43K 
 si20157990_2.jpg 2016-02-22 22:47 43K 
 zu855663-1.jpg 2016-02-22 22:50 43K 
 zu9580_3.jpg 2016-02-22 22:50 43K 
 ax1257.jpg 2016-02-22 22:39 43K 
 kl411o.jpg 2016-02-22 22:43 43K 
 AX6078_3.jpg 2016-02-22 22:39 43K 
 sm1723_sonic_smith.jpg 2016-02-22 22:47 43K 
 sm1723.jpg 2016-02-22 22:47 43K 
 AX1086_3.jpg 2016-02-22 22:39 43K 
 si04102360_1.jpg 2016-02-22 22:46 43K 
 fl364212.jpg 2016-02-22 22:41 43K 
 sm1972-3.jpg 2016-02-22 22:48 43K 
 357080_1.jpg 2016-02-22 22:38 43K 
 st3.jpg 2016-02-22 22:49 43K 
 zu8933.jpg 2016-02-22 22:50 43K 
 fl363555_1.jpg 2016-02-22 22:41 43K 
 fl363555-1.jpg 2016-02-22 22:41 43K 
 si91101999_2.jpg 2016-02-22 22:47 43K 
 mg0721820.jpg 2016-02-22 22:44 43K 
 si20001990_3.jpg 2016-02-22 22:47 43K 
 352-6080_2.jpg 2016-02-22 22:38 43K 
 sm8060.jpg 2016-02-22 22:49 43K 
 zu223050.jpg 2016-02-22 22:50 43K 
 ps8008o.jpg 2016-02-22 22:45 43K 
 365122_1.jpg 2016-02-22 22:38 43K 
 si02102650_2.jpg 2016-02-22 22:46 43K 
 pf7535xxyy.jpg 2016-02-22 22:44 43K 
 brm478z04.jpg 2016-02-22 22:39 43K 
 br07bb05xx.jpg 2016-02-22 22:39 43K 
 352-0210.jpg 2016-02-22 22:38 43K 
 fl3566070.jpg 2016-02-22 22:40 43K 
 fl285021_2.jpg 2016-02-22 22:40 43K 
 ohbmsmi00_4.jpg 2016-02-22 22:44 43K 
 ohbmsmi00_1.jpg 2016-02-22 22:44 43K 
 imprezagdbe.jpg 2016-02-22 22:43 43K 
 AX6061_1.jpg 2016-02-22 22:39 43K 
 si20676990_3.jpg 2016-02-22 22:47 43K 
 sm1995.jpg 2016-02-22 22:48 43K 
 si91121107_3.jpg 2016-02-22 22:47 43K 
 AX6087_3.jpg 2016-02-22 22:39 43K 
 si01101650_1.jpg 2016-02-22 22:46 43K 
 si04102650_1.jpg 2016-02-22 22:46 43K 
 si07881990.jpg 2016-02-22 22:47 43K 
 ohsusmi00_2.jpg 2016-02-22 22:44 43K 
 stsun070g.jpg 2016-02-22 22:49 43K 
 fl365320_1_hemd_fly.jpg2016-02-22 22:41 43K 
 fo27011.jpg 2016-02-22 22:43 43K 
 352-6080.jpg 2016-02-22 22:38 43K 
 fl365122_1_hemd_fly.jpg2016-02-22 22:41 43K 
 si02105650_2.jpg 2016-02-22 22:46 43K 
 si02101650_2.jpg 2016-02-22 22:46 43K 
 sm2052_2_intake_swea..>2016-02-22 22:48 43K 
 sm2052_2.jpg 2016-02-22 22:48 43K 
 sm1984_2_fuel_v2_smi..>2016-02-22 22:48 43K 
 sm1984_2.jpg 2016-02-22 22:48 43K 
 733487.jpg 2016-02-22 22:38 43K 
 mg0730218.jpg 2016-02-22 22:44 43K 
 fl365012_handschuhe_..>2016-02-22 22:41 43K 
 sr31m.jpg 2016-02-22 22:49 43K 
 fl734736.jpg 2016-02-22 22:42 43K 
 fl283055_1.jpg 2016-02-22 22:40 43K 
 fl3560148.jpg 2016-02-22 22:40 43K 
 AX1043_3.jpg 2016-02-22 22:39 43K 
 si91101107_3.jpg 2016-02-22 22:47 43K 
 cm5213.jpg 2016-02-22 22:39 43K 
 sm3008.jpg 2016-02-22 22:48 43K 
 fl364222.jpg 2016-02-22 22:41 43K 
 cs54098_2.jpg 2016-02-22 22:39 43K 
 cm5213r_3.jpg 2016-02-22 22:39 43K 
 zu1561.jpg 2016-02-22 22:50 43K 
 kl411si.jpg 2016-02-22 22:43 43K 
 sm2036_3_intake_swea..>2016-02-22 22:48 43K 
 sm2036-3.jpg 2016-02-22 22:48 43K 
 geps0401_get_zugsens..>2016-02-22 22:43 43K 
 si20675990_3.jpg 2016-02-22 22:47 43K 
 fl358005.jpg 2016-02-22 22:40 43K 
 zt07101_1_tirewatch.jpg2016-02-22 22:50 43K 
 sr21_2.jpg 2016-02-22 22:49 43K 
 sm8004.jpg 2016-02-22 22:49 43K 
 ps4028w.jpg 2016-02-22 22:45 43K 
 AX6062_1.jpg 2016-02-22 22:39 43K 
 kl411r.jpg 2016-02-22 22:43 43K 
 fl365511_1_handschuh..>2016-02-22 22:41 43K 
 sm1979-1.jpg 2016-02-22 22:48 43K 
 si81111001_1.jpg 2016-02-22 22:47 42K 
 fl3506189-1.jpg 2016-02-22 22:40 42K 
 fl3616086_1.jpg 2016-02-22 22:40 42K 
 fl3616073_2.jpg 2016-02-22 22:40 42K 
 fl3616073-2.jpg 2016-02-22 22:40 42K 
 zu9561.jpg 2016-02-22 22:50 42K 
 fl3560184.jpg 2016-02-22 22:40 42K 
 stsdu200r.jpg 2016-02-22 22:49 42K 
 fl364-223.jpg 2016-02-22 22:41 42K 
 sm8052.jpg 2016-02-22 22:49 42K 
 fl362608-2.jpg 2016-02-22 22:41 42K 
 zu96115.jpg 2016-02-22 22:50 42K 
 zu9579r.jpg 2016-02-22 22:50 42K 
 sm1964_fuel_v2_smith..>2016-02-22 22:48 42K 
 sm1964.jpg 2016-02-22 22:48 42K 
 si67441286.jpg 2016-02-22 22:47 42K 
 fl365511_2_handschuh..>2016-02-22 22:41 42K 
 pf7520xxyy.jpg 2016-02-22 22:44 42K 
 brm538z04.jpg 2016-02-22 22:39 42K 
 br07ya23xx.jpg 2016-02-22 22:39 42K 
 si77443021.jpg 2016-02-22 22:47 42K 
 sc00412001.jpg 2016-02-22 22:46 42K 
 ps5020o.jpg 2016-02-22 22:45 42K 
 si91121286_2.jpg 2016-02-22 22:47 42K 
 sm2038-1.jpg 2016-02-22 22:48 42K 
 ohmismi10_1.jpg 2016-02-22 22:44 42K 
 fl733473_1.jpg 2016-02-22 22:42 42K 
 fl733473-1.jpg 2016-02-22 22:42 42K 
 si20600450_3.jpg 2016-02-22 22:47 42K 
 AX6078_1.jpg 2016-02-22 22:39 42K 
 364620_3.jpg 2016-02-22 22:38 42K 
 AX2435_2.jpg 2016-02-22 22:39 42K 
 pf7598xxyy.jpg 2016-02-22 22:44 42K 
 brm518z04.jpg 2016-02-22 22:39 42K 
 br07su27xx.jpg 2016-02-22 22:39 42K 
 ps1050r.jpg 2016-02-22 22:44 42K 
 fl3520076_1.jpg 2016-02-22 22:40 42K 
 fl3520076-1.jpg 2016-02-22 22:40 42K 
 3540072_1.jpg 2016-02-22 22:38 42K 
 ps60024.jpg 2016-02-22 22:45 42K 
 AX1043_2.jpg 2016-02-22 22:39 42K 
 at9300.jpg 2016-02-22 22:39 42K 
 ky130030010101.jpg 2016-02-22 22:44 42K 
 sm3033.jpg 2016-02-22 22:48 42K 
 fl733471_1.jpg 2016-02-22 22:42 42K 
 fl733471-1.jpg 2016-02-22 22:42 42K 
 fl364110.jpg 2016-02-22 22:41 42K 
 fl3616072_2.jpg 2016-02-22 22:40 42K 
 fl3616072-2.jpg 2016-02-22 22:40 42K 
 kl411b.jpg 2016-02-22 22:43 42K 
 sm1985_2_fuel_v2_smi..>2016-02-22 22:48 42K 
 sm1985_2.jpg 2016-02-22 22:48 42K 
 tu2026kit.jpg 2016-02-22 22:49 42K 
 ps8912.jpg 2016-02-22 22:45 42K 
 cs56985_2.jpg 2016-02-22 22:39 42K 
 zu1937.jpg 2016-02-22 22:50 42K 
 sm2031_3_intake_swea..>2016-02-22 22:48 42K 
 sm2031-3.jpg 2016-02-22 22:48 42K 
 stfktm010.jpg 2016-02-22 22:49 42K 
 stfyas130.jpg 2016-02-22 22:49 42K 
 fl3520492.jpg 2016-02-22 22:40 42K 
 fl364138_1.jpg 2016-02-22 22:41 42K 
 fl364138-1.jpg 2016-02-22 22:41 42K 
 EvoRevBlRd_front.jpg 2016-02-22 22:39 42K 
 fl365522_1_hemd_fly.jpg2016-02-22 22:41 42K 
 me9700.jpg 2016-02-22 22:44 42K 
 fl7334732.jpg 2016-02-22 22:42 42K 
 fl733473-2.jpg 2016-02-22 22:42 42K 
 stadu0070.jpg 2016-02-22 22:49 42K 
 stfyas150.jpg 2016-02-22 22:49 42K 
 28-3060.jpg 2016-02-22 22:38 42K 
 nismi00_3.jpg 2016-02-22 22:44 42K 
 365428_1.jpg 2016-02-22 22:38 42K 
 ax1193_2.jpg 2016-02-22 22:39 42K 
 si91101286_2.jpg 2016-02-22 22:47 42K 
 si91101286.jpg 2016-02-22 22:47 42K 
 365420_1.jpg 2016-02-22 22:38 42K 
 AX6059_1.jpg 2016-02-22 22:39 42K 
 fl365428_1_hemd_fly.jpg2016-02-22 22:41 42K 
 stfyas100.jpg 2016-02-22 22:49 42K 
 fl3540072_2_jacke_fl..>2016-02-22 22:40 42K 
 zu8919.jpg 2016-02-22 22:50 42K 
 ax1294_2.jpg 2016-02-22 22:39 42K 
 si81121284.jpg 2016-02-22 22:47 42K 
 si20600990_2.jpg 2016-02-22 22:47 42K 
 si2062099_2.jpg 2016-02-22 22:47 42K 
 fl3626030.jpg 2016-02-22 22:41 42K 
 sm8004_2.jpg 2016-02-22 22:49 42K 
 fl353038.jpg 2016-02-22 22:40 42K 
 AX6080_1.jpg 2016-02-22 22:39 42K 
 fl3605001.jpg 2016-02-22 22:40 42K 
 hmr1tsbm5.jpg 2016-02-22 22:43 42K 
 hmr1tsbm4.jpg 2016-02-22 22:43 42K 
 hmr1tsbm3.jpg 2016-02-22 22:43 42K 
 hmr1tsbm2.jpg 2016-02-22 22:43 42K 
 hmr1tsbm1.jpg 2016-02-22 22:43 42K 
 us201111_1.jpg 2016-02-22 22:49 42K 
 fl3605001_1.jpg 2016-02-22 22:40 42K 
 fl3605001-1.jpg 2016-02-22 22:40 42K 
 zu177000.jpg 2016-02-22 22:50 42K 
 si6636428650.jpg 2016-02-22 22:47 42K 
 ls103963002.jpg 2016-02-22 22:44 42K 
 AX1087_1.jpg 2016-02-22 22:39 42K 
 fl3566015_1.jpg 2016-02-22 22:40 42K 
 fl3566015-1.jpg 2016-02-22 22:40 42K 
 as105010-4.jpg 2016-02-22 22:38 42K 
 fl3580010.jpg 2016-02-22 22:40 42K 
 fl3566022.jpg 2016-02-22 22:40 42K 
 fl360971.jpg 2016-02-22 22:40 42K 
 S46PR1C2LS.jpg 2016-02-22 22:46 42K 
 si87141450.jpg 2016-02-22 22:47 42K 
 AX1115_2.jpg 2016-02-22 22:39 42K 
 se1406136.jpg 2016-02-22 22:46 42K 
 fl365121_1_hemd_fly.jpg2016-02-22 22:41 42K 
 8538321.jpg 2016-02-22 22:38 42K 
 8538319.jpg 2016-02-22 22:38 42K 
 8538318.jpg 2016-02-22 22:38 42K 
 8538317.jpg 2016-02-22 22:38 42K 
 8538316.jpg 2016-02-22 22:38 42K 
 fl353139.jpg 2016-02-22 22:40 42K 
 fl362579_3.jpg 2016-02-22 22:41 42K 
 364628_3.jpg 2016-02-22 22:38 42K 
 fl363390.jpg 2016-02-22 22:41 42K 
 sm2004_intake_smith.jpg2016-02-22 22:48 42K 
 sm2004.jpg 2016-02-22 22:48 42K 
 sm2041.jpg 2016-02-22 22:48 42K 
 se1406132_2.jpg 2016-02-22 22:46 42K 
 si20669990_3.jpg 2016-02-22 22:47 42K 
 öhap036_3.jpg 2016-02-22 22:50 42K 
 AX2435_3.jpg 2016-02-22 22:39 42K 
 hmvjklaw0.jpg 2016-02-22 22:43 42K 
 ps800171.jpg 2016-02-22 22:45 42K 
 stfkwm010.jpg 2016-02-22 22:49 42K 
 si20002460_2.jpg 2016-02-22 22:47 42K 
 fl357008.jpg 2016-02-22 22:40 42K 
 evosonarblue_front.jpg 2016-02-22 22:39 42K 
 fl3520490.jpg 2016-02-22 22:40 42K 
 stsdu050r.jpg 2016-02-22 22:49 42K 
 zt615p.jpg 2016-02-22 22:50 42K 
 mua03bmw019.jpg 2016-02-22 22:44 42K 
 sc00445002.jpg 2016-02-22 22:46 42K 
 AX6069_3.jpg 2016-02-22 22:39 42K 
 stfbms010.jpg 2016-02-22 22:49 42K 
 sm62172.jpg 2016-02-22 22:48 41K 
 hmr1jkam6.jpg 2016-02-22 22:43 41K 
 hmr1jkam5.jpg 2016-02-22 22:43 41K 
 hmr1jkam4.jpg 2016-02-22 22:43 41K 
 hmr1jkam3.jpg 2016-02-22 22:43 41K 
 hmr1jkam2.jpg 2016-02-22 22:43 41K 
 hmr1jkam1.jpg 2016-02-22 22:43 41K 
 365520_1.jpg 2016-02-22 22:38 41K 
 S46DR1LS.jpg 2016-02-22 22:46 41K 
 sm1971-2.jpg 2016-02-22 22:48 41K 
 fl733471.jpg 2016-02-22 22:42 41K 
 fl285050.jpg 2016-02-22 22:40 41K 
 fl3520076.jpg 2016-02-22 22:40 41K 
 fl3520330_1.jpg 2016-02-22 22:40 41K 
 AX1094_2.jpg 2016-02-22 22:39 41K 
 AX1093_2.jpg 2016-02-22 22:39 41K 
 evosonargreen_front.jpg2016-02-22 22:39 41K 
 zu4810_3.jpg 2016-02-22 22:50 41K 
 AX1092_2.jpg 2016-02-22 22:39 41K 
 si91101185_3.jpg 2016-02-22 22:47 41K 
 fl3605041.jpg 2016-02-22 22:40 41K 
 fl363109_1.jpg 2016-02-22 22:41 41K 
 fl363109-1.jpg 2016-02-22 22:41 41K 
 si06620350_1.jpg 2016-02-22 22:46 41K 
 stfhnm030.jpg 2016-02-22 22:49 41K 
 S46PR1C1LB.jpg 2016-02-22 22:46 41K 
 fl739153-3.jpg 2016-02-22 22:43 41K 
 fl3605041_1.jpg 2016-02-22 22:40 41K 
 fl3605041-1.jpg 2016-02-22 22:40 41K 
 sm1976-1.jpg 2016-02-22 22:48 41K 
 fl365520_1_hemd_fly.jpg2016-02-22 22:41 41K 
 fl366630_2.jpg 2016-02-22 22:41 41K 
 fkc101.jpg 2016-02-22 22:40 41K 
 si06620990_2.jpg 2016-02-22 22:46 41K 
 si06600990_2.jpg 2016-02-22 22:46 41K 
 AX6086_1.jpg 2016-02-22 22:39 41K 
 fl3631109_2.jpg 2016-02-22 22:41 41K 
 fl3631109-2.jpg 2016-02-22 22:41 41K 
 fl733620.jpg 2016-02-22 22:42 41K 
 sm2041_intake_sweatx..>2016-02-22 22:48 41K 
 sm2041-3.jpg 2016-02-22 22:48 41K 
 fl285054_2.jpg 2016-02-22 22:40 41K 
 fl285054-2.jpg 2016-02-22 22:40 41K 
 sm1903_fuel_smith.jpg 2016-02-22 22:48 41K 
 sm1903.jpg 2016-02-22 22:48 41K 
 sm2034_2_intake_swea..>2016-02-22 22:48 41K 
 AX1051_1.jpg 2016-02-22 22:39 41K 
 stfdus150.jpg 2016-02-22 22:49 41K 
 stfdus020.jpg 2016-02-22 22:49 41K 
 stfdus010.jpg 2016-02-22 22:49 41K 
 fl733482_helm_fly.jpg 2016-02-22 22:42 41K 
 fl3546090.jpg 2016-02-22 22:40 41K 
 fl362590-3.jpg 2016-02-22 22:41 41K 
 ak3512.jpg 2016-02-22 22:38 41K 
 sm2022_intake_graphi..>2016-02-22 22:48 41K 
 si20062985_2.jpg 2016-02-22 22:47 41K 
 zu9579b.jpg 2016-02-22 22:50 41K 
 si20004460_2.jpg 2016-02-22 22:47 41K 
 stftrs020.jpg 2016-02-22 22:49 41K 
 stftrs010.jpg 2016-02-22 22:49 41K 
 fl3510012.jpg 2016-02-22 22:40 41K 
 T36PR1C1LB_1.jpg 2016-02-22 22:49 41K 
 stfmvs040.jpg 2016-02-22 22:49 41K 
 stfmvs020.jpg 2016-02-22 22:49 41K 
 stfmvs010.jpg 2016-02-22 22:49 41K 
 365131.jpg 2016-02-22 22:38 41K 
 AX1057_2.jpg 2016-02-22 22:39 41K 
 fl3540050_jacke_fly.jpg2016-02-22 22:40 41K 
 si20648990_3.jpg 2016-02-22 22:47 41K 
 AX6059_3.jpg 2016-02-22 22:39 41K 
 sm1976-2.jpg 2016-02-22 22:48 41K 
 fl3631101.jpg 2016-02-22 22:41 41K 
 ps30271ge.jpg 2016-02-22 22:45 41K 
 fl733620_1.jpg 2016-02-22 22:42 41K 
 fl733620-1.jpg 2016-02-22 22:42 41K 
 fl365512_handschuhe_..>2016-02-22 22:41 41K 
 sm2032-1.jpg 2016-02-22 22:48 41K 
 fl367412.jpg 2016-02-22 22:41 41K 
 AX1141_4.jpg 2016-02-22 22:39 41K 
 zu9527_4.jpg 2016-02-22 22:50 41K 
 sm1978-1.jpg 2016-02-22 22:48 41K 
 re1418_2.jpg 2016-02-22 22:46 41K 
 oh019801s.jpg 2016-02-22 22:44 41K 
 si87160021.jpg 2016-02-22 22:47 41K 
 fl3526120_1.jpg 2016-02-22 22:40 41K 
 KineticInvBkWt_back.jpg2016-02-22 22:43 41K 
 T36PR1C1LB_2.jpg 2016-02-22 22:49 41K 
 fl734023_helm_fly.jpg 2016-02-22 22:42 41K 
 se1406136_2.jpg 2016-02-22 22:46 41K 
 ax1295_2.jpg 2016-02-22 22:39 41K 
 si91121286_3.jpg 2016-02-22 22:47 41K 
 pf0991.jpg 2016-02-22 22:44 41K 
 fl7391087.jpg 2016-02-22 22:42 41K 
 AX2435_1.jpg 2016-02-22 22:39 41K 
 cs55909_1.jpg 2016-02-22 22:39 41K 
 si04102943_2.jpg 2016-02-22 22:46 41K 
 AX1035_3.jpg 2016-02-22 22:39 41K 
 AX1043_1.jpg 2016-02-22 22:39 41K 
 AX2214_1.jpg 2016-02-22 22:39 41K 
 fl7391094.jpg 2016-02-22 22:42 41K 
 fl7391086.jpg 2016-02-22 22:42 41K 
 si91101107_2.jpg 2016-02-22 22:47 41K 
 si91101107.jpg 2016-02-22 22:47 41K 
 fl121864_4.jpg 2016-02-22 22:40 41K 
 fl363563_1.jpg 2016-02-22 22:41 41K 
 fl363563-1.jpg 2016-02-22 22:41 41K 
 si04102943_1.jpg 2016-02-22 22:46 41K 
 AX6081_1.jpg 2016-02-22 22:39 41K 
 si91101286_3.jpg 2016-02-22 22:47 41K 
 AX2214_2.jpg 2016-02-22 22:39 41K 
 sr1310.jpg 2016-02-22 22:49 41K 
 fl365514_handschuhe_..>2016-02-22 22:41 41K 
 fl3560039_1.jpg 2016-02-22 22:40 41K 
 fl3560039-1.jpg 2016-02-22 22:40 41K 
 sm1303_otg_smith.jpg 2016-02-22 22:47 41K 
 sm1303.jpg 2016-02-22 22:47 41K 
 fl3500600-1.jpg 2016-02-22 22:40 41K 
 si05676990_3.jpg 2016-02-22 22:46 41K 
 si05675990_3.jpg 2016-02-22 22:46 41K 
 sm1971-3.jpg 2016-02-22 22:48 41K 
 fl365131_hose_fly.jpg 2016-02-22 22:41 41K 
 sm64205.jpg 2016-02-22 22:49 41K 
 re1419r.jpg 2016-02-22 22:46 41K 
 sr29_1.jpg 2016-02-22 22:49 41K 
 si91121107_2.jpg 2016-02-22 22:47 41K 
 cs55929_2.jpg 2016-02-22 22:39 41K 
 fl3526124_1.jpg 2016-02-22 22:40 41K 
 fl365539_hose_fly.jpg 2016-02-22 22:41 41K 
 110730000301.jpg 2016-02-22 22:36 41K 
 110730000201.jpg 2016-02-22 22:36 41K 
 110730000101.jpg 2016-02-22 22:36 41K 
 AX1035_2.jpg 2016-02-22 22:39 41K 
 bm679_3.jpg 2016-02-22 22:39 41K 
 bm677_3.jpg 2016-02-22 22:39 41K 
 si06620350_3.jpg 2016-02-22 22:46 41K 
 si06600350_3.jpg 2016-02-22 22:46 41K 
 ps7103.jpg 2016-02-22 22:45 41K 
 sm1963_fuel_v2_smith..>2016-02-22 22:48 41K 
 sm1963.jpg 2016-02-22 22:48 41K 
 as101010.jpg 2016-02-22 22:38 41K 
 fl285001_tasche_fly.jpg2016-02-22 22:40 41K 
 sm62076.jpg 2016-02-22 22:48 41K 
 hmr1sham6.jpg 2016-02-22 22:43 41K 
 hmr1sham5.jpg 2016-02-22 22:43 41K 
 hmr1sham4.jpg 2016-02-22 22:43 41K 
 hmr1sham3.jpg 2016-02-22 22:43 41K 
 hmr1sham2.jpg 2016-02-22 22:43 41K 
 hmr1sham1.jpg 2016-02-22 22:43 41K 
 geps0402_get_druckse..>2016-02-22 22:43 41K 
 ax1196_2.jpg 2016-02-22 22:39 41K 
 fl285056_tasche_fly.jpg2016-02-22 22:40 41K 
 zu9537_10.jpg 2016-02-22 22:50 41K 
 fl734044_helm_fly.jpg 2016-02-22 22:42 41K 
 sm2039.jpg 2016-02-22 22:48 41K 
 ps8007s_1.jpg 2016-02-22 22:45 41K 
 sm8132.jpg 2016-02-22 22:49 41K 
 si04105450_1.jpg 2016-02-22 22:46 41K 
 si04101450_1.jpg 2016-02-22 22:46 41K 
 AX6073_2.jpg 2016-02-22 22:39 41K 
 fl353020.jpg 2016-02-22 22:40 41K 
 ush3xc252_1.jpg 2016-02-22 22:49 41K 
 fl739152-2.jpg 2016-02-22 22:43 40K 
 fl364420.jpg 2016-02-22 22:41 40K 
 kt5653245_3.jpg 2016-02-22 22:44 40K 
 fl3520294.jpg 2016-02-22 22:40 40K 
 ax1250_1.jpg 2016-02-22 22:39 40K 
 S36K_1.jpg 2016-02-22 22:46 40K 
 si20002780_4.jpg 2016-02-22 22:47 40K 
 fkc101_1.jpg 2016-02-22 22:40 40K 
 sm2039_3_intake_swea..>2016-02-22 22:48 40K 
 sm2039-3.jpg 2016-02-22 22:48 40K 
 AX2214_3.jpg 2016-02-22 22:39 40K 
 bm676_3.jpg 2016-02-22 22:39 40K 
 fl363121.jpg 2016-02-22 22:41 40K 
 fl363120_1.jpg 2016-02-22 22:41 40K 
 fl363120-1.jpg 2016-02-22 22:41 40K 
 fl3510082_2.jpg 2016-02-22 22:40 40K 
 fl3510082-2.jpg 2016-02-22 22:40 40K 
 sm2003_intake_smith.jpg2016-02-22 22:48 40K 
 sm2003.jpg 2016-02-22 22:48 40K 
 smline_3.jpg 2016-02-22 22:49 40K 
 sa006835_3.jpg 2016-02-22 22:46 40K 
 fl3510090.jpg 2016-02-22 22:40 40K 
 AX1112_abb.jpg 2016-02-22 22:39 40K 
 stfkwm020.jpg 2016-02-22 22:49 40K 
 zu1698.jpg 2016-02-22 22:50 40K 
 zu1697.jpg 2016-02-22 22:50 40K 
 zu1696.jpg 2016-02-22 22:50 40K 
 fl365542_1_hose_fly.jpg2016-02-22 22:41 40K 
 si20024990_2.jpg 2016-02-22 22:47 40K 
 fl365132_hose_fly.jpg 2016-02-22 22:41 40K 
 si20024360_2.jpg 2016-02-22 22:47 40K 
 fl283067.jpg 2016-02-22 22:40 40K 
 zu8915.jpg 2016-02-22 22:50 40K 
 fgr300_2.jpg 2016-02-22 22:40 40K 
 pf0776.jpg 2016-02-22 22:44 40K 
 zu177101.jpg 2016-02-22 22:50 40K 
 si91102286_2.jpg 2016-02-22 22:47 40K 
 re1345sw.jpg 2016-02-22 22:45 40K 
 stfyas090.jpg 2016-02-22 22:49 40K 
 si20620980_3.jpg 2016-02-22 22:47 40K 
 si20600980_3.jpg 2016-02-22 22:47 40K 
 si04105991_3.jpg 2016-02-22 22:46 40K 
 si04101991_3.jpg 2016-02-22 22:46 40K 
 365050.jpg 2016-02-22 22:38 40K 
 fl733484_helm_fly.jpg 2016-02-22 22:42 40K 
 fl353016.jpg 2016-02-22 22:40 40K 
 fl360973_1.jpg 2016-02-22 22:40 40K 
 fl360973-1.jpg 2016-02-22 22:40 40K 
 fgrt_2.jpg 2016-02-22 22:40 40K 
 si91102286_3.jpg 2016-02-22 22:47 40K 
 fl353010.jpg 2016-02-22 22:40 40K 
 LiteHydrogenRed_back..>2016-02-22 22:44 40K 
 fo27099.jpg 2016-02-22 22:43 40K 
 364688_3.jpg 2016-02-22 22:38 40K 
 zu4820_2.jpg 2016-02-22 22:50 40K 
 352-0230.jpg 2016-02-22 22:38 40K 
 fl3631102.jpg 2016-02-22 22:41 40K 
 si91112485.jpg 2016-02-22 22:47 40K 
 fl364111_2.jpg 2016-02-22 22:41 40K 
 fl364111-2.jpg 2016-02-22 22:41 40K 
 stfsum090.jpg 2016-02-22 22:49 40K 
 stfsum010.jpg 2016-02-22 22:49 40K 
 xt040489922gr.jpg 2016-02-22 22:49 40K 
 se1406138_5.jpg 2016-02-22 22:46 40K 
 ps7104.jpg 2016-02-22 22:45 40K 
 fl364420_1.jpg 2016-02-22 22:41 40K 
 fl364420-1.jpg 2016-02-22 22:41 40K 
 AX1135_1.jpg 2016-02-22 22:39 40K 
 si20022460_23.jpg 2016-02-22 22:47 40K 
 si20022460_2.jpg 2016-02-22 22:47 40K 
 kl231r.jpg 2016-02-22 22:43 40K 
 kl224r.jpg 2016-02-22 22:43 40K 
 kl211r.jpg 2016-02-22 22:43 40K 
 365010_1.jpg 2016-02-22 22:38 40K 
 AX6062_2.jpg 2016-02-22 22:39 40K 
 fl3520580.jpg 2016-02-22 22:40 40K 
 AX1037_1.jpg 2016-02-22 22:39 40K 
 esjot.jpg 2016-02-22 22:39 40K 
 si01102943_1.jpg 2016-02-22 22:46 40K 
 fgrt_black1.jpg 2016-02-22 22:40 40K 
 fl3560038.jpg 2016-02-22 22:40 40K 
 pf7602xxyy.jpg 2016-02-22 22:44 40K 
 brm488z04.jpg 2016-02-22 22:39 40K 
 br07ho50xx.jpg 2016-02-22 22:39 40K 
 fl3520360.jpg 2016-02-22 22:40 40K 
 si02102450_3.jpg 2016-02-22 22:46 40K 
 fl285060_1.jpg 2016-02-22 22:40 40K 
 fl285060-1.jpg 2016-02-22 22:40 40K 
 fl3520112.jpg 2016-02-22 22:40 40K 
 srmsr17.jpg 2016-02-22 22:49 40K 
 pf7532xxyy.jpg 2016-02-22 22:44 40K 
 fl3546016_1.jpg 2016-02-22 22:40 40K 
 KineticInvMesh_back.jpg2016-02-22 22:43 40K 
 stsun310.jpg 2016-02-22 22:49 40K 
 si04105360_1.jpg 2016-02-22 22:46 40K 
 si04101360_1.jpg 2016-02-22 22:46 40K 
 dd25015.jpg 2016-02-22 22:39 40K 
 pf0548.jpg 2016-02-22 22:44 40K 
 si04102450_3.jpg 2016-02-22 22:46 40K 
 fl285021.jpg 2016-02-22 22:40 40K 
 si04102240_3.jpg 2016-02-22 22:46 40K 
 sm2032_3_intake_swea..>2016-02-22 22:48 40K 
 sm2032-3.jpg 2016-02-22 22:48 40K 
 sm1972-1.jpg 2016-02-22 22:48 40K 
 365132.jpg 2016-02-22 22:38 40K 
 kabel_neu.jpg 2016-02-22 22:43 40K 
 se1406001.jpg 2016-02-22 22:46 40K 
 ls305601002.jpg 2016-02-22 22:44 40K 
 ps9103.jpg 2016-02-22 22:45 40K 
 AX6073_3.jpg 2016-02-22 22:39 40K 
 fl3566074.jpg 2016-02-22 22:40 40K 
 zu4820_1.jpg 2016-02-22 22:50 40K 
 si04102360_2.jpg 2016-02-22 22:46 40K 
 fl3585064.jpg 2016-02-22 22:40 40K 
 283095_1.jpg 2016-02-22 22:38 40K 
 zu96204.jpg 2016-02-22 22:50 40K 
 us201111_2.jpg 2016-02-22 22:49 40K 
 fl353067.jpg 2016-02-22 22:40 40K 
 T36PR1C1LS.jpg 2016-02-22 22:49 40K 
 zu1917.jpg 2016-02-22 22:50 40K 
 zu9514_2.jpg 2016-02-22 22:50 40K 
 fl36366610.jpg 2016-02-22 22:41 40K 
 fl3605049.jpg 2016-02-22 22:40 40K 
 sc55868.jpg 2016-02-22 22:46 40K 
 733637_3.jpg 2016-02-22 22:38 39K 
 stsdu050b.jpg 2016-02-22 22:49 39K 
 fl364414.jpg 2016-02-22 22:41 39K 
 3540058_2.jpg 2016-02-22 22:38 39K 
 fl3560140.jpg 2016-02-22 22:40 39K 
 at1320.jpg 2016-02-22 22:39 39K 
 734046.jpg 2016-02-22 22:38 39K 
 cs57834.jpg 2016-02-22 22:39 39K 
 150210000101.jpg 2016-02-22 22:38 39K 
 sm1990.jpg 2016-02-22 22:48 39K 
 AX6082_1.jpg 2016-02-22 22:39 39K 
 mg0116940.jpg 2016-02-22 22:44 39K 
 mg0116933.jpg 2016-02-22 22:44 39K 
 kl411sw.jpg 2016-02-22 22:43 39K 
 AX6090_1.jpg 2016-02-22 22:39 39K 
 ps8912-1.jpg 2016-02-22 22:45 39K 
 fl3540100.jpg 2016-02-22 22:40 39K 
 fl733494_3.jpg 2016-02-22 22:42 39K 
 fl733494-3.jpg 2016-02-22 22:42 39K 
 7721.png 2016-02-22 22:38 39K 
 zu3021.jpg 2016-02-22 22:50 39K 
 AX1057_3.jpg 2016-02-22 22:39 39K 
 AX1141_3.jpg 2016-02-22 22:39 39K 
 sm1975-2.jpg 2016-02-22 22:48 39K 
 oh008601s.jpg 2016-02-22 22:44 39K 
 stfyam010.jpg 2016-02-22 22:49 39K 
 AX6080_2.jpg 2016-02-22 22:39 39K 
 si20620350_3.jpg 2016-02-22 22:47 39K 
 si20600350_3.jpg 2016-02-22 22:47 39K 
 352-0150.jpg 2016-02-22 22:38 39K 
 fl3560142.jpg 2016-02-22 22:40 39K 
 si05655990_1.jpg 2016-02-22 22:46 39K 
 AX6078_2.jpg 2016-02-22 22:39 39K 
 283095.jpg 2016-02-22 22:38 39K 
 AX6061_2.jpg 2016-02-22 22:39 39K 
 fl362600-3.jpg 2016-02-22 22:41 39K 
 sm1975-3.jpg 2016-02-22 22:48 39K 
 EvoRevBlRd_back.jpg 2016-02-22 22:39 39K 
 cs54835.jpg 2016-02-22 22:39 39K 
 mg0120842.jpg 2016-02-22 22:44 39K 
 fl364210.jpg 2016-02-22 22:41 39K 
 ps5051o.jpg 2016-02-22 22:45 39K 
 fl367237.jpg 2016-02-22 22:41 39K 
 AX1120_1.jpg 2016-02-22 22:39 39K 
 fl3609831_1_undercov..>2016-02-22 22:40 39K 
 ps2652s.jpg 2016-02-22 22:44 39K 
 fl364628_1.jpg 2016-02-22 22:41 39K 
 fl364628-1.jpg 2016-02-22 22:41 39K 
 sm1973-3.jpg 2016-02-22 22:48 39K 
 sm62074.jpg 2016-02-22 22:48 39K 
 sc00413001.jpg 2016-02-22 22:46 39K 
 si91101185_2.jpg 2016-02-22 22:47 39K 
 kt03030.jpg 2016-02-22 22:43 39K 
 T36PR1C1B.jpg 2016-02-22 22:49 39K 
 si07892350_2.jpg 2016-02-22 22:47 39K 
 si07892350.jpg 2016-02-22 22:47 39K 
 150073600101.jpg 2016-02-22 22:38 39K 
 150073500101.jpg 2016-02-22 22:38 39K 
 150073200101.jpg 2016-02-22 22:38 39K 
 150072900101.jpg 2016-02-22 22:38 39K 
 150072800101.jpg 2016-02-22 22:38 39K 
 150072600101.jpg 2016-02-22 22:38 39K 
 150072400101.jpg 2016-02-22 22:38 39K 
 AX6082_2.jpg 2016-02-22 22:39 39K 
 fl3609831_2_undercov..>2016-02-22 22:40 39K 
 hmr1jkaw4.jpg 2016-02-22 22:43 39K 
 hmr1jkaw3.jpg 2016-02-22 22:43 39K 
 hmr1jkaw2.jpg 2016-02-22 22:43 39K 
 hmr1jkaw1.jpg 2016-02-22 22:43 39K 
 hmr1jkaw0.jpg 2016-02-22 22:43 39K 
 fl3560020_1.jpg 2016-02-22 22:40 39K 
 fl3560020-1.jpg 2016-02-22 22:40 39K 
 pf0738.jpg 2016-02-22 22:44 39K 
 sm64105.jpg 2016-02-22 22:49 39K 
 sr12.jpg 2016-02-22 22:49 39K 
 AX6068_3.jpg 2016-02-22 22:39 39K 
 365539.jpg 2016-02-22 22:38 39K 
 fl734045_helm_fly.jpg 2016-02-22 22:42 39K 
 zu9514.jpg 2016-02-22 22:50 39K 
 ps3041s.jpg 2016-02-22 22:45 39K 
 si02103990_2.jpg 2016-02-22 22:46 39K 
 abreissfolien.jpg 2016-02-22 22:38 39K 
 pf7536xxyy.jpg 2016-02-22 22:44 39K 
 br07su26xx.jpg 2016-02-22 22:39 39K 
 ps9050b.jpg 2016-02-22 22:45 39K 
 cs55934.jpg 2016-02-22 22:39 39K 
 354-0031.jpg 2016-02-22 22:38 39K 
 zu222025.jpg 2016-02-22 22:50 39K 
 fl739151-2.jpg 2016-02-22 22:43 39K 
 AX6080_3.jpg 2016-02-22 22:39 39K 
 evosonarblue_back.jpg 2016-02-22 22:39 39K 
 si07880240_2.jpg 2016-02-22 22:47 39K 
 si07880240.jpg 2016-02-22 22:47 39K 
 si05662800_2.jpg 2016-02-22 22:46 39K 
 si05661800_2.jpg 2016-02-22 22:46 39K 
 si05660800_2.jpg 2016-02-22 22:46 39K 
 fl364-324.jpg 2016-02-22 22:41 39K 
 fl364122_1.jpg 2016-02-22 22:41 39K 
 fl364122-1.jpg 2016-02-22 22:41 39K 
 cs54298_2.jpg 2016-02-22 22:39 39K 
 fl3631100.jpg 2016-02-22 22:41 39K 
 ohho426.jpg 2016-02-22 22:44 39K 
 fl364424_1.jpg 2016-02-22 22:41 39K 
 fl364424-1.jpg 2016-02-22 22:41 39K 
 352-6040.jpg 2016-02-22 22:38 39K 
 fl739153-5.jpg 2016-02-22 22:43 39K 
 8538282.jpg 2016-02-22 22:38 39K 
 8538281.jpg 2016-02-22 22:38 39K 
 8538280.jpg 2016-02-22 22:38 39K 
 8538279.jpg 2016-02-22 22:38 39K 
 8538278.jpg 2016-02-22 22:38 39K 
 8538277.jpg 2016-02-22 22:38 39K 
 zt610p.jpg 2016-02-22 22:50 39K 
 bm676_1.jpg 2016-02-22 22:39 39K 
 AX6068_1.jpg 2016-02-22 22:39 39K 
 si20656990_2.jpg 2016-02-22 22:47 39K 
 fl365518_handschuhe_..>2016-02-22 22:41 39K 
 sm64003.jpg 2016-02-22 22:49 38K 
 S36D.jpg 2016-02-22 22:46 38K 
 fl3506180-1.jpg 2016-02-22 22:40 38K 
 kl231o.jpg 2016-02-22 22:43 38K 
 kl224o.jpg 2016-02-22 22:43 38K 
 kl211o.jpg 2016-02-22 22:43 38K 
 365511_1.jpg 2016-02-22 22:38 38K 
 zu9563.jpg 2016-02-22 22:50 38K 
 fgr300_1.jpg 2016-02-22 22:40 38K 
 150064800101.jpg 2016-02-22 22:38 38K 
 150064600101.jpg 2016-02-22 22:38 38K 
 150064300101.jpg 2016-02-22 22:38 38K 
 3540080_1.jpg 2016-02-22 22:38 38K 
 ax1262_1.jpg 2016-02-22 22:39 38K 
 110290000101.jpg 2016-02-22 22:36 38K 
 ax1195_1.jpg 2016-02-22 22:39 38K 
 285003.jpg 2016-02-22 22:38 38K 
 sm2040_intake_sweatx..>2016-02-22 22:48 38K 
 sm2040.jpg 2016-02-22 22:48 38K 
 cs55984_2.jpg 2016-02-22 22:39 38K 
 110130000801.jpg 2016-02-22 22:36 38K 
 pf7534xxyyy.jpg 2016-02-22 22:44 38K 
 brm049z04.jpg 2016-02-22 22:39 38K 
 pf7531xxxxx.jpg 2016-02-22 22:44 38K 
 öhap036_1.jpg 2016-02-22 22:50 38K 
 110440001001.jpg 2016-02-22 22:36 38K 
 110440000901.jpg 2016-02-22 22:36 38K 
 110440000801.jpg 2016-02-22 22:36 38K 
 110440000701.jpg 2016-02-22 22:36 38K 
 110440000501.jpg 2016-02-22 22:36 38K 
 ps4037b.jpg 2016-02-22 22:45 38K 
 fl365521_2_hemd_fly.jpg2016-02-22 22:41 38K 
 ax1262_4.jpg 2016-02-22 22:39 38K 
 stfdus210.jpg 2016-02-22 22:49 38K 
 si06600990_1.jpg 2016-02-22 22:46 38K 
 si01101990_1.jpg 2016-02-22 22:46 38K 
 si04105430_1.jpg 2016-02-22 22:46 38K 
 si04101430_1.jpg 2016-02-22 22:46 38K 
 kt15510120.jpg 2016-02-22 22:43 38K 
 fl364430_1.jpg 2016-02-22 22:41 38K 
 fl364430-1.jpg 2016-02-22 22:41 38K 
 pf0592_1053.jpg 2016-02-22 22:44 38K 
 AX1035_1.jpg 2016-02-22 22:39 38K 
 fl734733.jpg 2016-02-22 22:42 38K 
 fl366720_91.jpg 2016-02-22 22:41 38K 
 si03105360_2.jpg 2016-02-22 22:46 38K 
 si03101360_2.jpg 2016-02-22 22:46 38K 
 me4455.jpg 2016-02-22 22:44 38K 
 S46PR1C2B.jpg 2016-02-22 22:46 38K 
 usbtbag20.jpg 2016-02-22 22:49 38K 
 zu9568_1.jpg 2016-02-22 22:50 38K 
 re1442.jpg 2016-02-22 22:46 38K 
 365042.jpg 2016-02-22 22:38 38K 
 fl3520111.jpg 2016-02-22 22:40 38K 
 AX1051_3.jpg 2016-02-22 22:39 38K 
 pf75349510.jpg 2016-02-22 22:44 38K 
 cm5205gr.jpg 2016-02-22 22:39 38K 
 pf0639_0960.jpg 2016-02-22 22:44 38K 
 fo3101210.jpg 2016-02-22 22:43 38K 
 cs56388_2.jpg 2016-02-22 22:39 38K 
 fl365110_2_handschuh..>2016-02-22 22:41 38K 
 re1413.jpg 2016-02-22 22:46 38K 
 fl3520041.jpg 2016-02-22 22:40 38K 
 kl231b.jpg 2016-02-22 22:43 38K 
 kl224b.jpg 2016-02-22 22:43 38K 
 kl211b.jpg 2016-02-22 22:43 38K 
 br07ya22tt.jpg 2016-02-22 22:39 38K 
 AX3058_1.jpg 2016-02-22 22:39 38K 
 fl364424.jpg 2016-02-22 22:41 38K 
 pf0919.jpg 2016-02-22 22:44 38K 
 si71121286.jpg 2016-02-22 22:47 38K 
 br208a98513.jpg 2016-02-22 22:39 38K 
 sc00428012.jpg 2016-02-22 22:46 38K 
 si06620990_1.jpg 2016-02-22 22:46 38K 
 mua00ap003.jpg 2016-02-22 22:44 38K 
 sm62068.jpg 2016-02-22 22:48 38K 
 fl733487_helm_fly.jpg 2016-02-22 22:42 38K 
 si02105360_3.jpg 2016-02-22 22:46 38K 
 si02101360_3.jpg 2016-02-22 22:46 38K 
 ps8930.jpg 2016-02-22 22:45 38K 
 si04101650_1.jpg 2016-02-22 22:46 38K 
 fl360973.jpg 2016-02-22 22:40 38K 
 befestigung.jpg 2016-02-22 22:39 38K 
 fl3631101_1.jpg 2016-02-22 22:41 38K 
 fl3631101-1.jpg 2016-02-22 22:41 38K 
 fl3510012_1.jpg 2016-02-22 22:40 38K 
 fl3510012-1.jpg 2016-02-22 22:40 38K 
 br07ya2106.jpg 2016-02-22 22:39 38K 
 s46dr1b_4.jpg 2016-02-22 22:46 38K 
 pf0394.jpg 2016-02-22 22:44 38K 
 zu222906.jpg 2016-02-22 22:50 38K 
 si03105360_1.jpg 2016-02-22 22:46 38K 
 si03101360_1.jpg 2016-02-22 22:46 38K 
 sm62027_1.jpg 2016-02-22 22:48 38K 
 hmrve13u4.jpg 2016-02-22 22:43 38K 
 fl3566010_1.jpg 2016-02-22 22:40 38K 
 fl3566010-1.jpg 2016-02-22 22:40 38K 
 stsdu230sw.jpg 2016-02-22 22:49 38K 
 fl3631102_1.jpg 2016-02-22 22:41 38K 
 fl3631102-1.jpg 2016-02-22 22:41 38K 
 zu1606_2.jpg 2016-02-22 22:50 38K 
 733485.jpg 2016-02-22 22:38 38K 
 fl364238_1.jpg 2016-02-22 22:41 38K 
 fl364238-1.jpg 2016-02-22 22:41 38K 
 sc00418001.jpg 2016-02-22 22:46 38K 
 se1406134.jpg 2016-02-22 22:46 38K 
 fl365128_1_hemd_fly.jpg2016-02-22 22:41 38K 
 AX6090_3.jpg 2016-02-22 22:39 38K 
 110200000401.jpg 2016-02-22 22:36 38K 
 cs55458_2.jpg 2016-02-22 22:39 38K 
 fl3531500.jpg 2016-02-22 22:40 38K 
 zu4810.jpg 2016-02-22 22:50 38K 
 fl364214_1.jpg 2016-02-22 22:41 38K 
 fl364214-1.jpg 2016-02-22 22:41 38K 
 fl285050_2.jpg 2016-02-22 22:40 38K 
 fl285050-2.jpg 2016-02-22 22:40 38K 
 si20675990_2.jpg 2016-02-22 22:47 38K 
 S46PR1C1.jpg 2016-02-22 22:46 38K 
 fl365122_3_hemd_fly.jpg2016-02-22 22:41 38K 
 se1406137.jpg 2016-02-22 22:46 38K 
 AX6062_3.jpg 2016-02-22 22:39 38K 
 si20676990_2.jpg 2016-02-22 22:47 38K 
 si05662990_1.jpg 2016-02-22 22:46 38K 
 si05661990_1.jpg 2016-02-22 22:46 38K 
 si05660990_1.jpg 2016-02-22 22:46 38K 
 ax1294_3.jpg 2016-02-22 22:39 38K 
 fgrt_3.jpg 2016-02-22 22:40 38K 
 F16RdBk_front.jpg 2016-02-22 22:39 38K 
 stsun070r.jpg 2016-02-22 22:49 38K 
 evosonargreen_back.jpg 2016-02-22 22:39 38K 
 fl367131.jpg 2016-02-22 22:41 38K 
 fl362599-3.jpg 2016-02-22 22:41 38K 
 S36K_2.jpg 2016-02-22 22:46 38K 
 ve2087.jpg 2016-02-22 22:49 38K 
 3510176_1.jpg 2016-02-22 22:38 38K 
 si20620980_2.jpg 2016-02-22 22:47 38K 
 si20600980_2.jpg 2016-02-22 22:47 38K 
 sm1971-1.jpg 2016-02-22 22:48 38K 
 stsun320_2.jpg 2016-02-22 22:49 38K 
 sm64013.jpg 2016-02-22 22:49 37K 
 si94109430_2.jpg 2016-02-22 22:47 37K 
 fl3566048.jpg 2016-02-22 22:40 37K 
 pf0460.jpg 2016-02-22 22:44 37K 
 ax1255_1.jpg 2016-02-22 22:39 37K 
 fl3526086_2_shirt_fl..>2016-02-22 22:40 37K 
 AX1051_2.jpg 2016-02-22 22:39 37K 
 fl3560010_1.jpg 2016-02-22 22:40 37K 
 fl3560010-1.jpg 2016-02-22 22:40 37K 
 ps1033s.jpg 2016-02-22 22:44 37K 
 AX6086_2.jpg 2016-02-22 22:39 37K 
 F16BlWt_back.jpg 2016-02-22 22:39 37K 
 S46HR1C1LS_2.jpg 2016-02-22 22:46 37K 
 sm8054.jpg 2016-02-22 22:49 37K 
 ze423101.jpg 2016-02-22 22:49 37K 
 pf1204.jpg 2016-02-22 22:44 37K 
 ohkt302.jpg 2016-02-22 22:44 37K 
 S46DR1.jpg 2016-02-22 22:46 37K 
 365138.jpg 2016-02-22 22:38 37K 
 cs55868_1.jpg 2016-02-22 22:39 37K 
 sm2035_intake_sweatx..>2016-02-22 22:48 37K 
 AX1135_4.jpg 2016-02-22 22:39 37K 
 AX1135_2.jpg 2016-02-22 22:39 37K 
 pf0447.jpg 2016-02-22 22:44 37K 
 sc00411001.jpg 2016-02-22 22:46 37K 
 cm5214.jpg 2016-02-22 22:39 37K 
 si20660880_3.jpg 2016-02-22 22:47 37K 
 se1406137_2.jpg 2016-02-22 22:46 37K 
 pf0590.jpg 2016-02-22 22:44 37K 
 se1406138_2.jpg 2016-02-22 22:46 37K 
 zu8912r.jpg 2016-02-22 22:50 37K 
 zu8912l.jpg 2016-02-22 22:50 37K 
 F16BlWt_front.jpg 2016-02-22 22:39 37K 
 T36PR1C1LB_3.jpg 2016-02-22 22:49 37K 
 si91121355_2.jpg 2016-02-22 22:47 37K 
 zu4810_1.jpg 2016-02-22 22:50 37K 
 r-evok911.jpg 2016-02-22 22:45 37K 
 kl231g.jpg 2016-02-22 22:43 37K 
 kl224g.jpg 2016-02-22 22:43 37K 
 kl211g.jpg 2016-02-22 22:43 37K 
 ps8902-1.jpg 2016-02-22 22:45 37K 
 fl363109.jpg 2016-02-22 22:41 37K 
 110450000501.jpg 2016-02-22 22:36 37K 
 110450000401.jpg 2016-02-22 22:36 37K 
 110450000301.jpg 2016-02-22 22:36 37K 
 110450000201.jpg 2016-02-22 22:36 37K 
 110450000101.jpg 2016-02-22 22:36 37K 
 fl3520046_1.jpg 2016-02-22 22:40 37K 
 fl3520046-1.jpg 2016-02-22 22:40 37K 
 si04102650_3.jpg 2016-02-22 22:46 37K 
 pf4362.jpg 2016-02-22 22:44 37K 
 fl364-233.jpg 2016-02-22 22:41 37K 
 sm8000.jpg 2016-02-22 22:49 37K 
 ps60026.jpg 2016-02-22 22:45 37K 
 hd159_3.jpg 2016-02-22 22:43 37K 
 sm9020.jpg 2016-02-22 22:49 37K 
 zu9517.jpg 2016-02-22 22:50 37K 
 fo27098.jpg 2016-02-22 22:43 37K 
 fl734032_helm_fly.jpg 2016-02-22 22:42 37K 
 si20661800_3.jpg 2016-02-22 22:47 37K 
 8538327.jpg 2016-02-22 22:38 37K 
 8538326.jpg 2016-02-22 22:38 37K 
 8538325.jpg 2016-02-22 22:38 37K 
 8538324.jpg 2016-02-22 22:38 37K 
 8538323.jpg 2016-02-22 22:38 37K 
 8538322.jpg 2016-02-22 22:38 37K 
 hmr1psaw4.jpg 2016-02-22 22:43 37K 
 hmr1psaw2.jpg 2016-02-22 22:43 37K 
 hmr1psaw1.jpg 2016-02-22 22:43 37K 
 hmr1psaw0.jpg 2016-02-22 22:43 37K 
 ps60022.jpg 2016-02-22 22:45 37K 
 si20662800_3.jpg 2016-02-22 22:47 37K 
 cs51718_2.jpg 2016-02-22 22:39 37K 
 fl353140-2.jpg 2016-02-22 22:40 37K 
 hmr1psaw3.jpg 2016-02-22 22:43 37K 
 re1335wb.jpg 2016-02-22 22:45 37K 
 tu2027r.jpg 2016-02-22 22:49 37K 
 tu2026r.jpg 2016-02-22 22:49 37K 
 pf0396.jpg 2016-02-22 22:44 37K 
 fl366018.jpg 2016-02-22 22:41 37K 
 360-9850.jpg 2016-02-22 22:38 37K 
 fl-pants-no-image.jpg 2016-02-22 22:40 37K 
 sm64103.jpg 2016-02-22 22:49 37K 
 pf1299.jpg 2016-02-22 22:44 37K 
 fl360001.jpg 2016-02-22 22:40 37K 
 fl365138_hose_fly.jpg 2016-02-22 22:41 37K 
 fl3609363_2.jpg 2016-02-22 22:40 37K 
 fl3609363-2.jpg 2016-02-22 22:40 37K 
 si81415001.jpg 2016-02-22 22:47 37K 
 si20157990_3.jpg 2016-02-22 22:47 37K 
 si94102001_2.jpg 2016-02-22 22:47 37K 
 365040.jpg 2016-02-22 22:38 37K 
 mg0720543.jpg 2016-02-22 22:44 37K 
 sm2031_intake_sweatx..>2016-02-22 22:48 37K 
 sm2031.jpg 2016-02-22 22:48 37K 
 fl3520240.jpg 2016-02-22 22:40 37K 
 365520_2.jpg 2016-02-22 22:38 37K 
 fl285022_2.jpg 2016-02-22 22:40 37K 
 fl478101_hose_fly.jpg 2016-02-22 22:42 37K 
 si20657990_3.jpg 2016-02-22 22:47 37K 
 sr33m.jpg 2016-02-22 22:49 37K 
 sr30m.jpg 2016-02-22 22:49 37K 
 zu1245_w.jpg 2016-02-22 22:50 37K 
 tu2027b.jpg 2016-02-22 22:49 37K 
 tu2026b.jpg 2016-02-22 22:49 37K 
 mua02ap007.jpg 2016-02-22 22:44 37K 
 s36pr1c1lb.jpg 2016-02-22 22:46 37K 
 KineticMeshRSRdWt_ba..>2016-02-22 22:43 37K 
 8538289.jpg 2016-02-22 22:38 37K 
 ce2183.jpg 2016-02-22 22:39 37K 
 ce2182.jpg 2016-02-22 22:39 37K 
 si04105360_2.jpg 2016-02-22 22:46 37K 
 si04101360_2.jpg 2016-02-22 22:46 37K 
 si20004780_2.jpg 2016-02-22 22:47 37K 
 fl365052_1.jpg 2016-02-22 22:41 37K 
 sm64203.jpg 2016-02-22 22:49 37K 
 fl3520046.jpg 2016-02-22 22:40 37K 
 si04105450_2.jpg 2016-02-22 22:46 37K 
 si04101450_2.jpg 2016-02-22 22:46 37K 
 ps1033r.jpg 2016-02-22 22:44 37K 
 sm2036.jpg 2016-02-22 22:48 37K 
 se1406138_4.jpg 2016-02-22 22:46 37K 
 br07bb1907.jpg 2016-02-22 22:39 37K 
 muv04ap007.jpg 2016-02-22 22:44 37K 
 gttcark_3.jpg 2016-02-22 22:43 37K 
 8538294.jpg 2016-02-22 22:38 37K 
 8538293.jpg 2016-02-22 22:38 37K 
 8538292.jpg 2016-02-22 22:38 37K 
 8538291.jpg 2016-02-22 22:38 37K 
 8538290.jpg 2016-02-22 22:38 37K 
 si20024460_3.jpg 2016-02-22 22:47 37K 
 356-0140.jpg 2016-02-22 22:38 37K 
 364620_4.jpg 2016-02-22 22:38 37K 
 se1406138.jpg 2016-02-22 22:46 37K 
 ps8904-1.jpg 2016-02-22 22:45 37K 
 tu2027o.jpg 2016-02-22 22:49 37K 
 tu2026o.jpg 2016-02-22 22:49 37K 
 cs51667_2.jpg 2016-02-22 22:39 37K 
 muv12bm_3.jpg 2016-02-22 22:44 37K 
 AX6051_3.jpg 2016-02-22 22:39 37K 
 fl365229_3_hemd_fly.jpg2016-02-22 22:41 37K 
 fl739154-3.jpg 2016-02-22 22:43 37K 
 sc00428005.jpg 2016-02-22 22:46 37K 
 sc00428004.jpg 2016-02-22 22:46 37K 
 sc00428002.jpg 2016-02-22 22:46 37K 
 sc00416002.jpg 2016-02-22 22:46 37K 
 ps2039s.jpg 2016-02-22 22:44 37K 
 si05657990_3.jpg 2016-02-22 22:46 37K 
 365520_3.jpg 2016-02-22 22:38 37K 
 zu96353_3.jpg 2016-02-22 22:50 37K 
 zt620p.jpg 2016-02-22 22:50 37K 
 si02105450_3.jpg 2016-02-22 22:46 37K 
 si02101450_3.jpg 2016-02-22 22:46 37K 
 fl353067_1.jpg 2016-02-22 22:40 37K 
 zu1452.jpg 2016-02-22 22:50 37K 
 ab271118.jpg 2016-02-22 22:38 37K 
 ax1195_3.jpg 2016-02-22 22:39 36K 
 130062500101.jpg 2016-02-22 22:37 36K 
 fl3524074.jpg 2016-02-22 22:40 36K 
 zu8908.jpg 2016-02-22 22:50 36K 
 zudp71034.jpg 2016-02-22 22:50 36K 
 fl3585060.jpg 2016-02-22 22:40 36K 
 fl3526086_1_shirt_fl..>2016-02-22 22:40 36K 
 fl353140.jpg 2016-02-22 22:40 36K 
 fl3560038_1.jpg 2016-02-22 22:40 36K 
 fl3560038-1.jpg 2016-02-22 22:40 36K 
 ps1028r.jpg 2016-02-22 22:44 36K 
 stfdus230.jpg 2016-02-22 22:49 36K 
 stsdur080r.jpg 2016-02-22 22:49 36K 
 AX6083_2.jpg 2016-02-22 22:39 36K 
 si97450286.jpg 2016-02-22 22:47 36K 
 zu1591940.jpg 2016-02-22 22:50 36K 
 hms1tpam6.jpg 2016-02-22 22:43 36K 
 hms1tpam5.jpg 2016-02-22 22:43 36K 
 hms1tpam4.jpg 2016-02-22 22:43 36K 
 hms1tpam3.jpg 2016-02-22 22:43 36K 
 hms1tpam2.jpg 2016-02-22 22:43 36K 
 hms1tpam1.jpg 2016-02-22 22:43 36K 
 si06620990_3.jpg 2016-02-22 22:46 36K 
 si06600990_3.jpg 2016-02-22 22:46 36K 
 pf0737.jpg 2016-02-22 22:44 36K 
 S46HR1C1_2.jpg 2016-02-22 22:46 36K 
 si04102360_3.jpg 2016-02-22 22:46 36K 
 fl3605048.jpg 2016-02-22 22:40 36K 
 re92101s.jpg 2016-02-22 22:46 36K 
 fl3510097.jpg 2016-02-22 22:40 36K 
 br208973725.jpg 2016-02-22 22:39 36K 
 sc00414006.jpg 2016-02-22 22:46 36K 
 sc00414002.jpg 2016-02-22 22:46 36K 
 sc00414001.jpg 2016-02-22 22:46 36K 
 sm2038-2.jpg 2016-02-22 22:48 36K 
 fl3605048_1.jpg 2016-02-22 22:40 36K 
 fl3605048-1.jpg 2016-02-22 22:40 36K 
 mg0417560.jpg 2016-02-22 22:44 36K 
 si91121355_3.jpg 2016-02-22 22:47 36K 
 gedk0816.jpg 2016-02-22 22:43 36K 
 ps4024b.jpg 2016-02-22 22:45 36K 
 si20600990_3.jpg 2016-02-22 22:47 36K 
 si2062099_3.jpg 2016-02-22 22:47 36K 
 150290000701.jpg 2016-02-22 22:38 36K 
 110100000101.jpg 2016-02-22 22:36 36K 
 ps7101.jpg 2016-02-22 22:45 36K 
 fl363122.jpg 2016-02-22 22:41 36K 
 pf0594.jpg 2016-02-22 22:44 36K 
 pf0558.jpg 2016-02-22 22:44 36K 
 pf7856.jpg 2016-02-22 22:44 36K 
 sm70206-2.jpg 2016-02-22 22:49 36K 
 25ids.jpg 2016-02-22 22:38 36K 
 br108a46215.jpg 2016-02-22 22:39 36K 
 fl365229_1_hemd_fly.jpg2016-02-22 22:41 36K 
 fl3540013_2.jpg 2016-02-22 22:40 36K 
 fl3540013-2.jpg 2016-02-22 22:40 36K 
 tu1099.jpg 2016-02-22 22:49 36K 
 fl3609363_1.jpg 2016-02-22 22:40 36K 
 fl3609363-1.jpg 2016-02-22 22:40 36K 
 sm1923_fuel_smith.jpg 2016-02-22 22:48 36K 
 sm1923.jpg 2016-02-22 22:48 36K 
 stfsum100.jpg 2016-02-22 22:49 36K 
 stfsum020.jpg 2016-02-22 22:49 36K 
 110450000701.jpg 2016-02-22 22:36 36K 
 110440000201.jpg 2016-02-22 22:36 36K 
 mr1623700.jpg 2016-02-22 22:44 36K 
 kt25510320.jpg 2016-02-22 22:44 36K 
 fl365233_hose_fly.jpg 2016-02-22 22:41 36K 
 8538309.jpg 2016-02-22 22:38 36K 
 8538307.jpg 2016-02-22 22:38 36K 
 8538306.jpg 2016-02-22 22:38 36K 
 8538305.jpg 2016-02-22 22:38 36K 
 8538308.jpg 2016-02-22 22:38 36K 
 fl363390_1.jpg 2016-02-22 22:41 36K 
 fl363390-1.jpg 2016-02-22 22:41 36K 
 zu3506.jpg 2016-02-22 22:50 36K 
 zu3001.jpg 2016-02-22 22:50 36K 
 cm2651b.jpg 2016-02-22 22:39 36K 
 öhap036_2.jpg 2016-02-22 22:50 36K 
 sm1973-2.jpg 2016-02-22 22:48 36K 
 sc00460001.jpg 2016-02-22 22:46 36K 
 365233.jpg 2016-02-22 22:38 36K 
 7727.png 2016-02-22 22:38 36K 
 zu3151.jpg 2016-02-22 22:50 36K 
 si02105650_3.jpg 2016-02-22 22:46 36K 
 si02101650_3.jpg 2016-02-22 22:46 36K 
 fl3510018.jpg 2016-02-22 22:40 36K 
 re97101g.jpg 2016-02-22 22:46 36K 
 re78403g.jpg 2016-02-22 22:46 36K 
 S46ER1.jpg 2016-02-22 22:46 36K 
 fl3510082_1.jpg 2016-02-22 22:40 36K 
 fl3510082-1.jpg 2016-02-22 22:40 36K 
 cs56987_2.jpg 2016-02-22 22:39 36K 
 si03105450_2.jpg 2016-02-22 22:46 36K 
 si03101450_2.jpg 2016-02-22 22:46 36K 
 se1406132.jpg 2016-02-22 22:46 36K 
 tu2027g.jpg 2016-02-22 22:49 36K 
 tu2026g.jpg 2016-02-22 22:49 36K 
 zu9579.jpg 2016-02-22 22:50 36K 
 ohnismi10_2.jpg 2016-02-22 22:44 36K 
 oh019205.jpg 2016-02-22 22:44 36K 
 fl364111_1.jpg 2016-02-22 22:41 36K 
 fl364111-1.jpg 2016-02-22 22:41 36K 
 as105030-3.jpg 2016-02-22 22:39 36K 
 S46HR1C1LS_1.jpg 2016-02-22 22:46 36K 
 pf0918.jpg 2016-02-22 22:44 36K 
 sc00446001.jpg 2016-02-22 22:46 36K 
 si91121021_3.jpg 2016-02-22 22:47 36K 
 AX1141_2.jpg 2016-02-22 22:39 36K 
 ps4033b.jpg 2016-02-22 22:45 36K 
 si20022360_2.jpg 2016-02-22 22:47 36K 
 si57431430.jpg 2016-02-22 22:47 36K 
 ps8040si-4.jpg 2016-02-22 22:45 36K 
 fl733902.jpg 2016-02-22 22:42 36K 
 fl352-0065.jpg 2016-02-22 22:40 36K 
 sm2033_intake_sweatx..>2016-02-22 22:48 36K 
 fl3560020.jpg 2016-02-22 22:40 36K 
 fl3605043.jpg 2016-02-22 22:40 36K 
 at1220.jpg 2016-02-22 22:39 36K 
 sc00461001.jpg 2016-02-22 22:46 36K 
 fl3605043_1.jpg 2016-02-22 22:40 36K 
 fl3605043-1.jpg 2016-02-22 22:40 36K 
 fl734039_helm_fly.jpg 2016-02-22 22:42 36K 
 fl364231.jpg 2016-02-22 22:41 36K 
 si91104286_3.jpg 2016-02-22 22:47 36K 
 kl231gr.jpg 2016-02-22 22:43 36K 
 kl224gr.jpg 2016-02-22 22:43 36K 
 kl211gr.jpg 2016-02-22 22:43 36K 
 cm2652s.jpg 2016-02-22 22:39 36K 
 stfhns060.jpg 2016-02-22 22:49 36K 
 3510190_1.jpg 2016-02-22 22:38 36K 
 KineticInvBkWt_front..>2016-02-22 22:43 36K 
 fl3510030_1.jpg 2016-02-22 22:40 36K 
 fl3510030-1.jpg 2016-02-22 22:40 36K 
 Moto.jpg 2016-02-22 22:44 36K 
 AX6083_1.jpg 2016-02-22 22:39 36K 
 stfyas110.jpg 2016-02-22 22:49 36K 
 fl739152-3.jpg 2016-02-22 22:43 36K 
 pf7780.jpg 2016-02-22 22:44 36K 
 fl3566059_1.jpg 2016-02-22 22:40 36K 
 hmr1swam6.jpg 2016-02-22 22:43 36K 
 hmr1swam5.jpg 2016-02-22 22:43 36K 
 hmr1swam4.jpg 2016-02-22 22:43 36K 
 hmr1swam3.jpg 2016-02-22 22:43 36K 
 hmr1swam2.jpg 2016-02-22 22:43 36K 
 hmr1swam1.jpg 2016-02-22 22:43 36K 
 110480002901.jpg 2016-02-22 22:36 36K 
 110190001001.jpg 2016-02-22 22:36 36K 
 zu222075.jpg 2016-02-22 22:50 36K 
 110480003001.jpg 2016-02-22 22:36 36K 
 110480002801.jpg 2016-02-22 22:36 36K 
 110480002701.jpg 2016-02-22 22:36 36K 
 110480002601.jpg 2016-02-22 22:36 36K 
 11048000901.jpg 2016-02-22 22:36 36K 
 sm1973-1.jpg 2016-02-22 22:48 36K 
 fl364138.jpg 2016-02-22 22:41 36K 
 stfkws060.jpg 2016-02-22 22:49 36K 
 stfkws050.jpg 2016-02-22 22:49 36K 
 stfkws040.jpg 2016-02-22 22:49 36K 
 stfkws030.jpg 2016-02-22 22:49 36K 
 zu9580_4.jpg 2016-02-22 22:50 36K 
 zu855664-2.jpg 2016-02-22 22:50 36K 
 si02104990_1.jpg 2016-02-22 22:46 36K 
 ps7030.jpg 2016-02-22 22:45 36K 
 fl362600-2.jpg 2016-02-22 22:41 36K 
 sm1978-2.jpg 2016-02-22 22:48 36K 
 fl733493_1.jpg 2016-02-22 22:42 36K 
 fl733493-1.jpg 2016-02-22 22:42 36K 
 sm1972-2.jpg 2016-02-22 22:48 36K 
 ps30361gs.jpg 2016-02-22 22:45 36K 
 tu1137.jpg 2016-02-22 22:49 36K 
 pf7573xxyy.jpg 2016-02-22 22:44 36K 
 brm029z04.jpg 2016-02-22 22:39 36K 
 xt090180001xt.jpg 2016-02-22 22:49 36K 
 tu2023b.jpg 2016-02-22 22:49 35K 
 AX6090_2.jpg 2016-02-22 22:39 35K 
 AX1139_2.jpg 2016-02-22 22:39 35K 
 ps8040si-1.jpg 2016-02-22 22:45 35K 
 ps9107.jpg 2016-02-22 22:45 35K 
 re99401o.jpg 2016-02-22 22:46 35K 
 pf1247_7793.jpg 2016-02-22 22:44 35K 
 mg0721821.jpg 2016-02-22 22:44 35K 
 fl3510010_1.jpg 2016-02-22 22:40 35K 
 fl3510010-1.jpg 2016-02-22 22:40 35K 
 pf0687.jpg 2016-02-22 22:44 35K 
 fl364215_1.jpg 2016-02-22 22:41 35K 
 fl364215-1.jpg 2016-02-22 22:41 35K 
 zu1657.jpg 2016-02-22 22:50 35K 
 fl365510_1_handschuh..>2016-02-22 22:41 35K 
 stfhnm020.jpg 2016-02-22 22:49 35K 
 pf1060.jpg 2016-02-22 22:44 35K 
 si75858001.jpg 2016-02-22 22:47 35K 
 stfapm020.jpg 2016-02-22 22:49 35K 
 8542501.jpg 2016-02-22 22:38 35K 
 110110000301.jpg 2016-02-22 22:36 35K 
 cs51738_2.jpg 2016-02-22 22:39 35K 
 365239.jpg 2016-02-22 22:38 35K 
 pw3006.jpg 2016-02-22 22:45 35K 
 pf7700.jpg 2016-02-22 22:44 35K 
 si04101650_2.jpg 2016-02-22 22:46 35K 
 se1406138_3.jpg 2016-02-22 22:46 35K 
 pf7871.jpg 2016-02-22 22:44 35K 
 fl733494_1.jpg 2016-02-22 22:42 35K 
 fl733494-1.jpg 2016-02-22 22:42 35K 
 AX1141_1.jpg 2016-02-22 22:39 35K 
 si01104350_1.jpg 2016-02-22 22:46 35K 
 pf7818.jpg 2016-02-22 22:44 35K 
 365229_2.jpg 2016-02-22 22:38 35K 
 as105020-3.jpg 2016-02-22 22:38 35K 
 fl3510031.jpg 2016-02-22 22:40 35K 
 rehg100r.jpg 2016-02-22 22:46 35K 
 AX1112_1.jpg 2016-02-22 22:39 35K 
 fl365418_2_handschuh..>2016-02-22 22:41 35K 
 si91104021_1.jpg 2016-02-22 22:47 35K 
 fl3622205_1.jpg 2016-02-22 22:40 35K 
 fl3622205-1.jpg 2016-02-22 22:40 35K 
 ps6103_2.jpg 2016-02-22 22:45 35K 
 stsdu0010.jpg 2016-02-22 22:49 35K 
 smline_2.jpg 2016-02-22 22:49 35K 
 sm1975-1.jpg 2016-02-22 22:48 35K 
 fl364444_1.jpg 2016-02-22 22:41 35K 
 fl364444-1.jpg 2016-02-22 22:41 35K 
 tu1127.jpg 2016-02-22 22:49 35K 
 fl365239_hose_fly.jpg 2016-02-22 22:41 35K 
 klspst04.jpg 2016-02-22 22:43 35K 
 mg0723165.jpg 2016-02-22 22:44 35K 
 sm8056.jpg 2016-02-22 22:49 35K 
 zu1900r.jpg 2016-02-22 22:50 35K 
 cm2646s.jpg 2016-02-22 22:39 35K 
 365320_1.jpg 2016-02-22 22:38 35K 
 stfyam040.jpg 2016-02-22 22:49 35K 
 fl3520419-2.jpg 2016-02-22 22:40 35K 
 re292520.jpg 2016-02-22 22:46 35K 
 fl3520690-2.jpg 2016-02-22 22:40 35K 
 si91121021_2.jpg 2016-02-22 22:47 35K 
 si20656990_3.jpg 2016-02-22 22:47 35K 
 si07890990_2.jpg 2016-02-22 22:47 35K 
 si07890990.jpg 2016-02-22 22:47 35K 
 s46pr1c2.jpg 2016-02-22 22:46 35K 
 fl739154-5.jpg 2016-02-22 22:43 35K 
 fl365235_hose_fly.jpg 2016-02-22 22:41 35K 
 re99601b.jpg 2016-02-22 22:46 35K 
 ax1250_2.jpg 2016-02-22 22:39 35K 
 stfhds020.jpg 2016-02-22 22:49 35K 
 si20024360_3.jpg 2016-02-22 22:47 35K 
 ax1250_3.jpg 2016-02-22 22:39 35K 
 zu9564-1.jpg 2016-02-22 22:50 35K 
 hm033.jpg 2016-02-22 22:43 35K 
 sc00437001.jpg 2016-02-22 22:46 35K 
 si03105450_1.jpg 2016-02-22 22:46 35K 
 si03101450_1.jpg 2016-02-22 22:46 35K 
 fl3609363.jpg 2016-02-22 22:40 35K 
 sc00437003.jpg 2016-02-22 22:46 35K 
 110200000301.jpg 2016-02-22 22:36 35K 
 ps84578g.jpg 2016-02-22 22:45 35K 
 ps84560g.jpg 2016-02-22 22:45 35K 
 ps84559g.jpg 2016-02-22 22:45 35K 
 sc00437002.jpg 2016-02-22 22:46 35K 
 cm2651r.jpg 2016-02-22 22:39 35K 
 pf75359508.jpg 2016-02-22 22:44 35K 
 fl367237_1.jpg 2016-02-22 22:41 35K 
 cm5213r.jpg 2016-02-22 22:39 35K 
 T36PR1C1LB.jpg 2016-02-22 22:49 35K 
 365121_1.jpg 2016-02-22 22:38 35K 
 fl4772032_jacke_fly.jpg2016-02-22 22:42 35K 
 fl3560149.jpg 2016-02-22 22:40 35K 
 fl3560278.jpg 2016-02-22 22:40 35K 
 mg0720474.jpg 2016-02-22 22:44 35K 
 110220000501.jpg 2016-02-22 22:36 35K 
 bm676.jpg 2016-02-22 22:39 35K 
 si20031985_2.jpg 2016-02-22 22:47 35K 
 vn1120.jpg 2016-02-22 22:49 35K 
 si05652990_1.jpg 2016-02-22 22:46 35K 
 si05651990_1.jpg 2016-02-22 22:46 35K 
 si05650990_1.jpg 2016-02-22 22:46 35K 
 fl3605039.jpg 2016-02-22 22:40 35K 
 zu159011.jpg 2016-02-22 22:50 35K 
 br0626mq30.jpg 2016-02-22 22:39 35K 
 re82501o.jpg 2016-02-22 22:46 35K 
 stfhds010.jpg 2016-02-22 22:49 35K 
 si87201430.jpg 2016-02-22 22:47 35K 
 fl3605039_1.jpg 2016-02-22 22:40 35K 
 fl3605039-1.jpg 2016-02-22 22:40 35K 
 si91126430_3.jpg 2016-02-22 22:47 35K 
 rehg100o.jpg 2016-02-22 22:46 35K 
 si04105430_2.jpg 2016-02-22 22:46 35K 
 si04101430_2.jpg 2016-02-22 22:46 35K 
 AX1135_3.jpg 2016-02-22 22:39 35K 
 dd23002.jpg 2016-02-22 22:39 35K 
 si07892240_2.jpg 2016-02-22 22:47 35K 
 si07892240.jpg 2016-02-22 22:47 35K 
 pf0561.jpg 2016-02-22 22:44 35K 
 zu9317.jpg 2016-02-22 22:50 35K 
 fl734010.jpg 2016-02-22 22:42 35K 
 ps2022s.jpg 2016-02-22 22:44 35K 
 sm62027.jpg 2016-02-22 22:48 35K 
 sm62037.jpg 2016-02-22 22:48 35K 
 ps7002.jpg 2016-02-22 22:45 35K 
 zu1651-1.jpg 2016-02-22 22:50 35K 
 si01104450_1.jpg 2016-02-22 22:46 35K 
 fl365218_1_handschuh..>2016-02-22 22:41 35K 
 stadu0050.jpg 2016-02-22 22:49 35K 
 stadu0041.jpg 2016-02-22 22:49 35K 
 stadu0040.jpg 2016-02-22 22:49 35K 
 stadu0030.jpg 2016-02-22 22:49 35K 
 3510141_2.jpg 2016-02-22 22:38 35K 
 kt12513010.jpg 2016-02-22 22:43 35K 
 fl364131_1.jpg 2016-02-22 22:41 35K 
 fl364131-1.jpg 2016-02-22 22:41 35K 
 fl3560273.jpg 2016-02-22 22:40 35K 
 pf7745.jpg 2016-02-22 22:44 35K 
 285005_1.jpg 2016-02-22 22:38 34K 
 285005.jpg 2016-02-22 22:38 34K 
 sc00411005.jpg 2016-02-22 22:46 34K 
 sc00411004.jpg 2016-02-22 22:46 34K 
 fl368994.jpg 2016-02-22 22:42 34K 
 si91116430_3.jpg 2016-02-22 22:47 34K 
 150350000110.jpg 2016-02-22 22:38 34K 
 zu160001.jpg 2016-02-22 22:50 34K 
 tu1186.jpg 2016-02-22 22:49 34K 
 si03105360_3.jpg 2016-02-22 22:46 34K 
 si03101360_3.jpg 2016-02-22 22:46 34K 
 S46HR1C1LS_3.jpg 2016-02-22 22:46 34K 
 fl-jerseys-no-image.jpg2016-02-22 22:40 34K 
 vn1220.jpg 2016-02-22 22:49 34K 
 sm62036.jpg 2016-02-22 22:48 34K 
 sm62026.jpg 2016-02-22 22:48 34K 
 AX6083_3.jpg 2016-02-22 22:39 34K 
 fl364220.jpg 2016-02-22 22:41 34K 
 rehg100wt.jpg 2016-02-22 22:46 34K 
 stfyas070.jpg 2016-02-22 22:49 34K 
 ohbmsmi00_3.jpg 2016-02-22 22:44 34K 
 fl739152-5.jpg 2016-02-22 22:43 34K 
 fl365223_1_hemd_fly.jpg2016-02-22 22:41 34K 
 muv12bm_1.jpg 2016-02-22 22:44 34K 
 ab281116.jpg 2016-02-22 22:38 34K 
 pf1001_7781.jpg 2016-02-22 22:44 34K 
 pf0939.jpg 2016-02-22 22:44 34K 
 zu1900b.jpg 2016-02-22 22:50 34K 
 120520000201.jpg 2016-02-22 22:37 34K 
 me4456b.jpg 2016-02-22 22:44 34K 
 fl3560038_2.jpg 2016-02-22 22:40 34K 
 fl3560038-2.jpg 2016-02-22 22:40 34K 
 rehg100b.jpg 2016-02-22 22:46 34K 
 re1335b.jpg 2016-02-22 22:45 34K 
 si20660990_2.jpg 2016-02-22 22:47 34K 
 mg0723189.jpg 2016-02-22 22:44 34K 
 fl734017_1.jpg 2016-02-22 22:42 34K 
 fl734017-1.jpg 2016-02-22 22:42 34K 
 cs51707_2.jpg 2016-02-22 22:39 34K 
 zu96352_3.jpg 2016-02-22 22:50 34K 
 scuni.jpg 2016-02-22 22:46 34K 
 fl353130.jpg 2016-02-22 22:40 34K 
 fl3566014_1.jpg 2016-02-22 22:40 34K 
 fl3566014-1.jpg 2016-02-22 22:40 34K 
 si02102650_3.jpg 2016-02-22 22:46 34K 
 ps8904.jpg 2016-02-22 22:45 34K 
 zu1358_3.jpg 2016-02-22 22:50 34K 
 fl3510080_1.jpg 2016-02-22 22:40 34K 
 fl3510080-1.jpg 2016-02-22 22:40 34K 
 zu1692-1.jpg 2016-02-22 22:50 34K 
 stsun330.jpg 2016-02-22 22:49 34K 
 smline_1.jpg 2016-02-22 22:49 34K 
 AX6061_3.jpg 2016-02-22 22:39 34K 
 fgr300.jpg 2016-02-22 22:40 34K 
 pf7819.jpg 2016-02-22 22:44 34K 
 365521_1.jpg 2016-02-22 22:38 34K 
 fgrt_1.jpg 2016-02-22 22:40 34K 
 si03105450_3.jpg 2016-02-22 22:46 34K 
 si03101450_3.jpg 2016-02-22 22:46 34K 
 zu9502.jpg 2016-02-22 22:50 34K 
 110720000101.jpg 2016-02-22 22:36 34K 
 si91126430_2.jpg 2016-02-22 22:47 34K 
 zu158041c.jpg 2016-02-22 22:50 34K 
 si04101990_2.jpg 2016-02-22 22:46 34K 
 po20091.jpg 2016-02-22 22:44 34K 
 ktgbs03315.jpg 2016-02-22 22:44 34K 
 ktgbs031.jpg 2016-02-22 22:44 34K 
 ktgbs02715.jpg 2016-02-22 22:44 34K 
 ktgbs020.jpg 2016-02-22 22:44 34K 
 ktgbs002.jpg 2016-02-22 22:44 34K 
 fl3609235_1.jpg 2016-02-22 22:40 34K 
 fl3609235-1.jpg 2016-02-22 22:40 34K 
 pf75350508.jpg 2016-02-22 22:44 34K 
 si20061985_2.jpg 2016-02-22 22:47 34K 
 si91104021_2.jpg 2016-02-22 22:47 34K 
 ps5020s.jpg 2016-02-22 22:45 34K 
 as104040-2.jpg 2016-02-22 22:38 34K 
 fl364110_1.jpg 2016-02-22 22:41 34K 
 fl364110-1.jpg 2016-02-22 22:41 34K 
 re1335sw.jpg 2016-02-22 22:45 34K 
 S46DR_1.jpg 2016-02-22 22:46 34K 
 S46DR.jpg 2016-02-22 22:46 34K 
 ps9101.jpg 2016-02-22 22:45 34K 
 tu2027sw.jpg 2016-02-22 22:49 34K 
 tu2026sw.jpg 2016-02-22 22:49 34K 
 fl3609357_1.jpg 2016-02-22 22:40 34K 
 fl3609357-1.jpg 2016-02-22 22:40 34K 
 150050000101.jpg 2016-02-22 22:38 34K 
 fl364218_1.jpg 2016-02-22 22:41 34K 
 fl364218-1.jpg 2016-02-22 22:41 34K 
 mg0111370.jpg 2016-02-22 22:44 34K 
 re1419o_1.jpg 2016-02-22 22:46 34K 
 cm5255r.jpg 2016-02-22 22:39 34K 
 fl365115_handschuhe_..>2016-02-22 22:41 34K 
 fgrt_black3.jpg 2016-02-22 22:40 34K 
 mua01ap003.jpg 2016-02-22 22:44 34K 
 fl3580010_1.jpg 2016-02-22 22:40 34K 
 fl3580010-1.jpg 2016-02-22 22:40 34K 
 fl365128_2_hemd_fly.jpg2016-02-22 22:41 34K 
 zu160610-2.jpg 2016-02-22 22:50 34K 
 bopro60.jpg 2016-02-22 22:39 34K 
 si20022650_2.jpg 2016-02-22 22:47 34K 
 sm64013_sc_smith.jpg 2016-02-22 22:49 34K 
 Bilderrahmen2.jpg 2016-02-22 22:39 34K 
 pf0829.jpg 2016-02-22 22:44 34K 
 fl4772035_jacke_fly.jpg2016-02-22 22:42 34K 
 fl365223_2_hemd_fly.jpg2016-02-22 22:41 34K 
 365125_1.jpg 2016-02-22 22:38 34K 
 KineticRSBkRdBl_back..>2016-02-22 22:43 34K 
 fl364628.jpg 2016-02-22 22:41 34K 
 ps9216.jpg 2016-02-22 22:45 34K 
 ps8921.jpg 2016-02-22 22:45 34K 
 si02101990_3.jpg 2016-02-22 22:46 34K 
 fl365120_1_hemd_fly.jpg2016-02-22 22:41 34K 
 re1420.jpg 2016-02-22 22:46 34K 
 re1419b.jpg 2016-02-22 22:46 34K 
 br220a80210.jpg 2016-02-22 22:39 34K 
 si05657990_1.jpg 2016-02-22 22:46 34K 
 fl365111_handschuhe_..>2016-02-22 22:41 34K 
 sm62023.jpg 2016-02-22 22:48 34K 
 zu9534.jpg 2016-02-22 22:50 34K 
 fl364-334.jpg 2016-02-22 22:41 34K 
 si07895990_2.jpg 2016-02-22 22:47 34K 
 si07895990.jpg 2016-02-22 22:47 34K 
 si02102360_3.jpg 2016-02-22 22:46 34K 
 cs51728_2.jpg 2016-02-22 22:39 34K 
 stfktm070.jpg 2016-02-22 22:49 34K 
 stfktm050.jpg 2016-02-22 22:49 34K 
 stfktm030.jpg 2016-02-22 22:49 34K 
 stfktm020.jpg 2016-02-22 22:49 34K 
 fl733789.jpg 2016-02-22 22:42 34K 
 muv05bm004.jpg 2016-02-22 22:44 34K 
 fg324.jpg 2016-02-22 22:39 34K 
 fl364210_1.jpg 2016-02-22 22:41 34K 
 fl364210-1.jpg 2016-02-22 22:41 34K 
 si05671990_1.jpg 2016-02-22 22:46 34K 
 pf0940.jpg 2016-02-22 22:44 34K 
 muk05ho014.jpg 2016-02-22 22:44 34K 
 fl363390_2.jpg 2016-02-22 22:41 34K 
 fl363390-2.jpg 2016-02-22 22:41 34K 
 fl739154-4.jpg 2016-02-22 22:43 34K 
 ps2023g.jpg 2016-02-22 22:44 34K 
 si07881990_2.jpg 2016-02-22 22:47 34K 
 sc00436002.jpg 2016-02-22 22:46 34K 
 cm5248.jpg 2016-02-22 22:39 34K 
 pf7533.jpg 2016-02-22 22:44 34K 
 sm62033.jpg 2016-02-22 22:48 34K 
 zu96365-3.jpg 2016-02-22 22:50 34K 
 110590000601.jpg 2016-02-22 22:36 34K 
 ps60021.jpg 2016-02-22 22:45 34K 
 fl364212_1.jpg 2016-02-22 22:41 34K 
 fl364212-1.jpg 2016-02-22 22:41 34K 
 hm034.jpg 2016-02-22 22:43 34K 
 365235.jpg 2016-02-22 22:38 34K 
 fl285135_2.jpg 2016-02-22 22:40 34K 
 fl285135-2.jpg 2016-02-22 22:40 34K 
 fl364434_1.jpg 2016-02-22 22:41 34K 
 fl364434-1.jpg 2016-02-22 22:41 34K 
 sm3025_1.jpg 2016-02-22 22:48 33K 
 rehg100g.jpg 2016-02-22 22:46 33K 
 fl283090_protektor_f..>2016-02-22 22:40 33K 
 pf2537.jpg 2016-02-22 22:44 33K 
 fl3510018_1.jpg 2016-02-22 22:40 33K 
 fl3510018-1.jpg 2016-02-22 22:40 33K 
 150251800101.jpg 2016-02-22 22:38 33K 
 150251600101.jpg 2016-02-22 22:38 33K 
 150251400101.jpg 2016-02-22 22:38 33K 
 sc00415002.jpg 2016-02-22 22:46 33K 
 bs1303.jpg 2016-02-22 22:39 33K 
 fl365540_hose_fly.jpg 2016-02-22 22:41 33K 
 fl364118_1.jpg 2016-02-22 22:41 33K 
 fl364118-1.jpg 2016-02-22 22:41 33K 
 ps8007s_2.jpg 2016-02-22 22:45 33K 
 S46PR1C1W.jpg 2016-02-22 22:46 33K 
 sm2041-2.jpg 2016-02-22 22:48 33K 
 fl364688_1.jpg 2016-02-22 22:41 33K 
 fl364688-1.jpg 2016-02-22 22:41 33K 
 s36dmono.jpg 2016-02-22 22:46 33K 
 fl3520041_1.jpg 2016-02-22 22:40 33K 
 fl3520041-1.jpg 2016-02-22 22:40 33K 
 br206121.jpg 2016-02-22 22:39 33K 
 stadu0020.jpg 2016-02-22 22:49 33K 
 tu2023r.jpg 2016-02-22 22:49 33K 
 dd19099.jpg 2016-02-22 22:39 33K 
 fl3540100_1.jpg 2016-02-22 22:40 33K 
 re1419o.jpg 2016-02-22 22:46 33K 
 sm2032-2.jpg 2016-02-22 22:48 33K 
 ps9100.jpg 2016-02-22 22:45 33K 
 110200000101.jpg 2016-02-22 22:36 33K 
 zu8935.jpg 2016-02-22 22:50 33K 
 pf7525xxyy.jpg 2016-02-22 22:44 33K 
 br07ka20xx.jpg 2016-02-22 22:39 33K 
 fl365228_2_hemd_fly.jpg2016-02-22 22:41 33K 
 sr33m_2.jpg 2016-02-22 22:49 33K 
 fl364234.jpg 2016-02-22 22:41 33K 
 si91104021_3.jpg 2016-02-22 22:47 33K 
 zu9563-1.jpg 2016-02-22 22:50 33K 
 fl285056.jpg 2016-02-22 22:40 33K 
 zu160600-2.jpg 2016-02-22 22:50 33K 
 si05662800_3.jpg 2016-02-22 22:46 33K 
 si05661800_3.jpg 2016-02-22 22:46 33K 
 si05660800_3.jpg 2016-02-22 22:46 33K 
 fl734046_helm_fly.jpg 2016-02-22 22:42 33K 
 zu1608sw.jpg 2016-02-22 22:50 33K 
 zu1608si.jpg 2016-02-22 22:50 33K 
 zu1607si.jpg 2016-02-22 22:50 33K 
 fl353060_1.jpg 2016-02-22 22:40 33K 
 fl3560194.jpg 2016-02-22 22:40 33K 
 fl364410_1.jpg 2016-02-22 22:41 33K 
 fl364410-1.jpg 2016-02-22 22:41 33K 
 120140000101.jpg 2016-02-22 22:37 33K 
 EvoRevRed_front.jpg 2016-02-22 22:39 33K 
 pf0731.jpg 2016-02-22 22:44 33K 
 zu9321.jpg 2016-02-22 22:50 33K 
 fl3510010.jpg 2016-02-22 22:40 33K 
 sm4809.jpg 2016-02-22 22:48 33K 
 ps8903-1.jpg 2016-02-22 22:45 33K 
 relv507.jpg 2016-02-22 22:46 33K 
 sm8133.jpg 2016-02-22 22:49 33K 
 fl364232.jpg 2016-02-22 22:41 33K 
 ps84562ge.jpg 2016-02-22 22:45 33K 
 ps84561ge.jpg 2016-02-22 22:45 33K 
 fl3609750_1.jpg 2016-02-22 22:40 33K 
 fl3609750-1.jpg 2016-02-22 22:40 33K 
 oh019201s.jpg 2016-02-22 22:44 33K 
 si04101990_1.jpg 2016-02-22 22:46 33K 
 365122_3.jpg 2016-02-22 22:38 33K 
 sm4805.jpg 2016-02-22 22:48 33K 
 sm4705.jpg 2016-02-22 22:48 33K 
 sm4105.jpg 2016-02-22 22:48 33K 
 br07bb2050.jpg 2016-02-22 22:39 33K 
 sm2011_intake_smith.jpg2016-02-22 22:48 33K 
 sm2011.jpg 2016-02-22 22:48 33K 
 pf0491.jpg 2016-02-22 22:44 33K 
 zu1910.jpg 2016-02-22 22:50 33K 
 re1325p.jpg 2016-02-22 22:45 33K 
 110210000401.jpg 2016-02-22 22:36 33K 
 ps9215.jpg 2016-02-22 22:45 33K 
 si77443286.jpg 2016-02-22 22:47 33K 
 fl364235.jpg 2016-02-22 22:41 33K 
 sc01317003.jpg 2016-02-22 22:46 33K 
 ps8007_2.jpg 2016-02-22 22:45 33K 
 zu96213.jpg 2016-02-22 22:50 33K 
 gepl1303.jpg 2016-02-22 22:43 33K 
 ky150013600101_neu.jpg 2016-02-22 22:44 33K 
 si04105450_3.jpg 2016-02-22 22:46 33K 
 si04101450_3.jpg 2016-02-22 22:46 33K 
 ohbm146.jpg 2016-02-22 22:44 33K 
 pf0345.jpg 2016-02-22 22:44 33K 
 140603101510.jpg 2016-02-22 22:37 33K 
 140601902010.jpg 2016-02-22 22:37 33K 
 140601003010.jpg 2016-02-22 22:37 33K 
 ps3031w.jpg 2016-02-22 22:45 33K 
 si94102001_3.jpg 2016-02-22 22:47 33K 
 sm70207-2.jpg 2016-02-22 22:49 33K 
 fl365016_handschuhe_..>2016-02-22 22:41 33K 
 stfsus070.jpg 2016-02-22 22:49 33K 
 fl365213_handschuhe_..>2016-02-22 22:41 33K 
 ps10392.jpg 2016-02-22 22:44 33K 
 fl733485_helm_fly.jpg 2016-02-22 22:42 33K 
 zu1590322.jpg 2016-02-22 22:50 33K 
 fl365112_handschuhe_..>2016-02-22 22:41 33K 
 st7006m18gr.jpg 2016-02-22 22:49 33K 
 st7004m22gr.jpg 2016-02-22 22:49 33K 
 fl364238.jpg 2016-02-22 22:41 33K 
 150290000101.jpg 2016-02-22 22:38 33K 
 4772035.jpg 2016-02-22 22:38 33K 
 sm61016_fuel_v2_swea..>2016-02-22 22:48 33K 
 sm61016.jpg 2016-02-22 22:48 33K 
 si05656990_1.jpg 2016-02-22 22:46 33K 
 F16RdBk_back.jpg 2016-02-22 22:39 33K 
 472003.jpg 2016-02-22 22:38 33K 
 si02105430_3.jpg 2016-02-22 22:46 33K 
 si02101430_3.jpg 2016-02-22 22:46 33K 
 usbqr1820.jpg 2016-02-22 22:49 33K 
 ktsbs033.jpg 2016-02-22 22:44 33K 
 ktsbs031.jpg 2016-02-22 22:44 33K 
 ktsbs002.jpg 2016-02-22 22:44 33K 
 EvoRevRed_back.jpg 2016-02-22 22:39 33K 
 stfdus180.jpg 2016-02-22 22:49 33K 
 cm5255.jpg 2016-02-22 22:39 33K 
 ps5010o.jpg 2016-02-22 22:45 33K 
 cm5200.jpg 2016-02-22 22:39 33K 
 zub10eg.jpg 2016-02-22 22:50 33K 
 sc00415003.jpg 2016-02-22 22:46 33K 
 zu96214.jpg 2016-02-22 22:50 33K 
 rt6201.jpg 2016-02-22 22:46 33K 
 kltcu2.jpg 2016-02-22 22:43 33K 
 zudp44.jpg 2016-02-22 22:50 33K 
 zu177103.jpg 2016-02-22 22:50 33K 
 fl737002_helm_fly.jpg 2016-02-22 22:42 33K 
 usaqcv100.jpg 2016-02-22 22:49 33K 
 ps800171_2.jpg 2016-02-22 22:45 33K 
 sm62016_intake_sweat..>2016-02-22 22:48 33K 
 sm62016.jpg 2016-02-22 22:48 33K 
 110231200101.jpg 2016-02-22 22:36 33K 
 ps2041g.jpg 2016-02-22 22:44 33K 
 fl285060_2.jpg 2016-02-22 22:40 33K 
 fl285060-2.jpg 2016-02-22 22:40 33K 
 fl363101_1.jpg 2016-02-22 22:41 33K 
 fl363101-1.jpg 2016-02-22 22:41 33K 
 cm2647g.jpg 2016-02-22 22:39 33K 
 ohne.jpg 2016-02-22 22:44 33K 
 AX1057_1.jpg 2016-02-22 22:39 33K 
 dd15099.jpg 2016-02-22 22:39 33K 
 si91116430_2.jpg 2016-02-22 22:47 33K 
 fl365418_1_handschuh..>2016-02-22 22:41 33K 
 fo13014.jpg 2016-02-22 22:43 33K 
 si02102943_3.jpg 2016-02-22 22:46 33K 
 ps4022b.jpg 2016-02-22 22:45 32K 
 zu96351_3.jpg 2016-02-22 22:50 32K 
 ps89821.jpg 2016-02-22 22:45 32K 
 pf0732.jpg 2016-02-22 22:44 32K 
 stfaps040.jpg 2016-02-22 22:49 32K 
 fl365222_2_hemd_fly.jpg2016-02-22 22:41 32K 
 zu96213_2.jpg 2016-02-22 22:50 32K 
 pf1368.jpg 2016-02-22 22:44 32K 
 xt7693.jpg 2016-02-22 22:49 32K 
 rehg100ge.jpg 2016-02-22 22:46 32K 
 si87202286.jpg 2016-02-22 22:47 32K 
 ps9200.jpg 2016-02-22 22:45 32K 
 sc00415001.jpg 2016-02-22 22:46 32K 
 stfsus090.jpg 2016-02-22 22:49 32K 
 sc00428810.jpg 2016-02-22 22:46 32K 
 ps584359o.jpg 2016-02-22 22:45 32K 
 hmr1tscm6.jpg 2016-02-22 22:43 32K 
 hmr1tscm5.jpg 2016-02-22 22:43 32K 
 hmr1tscm4.jpg 2016-02-22 22:43 32K 
 hmr1tscm3.jpg 2016-02-22 22:43 32K 
 hmr1tscm2.jpg 2016-02-22 22:43 32K 
 hmr1tscm1.jpg 2016-02-22 22:43 32K 
 fl365531_hose_fly.jpg 2016-02-22 22:41 32K 
 bs2178.jpg 2016-02-22 22:39 32K 
 zu013006.jpg 2016-02-22 22:50 32K 
 sm3026.jpg 2016-02-22 22:48 32K 
 fl3580050_1.jpg 2016-02-22 22:40 32K 
 si20108990_2.jpg 2016-02-22 22:47 32K 
 si078612401_3.jpg 2016-02-22 22:47 32K 
 re358520.jpg 2016-02-22 22:46 32K 
 hm002.jpg 2016-02-22 22:43 32K 
 3510148_2.jpg 2016-02-22 22:38 32K 
 3580031_1.jpg 2016-02-22 22:38 32K 
 si05676990_2.jpg 2016-02-22 22:46 32K 
 si05675990_2.jpg 2016-02-22 22:46 32K 
 pf0340.jpg 2016-02-22 22:44 32K 
 si04102943_3.jpg 2016-02-22 22:46 32K 
 fl365052_2.jpg 2016-02-22 22:41 32K 
 si91104286_2.jpg 2016-02-22 22:47 32K 
 si87126185.jpg 2016-02-22 22:47 32K 
 fl364132_1.jpg 2016-02-22 22:41 32K 
 fl364132-1.jpg 2016-02-22 22:41 32K 
 cm5205s.jpg 2016-02-22 22:39 32K 
 stsun080r.jpg 2016-02-22 22:49 32K 
 sm62024.jpg 2016-02-22 22:48 32K 
 stfapf010.jpg 2016-02-22 22:49 32K 
 s46dr1b_3.jpg 2016-02-22 22:46 32K 
 si04105430_3.jpg 2016-02-22 22:46 32K 
 si04101430_3.jpg 2016-02-22 22:46 32K 
 110190002001.jpg 2016-02-22 22:36 32K 
 fl3510017_1.jpg 2016-02-22 22:40 32K 
 fl3510017-1.jpg 2016-02-22 22:40 32K 
 stfaps010.jpg 2016-02-22 22:49 32K 
 zu1925si_2.jpg 2016-02-22 22:50 32K 
 fl285060_4.jpg 2016-02-22 22:40 32K 
 fl285060-4.jpg 2016-02-22 22:40 32K 
 stfsus040.jpg 2016-02-22 22:49 32K 
 110060001301.jpg 2016-02-22 22:35 32K 
 fl365218_2_handschuh..>2016-02-22 22:41 32K 
 si05681990_2.jpg 2016-02-22 22:46 32K 
 si05681990.jpg 2016-02-22 22:46 32K 
 si05680990_2.jpg 2016-02-22 22:46 32K 
 si05680990.jpg 2016-02-22 22:46 32K 
 si07827963_2.jpg 2016-02-22 22:46 32K 
 si07827963.jpg 2016-02-22 22:46 32K 
 re1419.jpg 2016-02-22 22:46 32K 
 re1410.jpg 2016-02-22 22:46 32K 
 ps6094_2.jpg 2016-02-22 22:45 32K 
 sm62026_1.jpg 2016-02-22 22:48 32K 
 fl4772034_jacke_fly.jpg2016-02-22 22:42 32K 
 fl363561.jpg 2016-02-22 22:41 32K 
 zu160630-2.jpg 2016-02-22 22:50 32K 
 fl3500321.jpg 2016-02-22 22:40 32K 
 365223_1.jpg 2016-02-22 22:38 32K 
 zu160641-2.jpg 2016-02-22 22:50 32K 
 365228_1.jpg 2016-02-22 22:38 32K 
 ps9050r.jpg 2016-02-22 22:45 32K 
 ps1036.jpg 2016-02-22 22:44 32K 
 ps1012s.jpg 2016-02-22 22:44 32K 
 ps1012r.jpg 2016-02-22 22:44 32K 
 ps1002w.jpg 2016-02-22 22:44 32K 
 ps1002s.jpg 2016-02-22 22:44 32K 
 ps1002r.jpg 2016-02-22 22:44 32K 
 cm2536g.jpg 2016-02-22 22:39 32K 
 mw3.jpg 2016-02-22 22:44 32K 
 4772034.jpg 2016-02-22 22:38 32K 
 fl364217_1.jpg 2016-02-22 22:41 32K 
 fl364217-1.jpg 2016-02-22 22:41 32K 
 fl3510017.jpg 2016-02-22 22:40 32K 
 si91101001_2.jpg 2016-02-22 22:47 32K 
 365128_1.jpg 2016-02-22 22:38 32K 
 si20022990_2.jpg 2016-02-22 22:47 32K 
 zu96214_2.jpg 2016-02-22 22:50 32K 
 fl365238_hose_fly.jpg 2016-02-22 22:41 32K 
 pf0109.jpg 2016-02-22 22:44 32K 
 si03101990_2.jpg 2016-02-22 22:46 32K 
 fl3609850_2_hose_fly..>2016-02-22 22:40 32K 
 rehg100100.jpg 2016-02-22 22:46 32K 
 sm61009.jpg 2016-02-22 22:48 32K 
 fl362590-4.jpg 2016-02-22 22:41 32K 
 365238.jpg 2016-02-22 22:38 32K 
 zu9564-2.jpg 2016-02-22 22:50 32K 
 481620_2.jpg 2016-02-22 22:38 32K 
 3526086_1.jpg 2016-02-22 22:38 32K 
 zu160620-2.jpg 2016-02-22 22:50 32K 
 pk32327.jpg 2016-02-22 22:44 32K 
 fl364414_1.jpg 2016-02-22 22:41 32K 
 fl364414-1.jpg 2016-02-22 22:41 32K 
 ax1294.jpg 2016-02-22 22:39 32K 
 fl3605046.jpg 2016-02-22 22:40 32K 
 si92110430.jpg 2016-02-22 22:47 32K 
 fl3609370_1.jpg 2016-02-22 22:40 32K 
 fl3609370-1.jpg 2016-02-22 22:40 32K 
 fl3605046_1.jpg 2016-02-22 22:40 32K 
 fl3605046-1.jpg 2016-02-22 22:40 32K 
 ho324.jpg 2016-02-22 22:43 32K 
 AX6085_1.jpg 2016-02-22 22:39 32K 
 stfhnf091.jpg 2016-02-22 22:49 32K 
 fl365217_handschuhe_..>2016-02-22 22:41 32K 
 fl3546110_1.jpg 2016-02-22 22:40 32K 
 ab251570.jpg 2016-02-22 22:38 32K 
 ps9040g.jpg 2016-02-22 22:45 32K 
 sm8022.jpg 2016-02-22 22:49 32K 
 fl3500200.jpg 2016-02-22 22:40 32K 
 as103050-3.jpg 2016-02-22 22:38 32K 
 si81104-286.jpg 2016-02-22 22:47 32K 
 zu140003.jpg 2016-02-22 22:50 32K 
 si01104990_1.jpg 2016-02-22 22:46 32K 
 ps4020b.jpg 2016-02-22 22:45 32K 
 fl739152-4.jpg 2016-02-22 22:43 32K 
 zu160642-2.jpg 2016-02-22 22:50 32K 
 fl365610_handschuhe_..>2016-02-22 22:41 32K 
 re64408p_1.jpg 2016-02-22 22:46 32K 
 fl364688.jpg 2016-02-22 22:41 32K 
 fl4772031_jacke_fly.jpg2016-02-22 22:42 32K 
 ps5010si.jpg 2016-02-22 22:45 32K 
 sm62028_1.jpg 2016-02-22 22:48 32K 
 stsdu210g.jpg 2016-02-22 22:49 32K 
 fl3540131.jpg 2016-02-22 22:40 32K 
 S46PR1C1S.jpg 2016-02-22 22:46 32K 
 fl365215_handschuhe_..>2016-02-22 22:41 32K 
 S46PR1C2S.jpg 2016-02-22 22:46 32K 
 S46HR1C1LS.jpg 2016-02-22 22:46 32K 
 AX1139_3.jpg 2016-02-22 22:39 32K 
 zu160640-2.jpg 2016-02-22 22:50 32K 
 365125_2.jpg 2016-02-22 22:38 32K 
 vn1320.jpg 2016-02-22 22:49 32K 
 si81111001_2.jpg 2016-02-22 22:47 32K 
 zu160650.jpg 2016-02-22 22:50 32K 
 zu160650-2.jpg 2016-02-22 22:50 32K 
 pf0537.jpg 2016-02-22 22:44 32K 
 si81126001.jpg 2016-02-22 22:47 32K 
 zu1901.jpg 2016-02-22 22:50 32K 
 ps6120.jpg 2016-02-22 22:45 32K 
 zu9563-2.jpg 2016-02-22 22:50 32K 
 150110000101.jpg 2016-02-22 22:38 32K 
 zu8926g_2.jpg 2016-02-22 22:50 32K 
 sm64205_3_junior_smi..>2016-02-22 22:49 32K 
 sm64205_3.jpg 2016-02-22 22:49 32K 
 zu9412_3.jpg 2016-02-22 22:50 32K 
 mg0723190.jpg 2016-02-22 22:44 32K 
 sm2034_intake_sweatx..>2016-02-22 22:48 32K 
 sm2034.jpg 2016-02-22 22:48 32K 
 re75401r_1.jpg 2016-02-22 22:46 32K 
 hm039.jpg 2016-02-22 22:43 32K 
 fl737004_helm_fly.jpg 2016-02-22 22:42 32K 
 ohbm345.jpg 2016-02-22 22:44 32K 
 si77441286.jpg 2016-02-22 22:47 32K 
 sm70210-2.jpg 2016-02-22 22:49 32K 
 ps8008_1.jpg 2016-02-22 22:45 32K 
 sm62031.jpg 2016-02-22 22:48 32K 
 br07934020.jpg 2016-02-22 22:39 31K 
 si05669990_1.jpg 2016-02-22 22:46 31K 
 si05668990_1.jpg 2016-02-22 22:46 31K 
 ax1255_2.jpg 2016-02-22 22:39 31K 
 fl364130_1.jpg 2016-02-22 22:41 31K 
 fl364130-1.jpg 2016-02-22 22:41 31K 
 cs55928.jpg 2016-02-22 22:39 31K 
 sm62025.jpg 2016-02-22 22:48 31K 
 fl3510030.jpg 2016-02-22 22:40 31K 
 sm70209-2.jpg 2016-02-22 22:49 31K 
 as106011-1.jpg 2016-02-22 22:39 31K 
 bm676_2.jpg 2016-02-22 22:39 31K 
 zu160621-2.jpg 2016-02-22 22:50 31K 
 352-0240.jpg 2016-02-22 22:38 31K 
 si20022460_3.jpg 2016-02-22 22:47 31K 
 sc00411002.jpg 2016-02-22 22:46 31K 
 ps184541r.jpg 2016-02-22 22:44 31K 
 fl3580049_1.jpg 2016-02-22 22:40 31K 
 cm2646g.jpg 2016-02-22 22:39 31K 
 re1433.jpg 2016-02-22 22:46 31K 
 fl3566015.jpg 2016-02-22 22:40 31K 
 relv504.jpg 2016-02-22 22:46 31K 
 re1435.jpg 2016-02-22 22:46 31K 
 fl3520085.jpg 2016-02-22 22:40 31K 
 si20680990.jpg 2016-02-22 22:47 31K 
 stfhns080.jpg 2016-02-22 22:49 31K 
 stfhns070.jpg 2016-02-22 22:49 31K 
 us201107.jpg 2016-02-22 22:49 31K 
 stfyam020.jpg 2016-02-22 22:49 31K 
 re99701r.jpg 2016-02-22 22:46 31K 
 ax1295_3.jpg 2016-02-22 22:39 31K 
 365121_2.jpg 2016-02-22 22:38 31K 
 mg0723160.jpg 2016-02-22 22:44 31K 
 sm70208-2.jpg 2016-02-22 22:49 31K 
 fl365532_hose_fly.jpg 2016-02-22 22:41 31K 
 fl3540060_1_jacke_fl..>2016-02-22 22:40 31K 
 re97100b_1.jpg 2016-02-22 22:46 31K 
 fl3609750.jpg 2016-02-22 22:40 31K 
 3609850_1.jpg 2016-02-22 22:38 31K 
 fl3520035.jpg 2016-02-22 22:40 31K 
 hmrpl07m6.jpg 2016-02-22 22:43 31K 
 fl358005_1.jpg 2016-02-22 22:40 31K 
 sm62035.jpg 2016-02-22 22:48 31K 
 fl285020.jpg 2016-02-22 22:40 31K 
 si20681990.jpg 2016-02-22 22:47 31K 
 365223_2.jpg 2016-02-22 22:38 31K 
 zu8918.jpg 2016-02-22 22:50 31K 
 fl365448_1_hose_fly.jpg2016-02-22 22:41 31K 
 fl285003_tasche_fly.jpg2016-02-22 22:40 31K 
 si20657990_2.jpg 2016-02-22 22:47 31K 
 mw1.jpg 2016-02-22 22:44 31K 
 fl365232_hose_fly.jpg 2016-02-22 22:41 31K 
 fl3500322.jpg 2016-02-22 22:40 31K 
 365120_1.jpg 2016-02-22 22:38 31K 
 fl3609810_1.jpg 2016-02-22 22:40 31K 
 fl3609810-1.jpg 2016-02-22 22:40 31K 
 365531.jpg 2016-02-22 22:38 31K 
 zu96216_2.jpg 2016-02-22 22:50 31K 
 me4456r.jpg 2016-02-22 22:44 31K 
 si91101001_3.jpg 2016-02-22 22:47 31K 
 fl365225_2_hemd_fly.jpg2016-02-22 22:41 31K 
 fl3622205.jpg 2016-02-22 22:40 31K 
 fl3520050_1.jpg 2016-02-22 22:40 31K 
 fl3520050-1.jpg 2016-02-22 22:40 31K 
 ps9041s.jpg 2016-02-22 22:45 31K 
 zu96215_2.jpg 2016-02-22 22:50 31K 
 ps2647s.jpg 2016-02-22 22:44 31K 
 fl362599-4.jpg 2016-02-22 22:41 31K 
 ps6011_2.jpg 2016-02-22 22:45 31K 
 ps6007_2.jpg 2016-02-22 22:45 31K 
 ps6006_2.jpg 2016-02-22 22:45 31K 
 ps6005_2.jpg 2016-02-22 22:45 31K 
 ps6004_2.jpg 2016-02-22 22:45 31K 
 ps6003_2.jpg 2016-02-22 22:45 31K 
 ps6002_2.jpg 2016-02-22 22:45 31K 
 ps6001_2.jpg 2016-02-22 22:45 31K 
 re1434.jpg 2016-02-22 22:46 31K 
 fl3510031_1.jpg 2016-02-22 22:40 31K 
 fl3510031-1.jpg 2016-02-22 22:40 31K 
 stsun220.jpg 2016-02-22 22:49 31K 
 fl363102_1.jpg 2016-02-22 22:41 31K 
 fl363102-1.jpg 2016-02-22 22:41 31K 
 fl3510056_1.jpg 2016-02-22 22:40 31K 
 fl3510056-1.jpg 2016-02-22 22:40 31K 
 fl285057_tasche_fly.jpg2016-02-22 22:40 31K 
 stsdu200sw.jpg 2016-02-22 22:49 31K 
 fl737001_helm_fly.jpg 2016-02-22 22:42 31K 
 fl737000_helm_fly.jpg 2016-02-22 22:42 31K 
 sm9004.jpg 2016-02-22 22:49 31K 
 si04101650_3.jpg 2016-02-22 22:46 31K 
 365222_1.jpg 2016-02-22 22:38 31K 
 fl364112_1.jpg 2016-02-22 22:41 31K 
 fl364112-1.jpg 2016-02-22 22:41 31K 
 fl283080_1.jpg 2016-02-22 22:40 31K 
 fl283080-1.jpg 2016-02-22 22:40 31K 
 si67320001.jpg 2016-02-22 22:47 31K 
 ky150290000101.jpg 2016-02-22 22:44 31K 
 zu1590306.jpg 2016-02-22 22:50 31K 
 fl481626-1.jpg 2016-02-22 22:42 31K 
 kt1201514120-1.jpg 2016-02-22 22:43 31K 
 si01102240_2.jpg 2016-02-22 22:46 31K 
 EvoRevBW_back.jpg 2016-02-22 22:39 31K 
 ps2646g.jpg 2016-02-22 22:44 31K 
 4772031.jpg 2016-02-22 22:38 31K 
 dd04009.jpg 2016-02-22 22:39 31K 
 fl3540040_1.jpg 2016-02-22 22:40 31K 
 fl3540040-1.jpg 2016-02-22 22:40 31K 
 ps1041r.jpg 2016-02-22 22:44 31K 
 sm70205-2.jpg 2016-02-22 22:49 31K 
 fl739151-3.jpg 2016-02-22 22:43 31K 
 dd05010.jpg 2016-02-22 22:39 31K 
 re1461.jpg 2016-02-22 22:46 31K 
 si92110999.jpg 2016-02-22 22:47 31K 
 fo07099.jpg 2016-02-22 22:43 31K 
 fl364237.jpg 2016-02-22 22:41 31K 
 110220000401.jpg 2016-02-22 22:36 31K 
 sm61008.jpg 2016-02-22 22:48 31K 
 ps30271s.jpg 2016-02-22 22:45 31K 
 fl367639.jpg 2016-02-22 22:41 31K 
 tu2027w.jpg 2016-02-22 22:49 31K 
 tu2026w.jpg 2016-02-22 22:49 31K 
 2.jpg 2016-02-22 22:38 31K 
 hv004r.jpg 2016-02-22 22:43 31K 
 fl3609370.jpg 2016-02-22 22:40 31K 
 fl364131.jpg 2016-02-22 22:41 31K 
 si87511001.jpg 2016-02-22 22:47 31K 
 tu2028.jpg 2016-02-22 22:49 31K 
 fl3566059.jpg 2016-02-22 22:40 31K 
 me4456sw.jpg 2016-02-22 22:44 31K 
 si44461430-1.jpg 2016-02-22 22:47 31K 
 si05662990_2.jpg 2016-02-22 22:46 31K 
 si05661990_2.jpg 2016-02-22 22:46 31K 
 zu159010.jpg 2016-02-22 22:50 31K 
 zu9449.jpg 2016-02-22 22:50 31K 
 fl365330_hose_fly.jpg 2016-02-22 22:41 31K 
 tu2023sw.jpg 2016-02-22 22:49 31K 
 xt7692.jpg 2016-02-22 22:49 31K 
 fl739151-4.jpg 2016-02-22 22:43 31K 
 bs2155.jpg 2016-02-22 22:39 30K 
 stsdu050g.jpg 2016-02-22 22:49 30K 
 zu9534_2.jpg 2016-02-22 22:50 30K 
 pf7824.jpg 2016-02-22 22:44 30K 
 mua04ap001.jpg 2016-02-22 22:44 30K 
 fl36356110.jpg 2016-02-22 22:41 30K 
 re1422.jpg 2016-02-22 22:46 30K 
 fl365110_1_handschuh..>2016-02-22 22:41 30K 
 re1411.jpg 2016-02-22 22:46 30K 
 zu1666_1.jpg 2016-02-22 22:50 30K 
 fl364224_1.jpg 2016-02-22 22:41 30K 
 fl364224-1.jpg 2016-02-22 22:41 30K 
 si91109430_2.jpg 2016-02-22 22:47 30K 
 fl3520110.jpg 2016-02-22 22:40 30K 
 si20002990_2.jpg 2016-02-22 22:47 30K 
 150231600101.jpg 2016-02-22 22:38 30K 
 150231400101.jpg 2016-02-22 22:38 30K 
 150081000101.jpg 2016-02-22 22:38 30K 
 zu1591106.jpg 2016-02-22 22:50 30K 
 3.jpg 2016-02-22 22:38 30K 
 si20044990_3.jpg 2016-02-22 22:47 30K 
 fl364132.jpg 2016-02-22 22:41 30K 
 si20004780_3.jpg 2016-02-22 22:47 30K 
 si20810650.jpg 2016-02-22 22:47 30K 
 stsdu0180.jpg 2016-02-22 22:49 30K 
 110480001101.jpg 2016-02-22 22:36 30K 
 ps6068_2.jpg 2016-02-22 22:45 30K 
 ps6067_2.jpg 2016-02-22 22:45 30K 
 ps6066_2.jpg 2016-02-22 22:45 30K 
 ps6065_2.jpg 2016-02-22 22:45 30K 
 ps6064_2.jpg 2016-02-22 22:45 30K 
 ps6063_2.jpg 2016-02-22 22:45 30K 
 ps6062_2.jpg 2016-02-22 22:45 30K 
 ps6061_2.jpg 2016-02-22 22:45 30K 
 fl365118_handschuhe_..>2016-02-22 22:41 30K 
 fl3520035_2.jpg 2016-02-22 22:40 30K 
 fl3520035-2.jpg 2016-02-22 22:40 30K 
 zu9112.jpg 2016-02-22 22:50 30K 
 zu1647.jpg 2016-02-22 22:50 30K 
 sm9001.jpg 2016-02-22 22:49 30K 
 sm62032.jpg 2016-02-22 22:48 30K 
 120421800101.jpg 2016-02-22 22:37 30K 
 120421600101.jpg 2016-02-22 22:37 30K 
 120421200101.jpg 2016-02-22 22:37 30K 
 sm1953.jpg 2016-02-22 22:48 30K 
 ps9211.jpg 2016-02-22 22:45 30K 
 fl365231_hose_fly.jpg 2016-02-22 22:41 30K 
 as101030-1.jpg 2016-02-22 22:38 30K 
 sm1958_fuel_smith.jpg 2016-02-22 22:48 30K 
 sm1958.jpg 2016-02-22 22:48 30K 
 fl3526056_shirt_fly.jpg2016-02-22 22:40 30K 
 si05682990.jpg 2016-02-22 22:46 30K 
 si01109240_3.jpg 2016-02-22 22:46 30K 
 ps8007_3.jpg 2016-02-22 22:45 30K 
 fl363555.jpg 2016-02-22 22:41 30K 
 si04109240_3.jpg 2016-02-22 22:46 30K 
 fl365542_2_hose_fly.jpg2016-02-22 22:41 30K 
 fgkrt1xx2.jpg 2016-02-22 22:40 30K 
 110220000301.jpg 2016-02-22 22:36 30K 
 110220000201.jpg 2016-02-22 22:36 30K 
 fl283095_knie_schien..>2016-02-22 22:40 30K 
 zu1694_1.jpg 2016-02-22 22:50 30K 
 fl282079.jpg 2016-02-22 22:40 30K 
 as101010-1.jpg 2016-02-22 22:38 30K 
 fl365010_1_handschuh..>2016-02-22 22:41 30K 
 zu2210.jpg 2016-02-22 22:50 30K 
 stutl0050.jpg 2016-02-22 22:49 30K 
 sm61001_fuel_v2_smit..>2016-02-22 22:48 30K 
 sm61001.jpg 2016-02-22 22:48 30K 
 stahnx030.jpg 2016-02-22 22:49 30K 
 ps30261s.jpg 2016-02-22 22:45 30K 
 365532.jpg 2016-02-22 22:38 30K 
 si20024650_3.jpg 2016-02-22 22:47 30K 
 zu1590181.jpg 2016-02-22 22:50 30K 
 si81109430.jpg 2016-02-22 22:47 30K 
 stfyas150_1.jpg 2016-02-22 22:49 30K 
 si20158990_2.jpg 2016-02-22 22:47 30K 
 si87141001.jpg 2016-02-22 22:47 30K 
 si07810650_2.jpg 2016-02-22 22:46 30K 
 si07810650.jpg 2016-02-22 22:46 30K 
 zu1649.jpg 2016-02-22 22:50 30K 
 sm62034.jpg 2016-02-22 22:48 30K 
 si05662990_3.jpg 2016-02-22 22:46 30K 
 si05661990_3.jpg 2016-02-22 22:46 30K 
 si05660990_3.jpg 2016-02-22 22:46 30K 
 365128_2.jpg 2016-02-22 22:38 30K 
 kl231si.jpg 2016-02-22 22:43 30K 
 kl224si.jpg 2016-02-22 22:43 30K 
 kl211si.jpg 2016-02-22 22:43 30K 
 fl3510018_2.jpg 2016-02-22 22:40 30K 
 fl3510018-2.jpg 2016-02-22 22:40 30K 
 sm4912.jpg 2016-02-22 22:48 30K 
 sm4812.jpg 2016-02-22 22:48 30K 
 sm4112.jpg 2016-02-22 22:48 30K 
 si07861240_2.jpg 2016-02-22 22:47 30K 
 si07860240_2.jpg 2016-02-22 22:47 30K 
 fl4772030_jacke_fly.jpg2016-02-22 22:42 30K 
 fl369992.jpg 2016-02-22 22:42 30K 
 si03101650_2.jpg 2016-02-22 22:46 30K 
 fl3566044.jpg 2016-02-22 22:40 30K 
 fl3520110_1.jpg 2016-02-22 22:40 30K 
 fl3520110-1.jpg 2016-02-22 22:40 30K 
 re1465_1.jpg 2016-02-22 22:46 30K 
 stsun320.jpg 2016-02-22 22:49 30K 
 zu1904.jpg 2016-02-22 22:50 30K 
 si07840980_2.jpg 2016-02-22 22:46 30K 
 si07840980.jpg 2016-02-22 22:46 30K 
 stsun080g.jpg 2016-02-22 22:49 30K 
 365225_1.jpg 2016-02-22 22:38 30K 
 re99601b_1.jpg 2016-02-22 22:46 30K 
 365120_2.jpg 2016-02-22 22:38 30K 
 gegkvt101.jpg 2016-02-22 22:43 30K 
 fl363101.jpg 2016-02-22 22:41 30K 
 110590002301.jpg 2016-02-22 22:36 30K 
 110590002201.jpg 2016-02-22 22:36 30K 
 110590002101.jpg 2016-02-22 22:36 30K 
 110590002001.jpg 2016-02-22 22:36 30K 
 110590001901.jpg 2016-02-22 22:36 30K 
 110590001701.jpg 2016-02-22 22:36 30K 
 110590001601.jpg 2016-02-22 22:36 30K 
 110590001501.jpg 2016-02-22 22:36 30K 
 110590001401.jpg 2016-02-22 22:36 30K 
 110590001301.jpg 2016-02-22 22:36 30K 
 110590001201.jpg 2016-02-22 22:36 30K 
 110590001101.jpg 2016-02-22 22:36 30K 
 110590001001.jpg 2016-02-22 22:36 30K 
 110590000901.jpg 2016-02-22 22:36 30K 
 110590000801.jpg 2016-02-22 22:36 30K 
 110590000701.jpg 2016-02-22 22:36 30K 
 110590000501.jpg 2016-02-22 22:36 30K 
 110590000401.jpg 2016-02-22 22:36 30K 
 110590000301.jpg 2016-02-22 22:36 30K 
 110590000201.jpg 2016-02-22 22:36 30K 
 ps4004b.jpg 2016-02-22 22:45 30K 
 bs79204.jpg 2016-02-22 22:39 30K 
 zu013020.jpg 2016-02-22 22:50 30K 
 AX1058_2.jpg 2016-02-22 22:39 30K 
 pf7581.jpg 2016-02-22 22:44 30K 
 kl111sw.jpg 2016-02-22 22:43 30K 
 fl3580020_1.jpg 2016-02-22 22:40 30K 
 365231.jpg 2016-02-22 22:38 30K 
 48mmRFF.jpg 2016-02-22 22:38 30K 
 ps1028s.jpg 2016-02-22 22:44 30K 
 ps9205.jpg 2016-02-22 22:45 30K 
 as105010-3.jpg 2016-02-22 22:38 30K 
 ps6058_2.jpg 2016-02-22 22:45 30K 
 ps6057_2.jpg 2016-02-22 22:45 30K 
 ps6056_2.jpg 2016-02-22 22:45 30K 
 ps6055_2.jpg 2016-02-22 22:45 30K 
 ps6054_2.jpg 2016-02-22 22:45 30K 
 ps6053_2.jpg 2016-02-22 22:45 30K 
 ps6052_2.jpg 2016-02-22 22:45 30K 
 ps6051_2.jpg 2016-02-22 22:45 30K 
 fl3560274.jpg 2016-02-22 22:40 30K 
 sa006835_2.jpg 2016-02-22 22:46 30K 
 si05657990_2.jpg 2016-02-22 22:46 30K 
 si078612401_1.jpg 2016-02-22 22:47 30K 
 fl3560270.jpg 2016-02-22 22:40 30K 
 365128_3.jpg 2016-02-22 22:38 30K 
 120360000201.jpg 2016-02-22 22:37 30K 
 si20044650_3.jpg 2016-02-22 22:47 30K 
 sm62028.jpg 2016-02-22 22:48 29K 
 mua05bm004.jpg 2016-02-22 22:44 29K 
 120400001301.jpg 2016-02-22 22:37 29K 
 si01105981_2.jpg 2016-02-22 22:46 29K 
 si01101981_2.jpg 2016-02-22 22:46 29K 
 si05667990_1.jpg 2016-02-22 22:46 29K 
 zu8932w.jpg 2016-02-22 22:50 29K 
 fl3546050_1_jacke_fl..>2016-02-22 22:40 29K 
 si05650990_2.jpg 2016-02-22 22:46 29K 
 zu2052.jpg 2016-02-22 22:50 29K 
 zu159002.jpg 2016-02-22 22:50 29K 
 fl365448_2_hose_fly.jpg2016-02-22 22:41 29K 
 si81104286_1.jpg 2016-02-22 22:47 29K 
 mus01ap002.jpg 2016-02-22 22:44 29K 
 365330.jpg 2016-02-22 22:38 29K 
 re1461-1.jpg 2016-02-22 22:46 29K 
 ps4037w.jpg 2016-02-22 22:45 29K 
 fl3631100_1.jpg 2016-02-22 22:41 29K 
 fl3631100-1.jpg 2016-02-22 22:41 29K 
 fl364221_1.jpg 2016-02-22 22:41 29K 
 fl364221-1.jpg 2016-02-22 22:41 29K 
 geds0100.jpg 2016-02-22 22:43 29K 
 fl3560026_1.jpg 2016-02-22 22:40 29K 
 fl3560026-1.jpg 2016-02-22 22:40 29K 
 ps3027ge.jpg 2016-02-22 22:45 29K 
 si20022360_3.jpg 2016-02-22 22:47 29K 
 150050000401.jpg 2016-02-22 22:38 29K 
 sm8012.jpg 2016-02-22 22:49 29K 
 sm62038.jpg 2016-02-22 22:48 29K 
 ps5012s.jpg 2016-02-22 22:45 29K 
 fl364424_3.jpg 2016-02-22 22:41 29K 
 fl364424-3.jpg 2016-02-22 22:41 29K 
 ps8040si-2.jpg 2016-02-22 22:45 29K 
 tu1020.jpg 2016-02-22 22:49 29K 
 tu120201_neu.jpg 2016-02-22 22:49 29K 
 si20024990_3.jpg 2016-02-22 22:47 29K 
 zu9412_2.jpg 2016-02-22 22:50 29K 
 fl364682_jacke_fly.jpg 2016-02-22 22:41 29K 
 relv102.jpg 2016-02-22 22:46 29K 
 sm63009.jpg 2016-02-22 22:48 29K 
 zu8916.jpg 2016-02-22 22:50 29K 
 dd05014.jpg 2016-02-22 22:39 29K 
 sm63616-1.jpg 2016-02-22 22:48 29K 
 ps9104.jpg 2016-02-22 22:45 29K 
 fl3609365_1.jpg 2016-02-22 22:40 29K 
 fl3609365-1.jpg 2016-02-22 22:40 29K 
 dd07099.jpg 2016-02-22 22:39 29K 
 fo16099.jpg 2016-02-22 22:43 29K 
 fl3609815_2.jpg 2016-02-22 22:40 29K 
 fl3609810_2.jpg 2016-02-22 22:40 29K 
 re1412.jpg 2016-02-22 22:46 29K 
 fl365220_2_hemd_fly.jpg2016-02-22 22:41 29K 
 fl364225_1.jpg 2016-02-22 22:41 29K 
 fl364225-1.jpg 2016-02-22 22:41 29K 
 ps8007w.jpg 2016-02-22 22:45 29K 
 ps6078_2.jpg 2016-02-22 22:45 29K 
 ps6077_2.jpg 2016-02-22 22:45 29K 
 ps6076_2.jpg 2016-02-22 22:45 29K 
 ps6075_2.jpg 2016-02-22 22:45 29K 
 ps6074_2.jpg 2016-02-22 22:45 29K 
 ps6073_2.jpg 2016-02-22 22:45 29K 
 ps6072_2.jpg 2016-02-22 22:45 29K 
 ps6071_2.jpg 2016-02-22 22:45 29K 
 4772030.jpg 2016-02-22 22:38 29K 
 fl364228_1.jpg 2016-02-22 22:41 29K 
 fl364228-1.jpg 2016-02-22 22:41 29K 
 pf0461.jpg 2016-02-22 22:44 29K 
 ps6047_2.jpg 2016-02-22 22:45 29K 
 ps6046_2.jpg 2016-02-22 22:45 29K 
 ps6045_2.jpg 2016-02-22 22:45 29K 
 ps6044_2.jpg 2016-02-22 22:45 29K 
 ps6043_2.jpg 2016-02-22 22:45 29K 
 ps6042_2.jpg 2016-02-22 22:45 29K 
 ps6041_2.jpg 2016-02-22 22:45 29K 
 cm2590a_2.jpg 2016-02-22 22:39 29K 
 cs58897_1.jpg 2016-02-22 22:39 29K 
 fl365521_3_hemd_fly.jpg2016-02-22 22:41 29K 
 si02104990_2.jpg 2016-02-22 22:46 29K 
 gegp10001.jpg 2016-02-22 22:43 29K 
 fl35006001_2.jpg 2016-02-22 22:40 29K 
 fl35006001-2.jpg 2016-02-22 22:40 29K 
 fl365221_2_hemd_fly.jpg2016-02-22 22:41 29K 
 fl365448_3_hose_fly.jpg2016-02-22 22:41 29K 
 si07860240_1.jpg 2016-02-22 22:47 29K 
 sm63006.jpg 2016-02-22 22:48 29K 
 fl364620_1.jpg 2016-02-22 22:41 29K 
 fl364620-1.jpg 2016-02-22 22:41 29K 
 mobius-sizing1.jpg 2016-02-22 22:44 29K 
 sm63008.jpg 2016-02-22 22:48 29K 
 rehg100s.jpg 2016-02-22 22:46 29K 
 fl3510056_2.jpg 2016-02-22 22:40 29K 
 fl3510056-2.jpg 2016-02-22 22:40 29K 
 EvoRevBW_front.jpg 2016-02-22 22:39 29K 
 stsun010g.jpg 2016-02-22 22:49 29K 
 sm62011_intake_sweat..>2016-02-22 22:48 29K 
 sm62011.jpg 2016-02-22 22:48 29K 
 fl365230_hose_fly.jpg 2016-02-22 22:41 29K 
 ps3037ge.jpg 2016-02-22 22:45 29K 
 si87503001.jpg 2016-02-22 22:47 29K 
 ps6116.jpg 2016-02-22 22:45 29K 
 ps6103_3.jpg 2016-02-22 22:45 29K 
 mw1001.jpg 2016-02-22 22:44 29K 
 zu96216.jpg 2016-02-22 22:50 29K 
 fl3510042_1.jpg 2016-02-22 22:40 29K 
 fl3510042.jpg 2016-02-22 22:40 29K 
 8538303.jpg 2016-02-22 22:38 29K 
 8538301.jpg 2016-02-22 22:38 29K 
 8538300.jpg 2016-02-22 22:38 29K 
 141204403010.jpg 2016-02-22 22:38 29K 
 141204402510.jpg 2016-02-22 22:38 29K 
 141204402010.jpg 2016-02-22 22:38 29K 
 141204401510.jpg 2016-02-22 22:38 29K 
 141204203010.jpg 2016-02-22 22:38 29K 
 141204202510.jpg 2016-02-22 22:38 29K 
 141204202010.jpg 2016-02-22 22:38 29K 
 141204201510.jpg 2016-02-22 22:38 29K 
 141204003010.jpg 2016-02-22 22:38 29K 
 141204002510.jpg 2016-02-22 22:38 29K 
 141204002010.jpg 2016-02-22 22:38 29K 
 141204001510.jpg 2016-02-22 22:38 29K 
 141204001110.jpg 2016-02-22 22:38 29K 
 141203803010.jpg 2016-02-22 22:38 29K 
 141203802510.jpg 2016-02-22 22:38 29K 
 141203802010.jpg 2016-02-22 22:38 29K 
 141203801510.jpg 2016-02-22 22:38 29K 
 141203801110.jpg 2016-02-22 22:38 29K 
 141203603010.jpg 2016-02-22 22:38 29K 
 141203602510.jpg 2016-02-22 22:38 29K 
 141203602010.jpg 2016-02-22 22:38 29K 
 141203601510.jpg 2016-02-22 22:38 29K 
 141203601110.jpg 2016-02-22 22:38 29K 
 141203403010.jpg 2016-02-22 22:38 29K 
 141203402510.jpg 2016-02-22 22:38 29K 
 141203402010.jpg 2016-02-22 22:38 29K 
 141203401510.jpg 2016-02-22 22:38 29K 
 141203401110.jpg 2016-02-22 22:38 29K 
 141203203010.jpg 2016-02-22 22:38 29K 
 141203202510.jpg 2016-02-22 22:38 29K 
 141203202010.jpg 2016-02-22 22:38 29K 
 141203201510.jpg 2016-02-22 22:38 29K 
 141203201110.jpg 2016-02-22 22:38 29K 
 141203003010.jpg 2016-02-22 22:38 29K 
 141203002510.jpg 2016-02-22 22:38 29K 
 141203002010.jpg 2016-02-22 22:38 29K 
 141203001510.jpg 2016-02-22 22:38 29K 
 141203001110.jpg 2016-02-22 22:38 29K 
 141202903010.jpg 2016-02-22 22:38 29K 
 141202902510.jpg 2016-02-22 22:38 29K 
 141202902010.jpg 2016-02-22 22:38 29K 
 141202901510.jpg 2016-02-22 22:38 29K 
 141202901110.jpg 2016-02-22 22:38 29K 
 141202803010.jpg 2016-02-22 22:38 29K 
 141202802510.jpg 2016-02-22 22:38 29K 
 141202802010.jpg 2016-02-22 22:38 29K 
 141202801510.jpg 2016-02-22 22:38 29K 
 141202801110.jpg 2016-02-22 22:38 29K 
 141202703010.jpg 2016-02-22 22:38 29K 
 141202702510.jpg 2016-02-22 22:38 29K 
 141202702010.jpg 2016-02-22 22:38 29K 
 141202701510.jpg 2016-02-22 22:38 29K 
 141202701110.jpg 2016-02-22 22:38 29K 
 141202603010.jpg 2016-02-22 22:38 29K 
 141202602510.jpg 2016-02-22 22:38 29K 
 141202602010.jpg 2016-02-22 22:38 29K 
 141202601510.jpg 2016-02-22 22:38 29K 
 141202601110.jpg 2016-02-22 22:38 29K 
 141202503010.jpg 2016-02-22 22:38 29K 
 141202502510.jpg 2016-02-22 22:38 29K 
 141202502010.jpg 2016-02-22 22:38 29K 
 141202501510.jpg 2016-02-22 22:38 29K 
 141202501110.jpg 2016-02-22 22:38 29K 
 141202403010.jpg 2016-02-22 22:38 29K 
 141202402510.jpg 2016-02-22 22:38 29K 
 141202402010.jpg 2016-02-22 22:38 29K 
 141202401510.jpg 2016-02-22 22:38 29K 
 141202401110.jpg 2016-02-22 22:38 29K 
 141202303010.jpg 2016-02-22 22:38 29K 
 141202302510.jpg 2016-02-22 22:38 29K 
 141202302010.jpg 2016-02-22 22:38 29K 
 141202301510.jpg 2016-02-22 22:38 29K 
 141202301110.jpg 2016-02-22 22:38 29K 
 141202207010.jpg 2016-02-22 22:38 29K 
 141202203010.jpg 2016-02-22 22:38 29K 
 141202202510.jpg 2016-02-22 22:38 29K 
 141202202010.jpg 2016-02-22 22:38 29K 
 141202201510.jpg 2016-02-22 22:38 29K 
 141202201110.jpg 2016-02-22 22:38 29K 
 141202107010.jpg 2016-02-22 22:38 29K 
 141202103010.jpg 2016-02-22 22:38 29K 
 141202102510.jpg 2016-02-22 22:38 29K 
 141202102010.jpg 2016-02-22 22:38 29K 
 141202101510.jpg 2016-02-22 22:38 29K 
 141202101110.jpg 2016-02-22 22:38 29K 
 141202007010.jpg 2016-02-22 22:38 29K 
 141202003010.jpg 2016-02-22 22:38 29K 
 141202002510.jpg 2016-02-22 22:38 29K 
 141202002010.jpg 2016-02-22 22:38 29K 
 141202001510.jpg 2016-02-22 22:38 29K 
 141202001110.jpg 2016-02-22 22:38 29K 
 141201907010.jpg 2016-02-22 22:38 29K 
 141201903010.jpg 2016-02-22 22:38 29K 
 141201902510.jpg 2016-02-22 22:38 29K 
 141201902010.jpg 2016-02-22 22:38 29K 
 141201901510.jpg 2016-02-22 22:38 29K 
 141201901110.jpg 2016-02-22 22:38 29K 
 141201807010.jpg 2016-02-22 22:38 29K 
 141201803010.jpg 2016-02-22 22:38 29K 
 141201802510.jpg 2016-02-22 22:38 29K 
 141201802010.jpg 2016-02-22 22:38 29K 
 141201801510.jpg 2016-02-22 22:38 29K 
 141201801110.jpg 2016-02-22 22:38 29K 
 141201707010.jpg 2016-02-22 22:38 29K 
 141201703010.jpg 2016-02-22 22:38 29K 
 141201702510.jpg 2016-02-22 22:38 29K 
 141201702010.jpg 2016-02-22 22:38 29K 
 141201701110.jpg 2016-02-22 22:38 29K 
 141201607010.jpg 2016-02-22 22:38 29K 
 141201603010.jpg 2016-02-22 22:38 29K 
 141201602510.jpg 2016-02-22 22:38 29K 
 141201602010.jpg 2016-02-22 22:38 29K 
 141201601510.jpg 2016-02-22 22:38 29K 
 141201601110.jpg 2016-02-22 22:38 29K 
 141201507010.jpg 2016-02-22 22:38 29K 
 141201501110.jpg 2016-02-22 22:38 29K 
 141122701510.jpg 2016-02-22 22:38 29K 
 141122701110.jpg 2016-02-22 22:38 29K 
 141122601510.jpg 2016-02-22 22:38 29K 
 141122601110.jpg 2016-02-22 22:38 29K 
 141122504010.jpg 2016-02-22 22:38 29K 
 141122501510.jpg 2016-02-22 22:38 29K 
 141122501110.jpg 2016-02-22 22:38 29K 
 141122401510.jpg 2016-02-22 22:38 29K 
 141122401110.jpg 2016-02-22 22:38 29K 
 141122303010.jpg 2016-02-22 22:38 29K 
 141122301510.jpg 2016-02-22 22:38 29K 
 141122301110.jpg 2016-02-22 22:38 29K 
 141122204010.jpg 2016-02-22 22:38 29K 
 141122201510.jpg 2016-02-22 22:38 29K 
 141122201110.jpg 2016-02-22 22:38 29K 
 141122101510.jpg 2016-02-22 22:38 29K 
 141122101110.jpg 2016-02-22 22:38 29K 
 141122004010.jpg 2016-02-22 22:38 29K 
 141122003010.jpg 2016-02-22 22:38 29K 
 141122001510.jpg 2016-02-22 22:38 29K 
 141122001110.jpg 2016-02-22 22:38 29K 
 141121903010.jpg 2016-02-22 22:38 29K 
 141121901510.jpg 2016-02-22 22:38 29K 
 141121901110.jpg 2016-02-22 22:38 29K 
 141121801510.jpg 2016-02-22 22:38 29K 
 141121801110.jpg 2016-02-22 22:37 29K 
 141121703010.jpg 2016-02-22 22:37 29K 
 141121701510.jpg 2016-02-22 22:37 29K 
 141121701110.jpg 2016-02-22 22:37 29K 
 141121603010.jpg 2016-02-22 22:37 29K 
 141121601510.jpg 2016-02-22 22:37 29K 
 141121601110.jpg 2016-02-22 22:37 29K 
 141121503010.jpg 2016-02-22 22:37 29K 
 141121502010.jpg 2016-02-22 22:37 29K 
 141121403010.jpg 2016-02-22 22:37 29K 
 141121402010.jpg 2016-02-22 22:37 29K 
 141121401510.jpg 2016-02-22 22:37 29K 
 141121303010.jpg 2016-02-22 22:37 29K 
 141121302010.jpg 2016-02-22 22:37 29K 
 141022503010.jpg 2016-02-22 22:37 29K 
 141022501110.jpg 2016-02-22 22:37 29K 
 141022500810.jpg 2016-02-22 22:37 29K 
 141022404010.jpg 2016-02-22 22:37 29K 
 141022401110.jpg 2016-02-22 22:37 29K 
 141022400810.jpg 2016-02-22 22:37 29K 
 141022301110.jpg 2016-02-22 22:37 29K 
 141022204010.jpg 2016-02-22 22:37 29K 
 141022201110.jpg 2016-02-22 22:37 29K 
 141022200810.jpg 2016-02-22 22:37 29K 
 141022101110.jpg 2016-02-22 22:37 29K 
 141022001110.jpg 2016-02-22 22:37 29K 
 141022000810.jpg 2016-02-22 22:37 29K 
 141021901110.jpg 2016-02-22 22:37 29K 
 141021801110.jpg 2016-02-22 22:37 29K 
 141021800810.jpg 2016-02-22 22:37 29K 
 141021701110.jpg 2016-02-22 22:37 29K 
 141021601110.jpg 2016-02-22 22:37 29K 
 141021600810.jpg 2016-02-22 22:37 29K 
 141021501110.jpg 2016-02-22 22:37 29K 
 141021403010.jpg 2016-02-22 22:37 29K 
 141021401110.jpg 2016-02-22 22:37 29K 
 141021400810.jpg 2016-02-22 22:37 29K 
 141021303010.jpg 2016-02-22 22:37 29K 
 141021301110.jpg 2016-02-22 22:37 29K 
 141021203010.jpg 2016-02-22 22:37 29K 
 141021201110.jpg 2016-02-22 22:37 29K 
 140903502010.jpg 2016-02-22 22:37 29K 
 140903202010.jpg 2016-02-22 22:37 29K 
 140903002510.jpg 2016-02-22 22:37 29K 
 140903002010.jpg 2016-02-22 22:37 29K 
 140903001510.jpg 2016-02-22 22:37 29K 
 140902802510.jpg 2016-02-22 22:37 29K 
 140902802010.jpg 2016-02-22 22:37 29K 
 140902801510.jpg 2016-02-22 22:37 29K 
 140902602510.jpg 2016-02-22 22:37 29K 
 140902602010.jpg 2016-02-22 22:37 29K 
 140902601510.jpg 2016-02-22 22:37 29K 
 140902601110.jpg 2016-02-22 22:37 29K 
 140902402510.jpg 2016-02-22 22:37 29K 
 140902402010.jpg 2016-02-22 22:37 29K 
 140902401510.jpg 2016-02-22 22:37 29K 
 140902401110.jpg 2016-02-22 22:37 29K 
 140902301110.jpg 2016-02-22 22:37 29K 
 140902202510.jpg 2016-02-22 22:37 29K 
 140902202010.jpg 2016-02-22 22:37 29K 
 140902201510.jpg 2016-02-22 22:37 29K 
 140902201110.jpg 2016-02-22 22:37 29K 
 140902102010.jpg 2016-02-22 22:37 29K 
 140902101510.jpg 2016-02-22 22:37 29K 
 140902101110.jpg 2016-02-22 22:37 29K 
 140902002510.jpg 2016-02-22 22:37 29K 
 140902002010.jpg 2016-02-22 22:37 29K 
 140902001510.jpg 2016-02-22 22:37 29K 
 140902001110.jpg 2016-02-22 22:37 29K 
 140901902510.jpg 2016-02-22 22:37 29K 
 140901902010.jpg 2016-02-22 22:37 29K 
 140901901510.jpg 2016-02-22 22:37 29K 
 140901901110.jpg 2016-02-22 22:37 29K 
 140901802510.jpg 2016-02-22 22:37 29K 
 140901802010.jpg 2016-02-22 22:37 29K 
 140901801510.jpg 2016-02-22 22:37 29K 
 140901801110.jpg 2016-02-22 22:37 29K 
 140901702510.jpg 2016-02-22 22:37 29K 
 140901702010.jpg 2016-02-22 22:37 29K 
 140901701510.jpg 2016-02-22 22:37 29K 
 140901701110.jpg 2016-02-22 22:37 29K 
 140901602510.jpg 2016-02-22 22:37 29K 
 140901602010.jpg 2016-02-22 22:37 29K 
 140901601510.jpg 2016-02-22 22:37 29K 
 140901601110.jpg 2016-02-22 22:37 29K 
 140901502510.jpg 2016-02-22 22:37 29K 
 140901502010.jpg 2016-02-22 22:37 29K 
 140901501510.jpg 2016-02-22 22:37 29K 
 140901501110.jpg 2016-02-22 22:37 29K 
 140901402510.jpg 2016-02-22 22:37 29K 
 140901402010.jpg 2016-02-22 22:37 29K 
 140901401510.jpg 2016-02-22 22:37 29K 
 140901401110.jpg 2016-02-22 22:37 29K 
 140901302510.jpg<